Time,TemperatureF,DewpointF,PressureIn,WindDirection,WindDirectionDegrees,WindSpeedMPH,WindSpeedGustMPH,Humidity,HourlyPrecipIn,Conditions,Clouds,dailyrainin,SoftwareType,DateUTC
2013-05-26 00:00:00,58.2,52.1,30.31,NE,49,1.5,3.0,80,0.00,,,0.00,VWS V14.01,2013-05-26 04:00:00,
2013-05-26 00:01:00,58.2,52.1,30.30,NE,49,3.0,3.0,80,0.00,,,0.00,VWS V14.01,2013-05-26 04:01:00,
2013-05-26 00:02:00,58.2,52.1,30.30,NE,49,1.5,3.0,80,0.00,,,0.00,VWS V14.01,2013-05-26 04:02:00,
2013-05-26 00:03:00,58.2,52.1,30.31,NE,49,1.5,3.0,80,0.00,,,0.00,VWS V14.01,2013-05-26 04:03:00,
2013-05-26 00:04:00,58.2,52.1,30.31,NE,49,1.5,3.0,80,0.00,,,0.00,VWS V14.01,2013-05-26 04:04:00,
2013-05-26 00:05:00,58.2,52.4,30.31,NE,49,1.5,1.5,81,0.00,,,0.00,VWS V14.01,2013-05-26 04:05:00,
2013-05-26 00:06:00,58.2,52.4,30.31,NE,49,1.5,1.5,81,0.00,,,0.00,VWS V14.01,2013-05-26 04:06:00,
2013-05-26 00:07:00,58.1,52.3,30.31,NE,49,1.5,1.5,81,0.00,,,0.00,VWS V14.01,2013-05-26 04:07:00,
2013-05-26 00:08:00,58.1,52.6,30.31,NE,49,1.5,1.5,82,0.00,,,0.00,VWS V14.01,2013-05-26 04:08:00,
2013-05-26 00:09:00,58.1,52.6,30.30,NE,49,1.5,1.5,82,0.00,,,0.00,VWS V14.01,2013-05-26 04:09:00,
2013-05-26 00:10:00,58.0,52.2,30.31,NE,49,1.5,1.5,81,0.00,,,0.00,VWS V14.01,2013-05-26 04:10:00,
2013-05-26 00:11:00,58.0,52.2,30.30,NE,49,1.5,1.5,81,0.00,,,0.00,VWS V14.01,2013-05-26 04:11:00,
2013-05-26 00:12:00,57.9,52.1,30.30,NE,49,1.5,1.5,81,0.00,,,0.00,VWS V14.01,2013-05-26 04:12:00,
2013-05-26 00:13:00,57.9,52.5,30.30,NE,49,1.5,1.5,82,0.00,,,0.00,VWS V14.01,2013-05-26 04:13:00,
2013-05-26 00:14:00,57.9,52.5,30.30,NE,49,1.5,3.0,82,0.00,,,0.00,VWS V14.01,2013-05-26 04:14:00,
2013-05-26 00:15:00,57.8,52.3,30.30,NE,49,1.5,1.5,82,0.00,,,0.00,VWS V14.01,2013-05-26 04:15:00,
2013-05-26 00:16:00,57.8,52.3,30.30,NE,49,1.5,1.5,82,0.00,,,0.00,VWS V14.01,2013-05-26 04:16:00,
2013-05-26 00:17:00,57.8,52.3,30.30,NNE,32,3.0,3.0,82,0.00,,,0.00,VWS V14.01,2013-05-26 04:17:00,
2013-05-26 00:18:00,57.7,51.9,30.30,North,4,1.5,3.0,81,0.00,,,0.00,VWS V14.01,2013-05-26 04:18:00,
2013-05-26 00:19:00,57.7,51.9,30.30,North,4,1.5,1.5,81,0.00,,,0.00,VWS V14.01,2013-05-26 04:19:00,
2013-05-26 00:20:00,57.7,51.9,30.30,North,4,3.0,3.0,81,0.00,,,0.00,VWS V14.01,2013-05-26 04:20:00,
2013-05-26 00:21:00,57.6,51.5,30.30,NNE,27,3.0,4.5,80,0.00,,,0.00,VWS V14.01,2013-05-26 04:21:00,
2013-05-26 00:22:00,57.6,51.5,30.31,NNE,30,3.0,4.5,80,0.00,,,0.00,VWS V14.01,2013-05-26 04:22:00,
2013-05-26 00:23:00,57.6,51.5,30.31,NNE,32,3.0,3.0,80,0.00,,,0.00,VWS V14.01,2013-05-26 04:23:00,
2013-05-26 00:24:00,57.6,51.5,30.31,NNE,21,3.0,4.5,80,0.00,,,0.00,VWS V14.01,2013-05-26 04:24:00,
2013-05-26 00:25:00,57.6,51.5,30.31,North,2,3.0,3.0,80,0.00,,,0.00,VWS V14.01,2013-05-26 04:25:00,
2013-05-26 00:26:00,57.6,51.8,30.31,North,359,1.5,1.5,81,0.00,,,0.00,VWS V14.01,2013-05-26 04:26:00,
2013-05-26 00:27:00,57.6,51.8,30.31,North,360,1.5,1.5,81,0.00,,,0.00,VWS V14.01,2013-05-26 04:27:00,
2013-05-26 00:28:00,57.6,52.2,30.31,North,359,1.5,3.0,82,0.00,,,0.00,VWS V14.01,2013-05-26 04:28:00,
2013-05-26 00:29:00,57.6,52.2,30.31,North,360,1.5,1.5,82,0.00,,,0.00,VWS V14.01,2013-05-26 04:29:00,
2013-05-26 00:30:00,57.5,52.1,30.31,North,351,1.5,3.0,82,0.00,,,0.00,VWS V14.01,2013-05-26 04:30:00,
2013-05-26 00:31:00,57.5,52.4,30.31,North,351,1.5,1.5,83,0.00,,,0.00,VWS V14.01,2013-05-26 04:31:00,
2013-05-26 00:32:00,57.5,52.4,30.31,North,350,3.0,3.0,83,0.00,,,0.00,VWS V14.01,2013-05-26 04:32:00,
2013-05-26 00:33:00,57.4,52.3,30.31,North,351,1.5,3.0,83,0.00,,,0.00,VWS V14.01,2013-05-26 04:33:00,
2013-05-26 00:34:00,57.4,52.3,30.31,North,359,1.5,1.5,83,0.00,,,0.00,VWS V14.01,2013-05-26 04:34:00,
2013-05-26 00:35:00,57.3,52.2,30.31,North,359,1.5,1.5,83,0.00,,,0.00,VWS V14.01,2013-05-26 04:35:00,
2013-05-26 00:36:00,57.3,52.2,30.31,North,359,1.5,1.5,83,0.00,,,0.00,VWS V14.01,2013-05-26 04:36:00,
2013-05-26 00:37:00,57.3,52.5,30.31,North,359,1.5,1.5,84,0.00,,,0.00,VWS V14.01,2013-05-26 04:37:00,
2013-05-26 00:38:00,57.2,52.4,30.31,North,359,1.5,1.5,84,0.00,,,0.00,VWS V14.01,2013-05-26 04:38:00,
2013-05-26 00:39:00,57.2,52.4,30.31,North,360,1.5,3.0,84,0.00,,,0.00,VWS V14.01,2013-05-26 04:39:00,
2013-05-26 00:40:00,57.1,52.3,30.31,North,359,1.5,3.0,84,0.00,,,0.00,VWS V14.01,2013-05-26 04:40:00,
2013-05-26 00:41:00,57.1,52.3,30.31,North,360,1.5,1.5,84,0.00,,,0.00,VWS V14.01,2013-05-26 04:41:00,
2013-05-26 00:42:00,57.1,52.3,30.31,North,360,1.5,1.5,84,0.00,,,0.00,VWS V14.01,2013-05-26 04:42:00,
2013-05-26 00:43:00,57.0,52.2,30.31,North,360,1.5,1.5,84,0.00,,,0.00,VWS V14.01,2013-05-26 04:43:00,
2013-05-26 00:44:00,57.0,52.5,30.31,North,359,1.5,1.5,85,0.00,,,0.00,VWS V14.01,2013-05-26 04:44:00,
2013-05-26 00:45:00,57.0,52.5,30.31,North,359,1.5,1.5,85,0.00,,,0.00,VWS V14.01,2013-05-26 04:45:00,
2013-05-26 00:46:00,56.9,52.4,30.31,North,359,1.5,1.5,85,0.00,,,0.00,VWS V14.01,2013-05-26 04:46:00,
2013-05-26 00:47:00,56.9,52.4,30.31,North,360,1.5,3.0,85,0.00,,,0.00,VWS V14.01,2013-05-26 04:47:00,
2013-05-26 00:48:00,56.9,52.4,30.31,North,359,1.5,1.5,85,0.00,,,0.00,VWS V14.01,2013-05-26 04:48:00,
2013-05-26 00:49:00,56.9,52.4,30.31,North,359,1.5,1.5,85,0.00,,,0.00,VWS V14.01,2013-05-26 04:49:00,
2013-05-26 00:50:00,56.8,52.3,30.31,North,360,1.5,1.5,85,0.00,,,0.00,VWS V14.01,2013-05-26 04:50:00,
2013-05-26 00:51:00,56.8,52.3,30.31,North,359,1.5,3.0,85,0.00,,,0.00,VWS V14.01,2013-05-26 04:51:00,
2013-05-26 00:52:00,56.8,52.3,30.31,North,360,1.5,3.0,85,0.00,,,0.00,VWS V14.01,2013-05-26 04:52:00,
2013-05-26 00:53:00,56.8,52.3,30.31,North,359,1.5,1.5,85,0.00,,,0.00,VWS V14.01,2013-05-26 04:53:00,
2013-05-26 00:54:00,56.8,52.3,30.31,North,360,1.5,1.5,85,0.00,,,0.00,VWS V14.01,2013-05-26 04:54:00,
2013-05-26 00:55:00,56.8,52.3,30.31,North,359,1.5,1.5,85,0.00,,,0.00,VWS V14.01,2013-05-26 04:55:00,
2013-05-26 00:56:00,56.8,52.3,30.31,North,359,1.5,1.5,85,0.00,,,0.00,VWS V14.01,2013-05-26 04:56:00,
2013-05-26 00:57:00,56.8,52.7,30.31,North,359,1.5,1.5,86,0.00,,,0.00,VWS V14.01,2013-05-26 04:57:00,
2013-05-26 00:58:00,56.8,52.7,30.31,North,360,3.0,3.0,86,0.00,,,0.00,VWS V14.01,2013-05-26 04:58:00,
2013-05-26 00:59:00,56.8,52.3,30.31,North,360,1.5,3.0,85,0.00,,,0.00,VWS V14.01,2013-05-26 04:59:00,
2013-05-26 01:00:00,56.8,52.3,30.31,North,360,1.5,1.5,85,0.00,,,0.00,VWS V14.01,2013-05-26 05:00:00,
2013-05-26 01:01:00,56.7,52.2,30.31,North,359,1.5,1.5,85,0.00,,,0.00,VWS V14.01,2013-05-26 05:01:00,
2013-05-26 01:02:00,56.7,52.6,30.31,North,359,1.5,3.0,86,0.00,,,0.00,VWS V14.01,2013-05-26 05:02:00,
2013-05-26 01:03:00,56.7,52.6,30.31,North,2,1.5,3.0,86,0.00,,,0.00,VWS V14.01,2013-05-26 05:03:00,
2013-05-26 01:04:00,56.7,52.2,30.31,North,2,1.5,3.0,85,0.00,,,0.00,VWS V14.01,2013-05-26 05:04:00,
2013-05-26 01:05:00,56.7,52.2,30.31,North,2,1.5,1.5,85,0.00,,,0.00,VWS V14.01,2013-05-26 05:05:00,
2013-05-26 01:06:00,56.7,52.2,30.30,North,2,1.5,1.5,85,0.00,,,0.00,VWS V14.01,2013-05-26 05:06:00,
2013-05-26 01:07:00,56.7,52.2,30.30,North,2,1.5,1.5,85,0.00,,,0.00,VWS V14.01,2013-05-26 05:07:00,
2013-05-26 01:08:00,56.7,52.2,30.30,North,3,3.0,3.0,85,0.00,,,0.00,VWS V14.01,2013-05-26 05:08:00,
2013-05-26 01:09:00,56.7,52.2,30.30,North,3,1.5,3.0,85,0.00,,,0.00,VWS V14.01,2013-05-26 05:09:00,
2013-05-26 01:10:00,56.7,52.2,30.30,North,3,1.5,1.5,85,0.00,,,0.00,VWS V14.01,2013-05-26 05:10:00,
2013-05-26 01:11:00,56.7,52.2,30.30,North,2,1.5,1.5,85,0.00,,,0.00,VWS V14.01,2013-05-26 05:11:00,
2013-05-26 01:12:00,56.7,52.2,30.30,North,3,1.5,1.5,85,0.00,,,0.00,VWS V14.01,2013-05-26 05:12:00,
2013-05-26 01:13:00,56.7,52.2,30.30,North,3,1.5,1.5,85,0.00,,,0.00,VWS V14.01,2013-05-26 05:13:00,
2013-05-26 01:14:00,56.7,52.2,30.30,North,2,1.5,1.5,85,0.00,,,0.00,VWS V14.01,2013-05-26 05:14:00,
2013-05-26 01:15:00,56.7,52.2,30.30,North,3,1.5,1.5,85,0.00,,,0.00,VWS V14.01,2013-05-26 05:15:00,
2013-05-26 01:16:00,56.7,52.2,30.30,North,3,1.5,1.5,85,0.00,,,0.00,VWS V14.01,2013-05-26 05:16:00,
2013-05-26 01:17:00,56.7,52.2,30.30,North,3,1.5,1.5,85,0.00,,,0.00,VWS V14.01,2013-05-26 05:17:00,
2013-05-26 01:18:00,56.7,52.2,30.30,North,2,1.5,1.5,85,0.00,,,0.00,VWS V14.01,2013-05-26 05:18:00,
2013-05-26 01:19:00,56.7,52.2,30.30,North,3,1.5,1.5,85,0.00,,,0.00,VWS V14.01,2013-05-26 05:19:00,
2013-05-26 01:20:00,56.7,52.2,30.30,North,3,1.5,1.5,85,0.00,,,0.00,VWS V14.01,2013-05-26 05:20:00,
2013-05-26 01:21:00,56.7,52.6,30.30,North,3,1.5,1.5,86,0.00,,,0.00,VWS V14.01,2013-05-26 05:21:00,
2013-05-26 01:22:00,56.7,52.6,30.30,North,3,1.5,1.5,86,0.00,,,0.00,VWS V14.01,2013-05-26 05:22:00,
2013-05-26 01:23:00,56.7,52.6,30.30,North,3,1.5,1.5,86,0.00,,,0.00,VWS V14.01,2013-05-26 05:23:00,
2013-05-26 01:24:00,56.7,52.6,30.30,North,2,1.5,1.5,86,0.00,,,0.00,VWS V14.01,2013-05-26 05:24:00,
2013-05-26 01:25:00,56.7,52.6,30.30,North,3,1.5,1.5,86,0.00,,,0.00,VWS V14.01,2013-05-26 05:25:00,
2013-05-26 01:26:00,56.7,52.6,30.30,North,2,1.5,1.5,86,0.00,,,0.00,VWS V14.01,2013-05-26 05:26:00,
2013-05-26 01:27:00,56.7,52.6,30.30,North,2,1.5,1.5,86,0.00,,,0.00,VWS V14.01,2013-05-26 05:27:00,
2013-05-26 01:28:00,56.7,52.6,30.30,North,3,1.5,1.5,86,0.00,,,0.00,VWS V14.01,2013-05-26 05:28:00,
2013-05-26 01:29:00,56.7,52.9,30.30,North,3,1.5,1.5,87,0.00,,,0.00,VWS V14.01,2013-05-26 05:29:00,
2013-05-26 01:30:00,56.7,52.9,30.30,North,3,1.5,1.5,87,0.00,,,0.00,VWS V14.01,2013-05-26 05:30:00,
2013-05-26 01:31:00,56.7,52.9,30.30,North,3,1.5,1.5,87,0.00,,,0.00,VWS V14.01,2013-05-26 05:31:00,
2013-05-26 01:32:00,56.7,52.9,30.30,North,3,1.5,1.5,87,0.00,,,0.00,VWS V14.01,2013-05-26 05:32:00,
2013-05-26 01:33:00,56.7,52.9,30.30,North,3,1.5,1.5,87,0.00,,,0.00,VWS V14.01,2013-05-26 05:33:00,
2013-05-26 01:34:00,56.7,52.9,30.30,North,3,1.5,3.0,87,0.00,,,0.00,VWS V14.01,2013-05-26 05:34:00,
2013-05-26 01:35:00,56.7,52.9,30.29,North,3,1.5,1.5,87,0.00,,,0.00,VWS V14.01,2013-05-26 05:35:00,
2013-05-26 01:36:00,56.7,52.9,30.29,North,3,1.5,1.5,87,0.00,,,0.00,VWS V14.01,2013-05-26 05:36:00,
2013-05-26 01:37:00,56.6,52.8,30.29,North,3,1.5,1.5,87,0.00,,,0.00,VWS V14.01,2013-05-26 05:37:00,
2013-05-26 01:38:00,56.6,52.8,30.29,North,3,1.5,1.5,87,0.00,,,0.00,VWS V14.01,2013-05-26 05:38:00,
2013-05-26 01:39:00,56.6,52.8,30.29,North,3,1.5,1.5,87,0.00,,,0.00,VWS V14.01,2013-05-26 05:39:00,
2013-05-26 01:40:00,56.6,52.8,30.29,North,3,1.5,1.5,87,0.00,,,0.00,VWS V14.01,2013-05-26 05:40:00,
2013-05-26 01:41:00,56.6,52.8,30.29,North,3,1.5,1.5,87,0.00,,,0.00,VWS V14.01,2013-05-26 05:41:00,
2013-05-26 01:42:00,56.6,52.8,30.29,North,3,1.5,1.5,87,0.00,,,0.00,VWS V14.01,2013-05-26 05:42:00,
2013-05-26 01:43:00,56.6,53.1,30.29,North,2,1.5,1.5,88,0.00,,,0.00,VWS V14.01,2013-05-26 05:43:00,
2013-05-26 01:44:00,56.6,53.1,30.29,North,3,1.5,1.5,88,0.00,,,0.00,VWS V14.01,2013-05-26 05:44:00,
2013-05-26 01:45:00,56.6,53.1,30.29,North,3,1.5,1.5,88,0.00,,,0.00,VWS V14.01,2013-05-26 05:45:00,
2013-05-26 01:46:00,56.5,52.7,30.29,North,3,1.5,1.5,87,0.00,,,0.00,VWS V14.01,2013-05-26 05:46:00,
2013-05-26 01:47:00,56.5,52.7,30.29,North,2,1.5,1.5,87,0.00,,,0.00,VWS V14.01,2013-05-26 05:47:00,
2013-05-26 01:48:00,56.5,52.7,30.29,North,3,1.5,1.5,87,0.00,,,0.00,VWS V14.01,2013-05-26 05:48:00,
2013-05-26 01:49:00,56.5,52.7,30.29,North,3,1.5,1.5,87,0.00,,,0.00,VWS V14.01,2013-05-26 05:49:00,
2013-05-26 01:50:00,56.4,52.6,30.29,North,3,1.5,1.5,87,0.00,,,0.00,VWS V14.01,2013-05-26 05:50:00,
2013-05-26 01:51:00,56.4,52.6,30.29,North,3,1.5,1.5,87,0.00,,,0.00,VWS V14.01,2013-05-26 05:51:00,
2013-05-26 01:52:00,56.4,52.9,30.29,North,3,1.5,1.5,88,0.00,,,0.00,VWS V14.01,2013-05-26 05:52:00,
2013-05-26 01:53:00,56.3,52.8,30.29,North,3,1.5,1.5,88,0.00,,,0.00,VWS V14.01,2013-05-26 05:53:00,
2013-05-26 01:54:00,56.4,52.6,30.29,North,3,1.5,1.5,87,0.00,,,0.00,VWS V14.01,2013-05-26 05:54:00,
2013-05-26 01:55:00,56.3,52.5,30.28,North,3,1.5,3.0,87,0.00,,,0.00,VWS V14.01,2013-05-26 05:55:00,
2013-05-26 01:56:00,56.3,52.5,30.28,North,3,1.5,3.0,87,0.00,,,0.00,VWS V14.01,2013-05-26 05:56:00,
2013-05-26 01:57:00,56.4,52.6,30.28,North,3,1.5,1.5,87,0.00,,,0.00,VWS V14.01,2013-05-26 05:57:00,
2013-05-26 01:58:00,56.4,52.9,30.28,North,7,3.0,3.0,88,0.00,,,0.00,VWS V14.01,2013-05-26 05:58:00,
2013-05-26 01:59:00,56.5,53.0,30.28,North,7,1.5,3.0,88,0.00,,,0.00,VWS V14.01,2013-05-26 05:59:00,
2013-05-26 02:00:00,56.5,53.3,30.29,North,6,1.5,1.5,89,0.00,,,0.00,VWS V14.01,2013-05-26 06:00:00,
2013-05-26 02:01:00,56.5,53.3,30.29,North,6,1.5,1.5,89,0.00,,,0.00,VWS V14.01,2013-05-26 06:01:00,
2013-05-26 02:02:00,56.5,53.3,30.29,North,7,1.5,1.5,89,0.00,,,0.00,VWS V14.01,2013-05-26 06:02:00,
2013-05-26 02:03:00,56.5,53.3,30.29,North,6,1.5,1.5,89,0.00,,,0.00,VWS V14.01,2013-05-26 06:03:00,
2013-05-26 02:04:00,56.5,53.3,30.29,North,6,1.5,1.5,89,0.00,,,0.00,VWS V14.01,2013-05-26 06:04:00,
2013-05-26 02:05:00,56.4,53.2,30.29,North,6,1.5,1.5,89,0.00,,,0.00,VWS V14.01,2013-05-26 06:05:00,
2013-05-26 02:06:00,56.4,53.2,30.29,North,6,1.5,1.5,89,0.00,,,0.00,VWS V14.01,2013-05-26 06:06:00,
2013-05-26 02:07:00,56.4,53.5,30.28,North,6,1.5,1.5,90,0.00,,,0.00,VWS V14.01,2013-05-26 06:07:00,
2013-05-26 02:08:00,56.4,53.5,30.28,North,7,1.5,1.5,90,0.00,,,0.00,VWS V14.01,2013-05-26 06:08:00,
2013-05-26 02:09:00,56.3,53.4,30.28,North,7,1.5,3.0,90,0.00,,,0.00,VWS V14.01,2013-05-26 06:09:00,
2013-05-26 02:10:00,56.3,53.4,30.29,North,7,1.5,1.5,90,0.00,,,0.00,VWS V14.01,2013-05-26 06:10:00,
2013-05-26 02:11:00,56.3,53.4,30.29,North,7,1.5,1.5,90,0.00,,,0.00,VWS V14.01,2013-05-26 06:11:00,
2013-05-26 02:12:00,56.2,53.3,30.29,North,7,1.5,1.5,90,0.00,,,0.00,VWS V14.01,2013-05-26 06:12:00,
2013-05-26 02:13:00,56.2,53.6,30.28,North,6,1.5,1.5,91,0.00,,,0.00,VWS V14.01,2013-05-26 06:13:00,
2013-05-26 02:14:00,56.2,53.3,30.28,North,7,3.0,3.0,90,0.00,,,0.00,VWS V14.01,2013-05-26 06:14:00,
2013-05-26 02:15:00,56.1,53.2,30.29,North,7,1.5,3.0,90,0.00,,,0.00,VWS V14.01,2013-05-26 06:15:00,
2013-05-26 02:16:00,56.1,53.2,30.29,North,6,1.5,3.0,90,0.00,,,0.00,VWS V14.01,2013-05-26 06:16:00,
2013-05-26 02:17:00,56.1,53.2,30.29,North,6,1.5,3.0,90,0.00,,,0.00,VWS V14.01,2013-05-26 06:17:00,
2013-05-26 02:18:00,56.1,53.2,30.29,North,6,1.5,1.5,90,0.00,,,0.00,VWS V14.01,2013-05-26 06:18:00,
2013-05-26 02:19:00,56.0,53.1,30.29,North,7,1.5,1.5,90,0.00,,,0.00,VWS V14.01,2013-05-26 06:19:00,
2013-05-26 02:20:00,56.0,53.1,30.29,North,7,1.5,1.5,90,0.00,,,0.00,VWS V14.01,2013-05-26 06:20:00,
2013-05-26 02:21:00,56.0,53.1,30.29,North,6,1.5,1.5,90,0.00,,,0.00,VWS V14.01,2013-05-26 06:21:00,
2013-05-26 02:22:00,56.0,53.1,30.28,North,7,1.5,1.5,90,0.00,,,0.00,VWS V14.01,2013-05-26 06:22:00,
2013-05-26 02:23:00,55.9,53.0,30.28,North,7,1.5,1.5,90,0.00,,,0.00,VWS V14.01,2013-05-26 06:23:00,
2013-05-26 02:24:00,55.9,53.0,30.29,North,6,1.5,1.5,90,0.00,,,0.00,VWS V14.01,2013-05-26 06:24:00,
2013-05-26 02:25:00,55.9,53.0,30.29,North,6,1.5,1.5,90,0.00,,,0.00,VWS V14.01,2013-05-26 06:25:00,
2013-05-26 02:26:00,55.9,53.0,30.29,North,6,1.5,1.5,90,0.00,,,0.00,VWS V14.01,2013-05-26 06:26:00,
2013-05-26 02:27:00,55.9,53.0,30.29,North,6,1.5,1.5,90,0.00,,,0.00,VWS V14.01,2013-05-26 06:27:00,
2013-05-26 02:28:00,55.9,53.0,30.29,North,7,1.5,1.5,90,0.00,,,0.00,VWS V14.01,2013-05-26 06:28:00,
2013-05-26 02:29:00,55.9,53.0,30.29,North,7,1.5,1.5,90,0.00,,,0.00,VWS V14.01,2013-05-26 06:29:00,
2013-05-26 02:30:00,55.8,52.9,30.29,North,6,1.5,1.5,90,0.00,,,0.00,VWS V14.01,2013-05-26 06:30:00,
2013-05-26 02:31:00,55.8,52.9,30.29,North,7,1.5,1.5,90,0.00,,,0.00,VWS V14.01,2013-05-26 06:31:00,
2013-05-26 02:32:00,55.8,52.9,30.29,North,7,1.5,1.5,90,0.00,,,0.00,VWS V14.01,2013-05-26 06:32:00,
2013-05-26 02:33:00,55.8,52.9,30.29,North,7,1.5,1.5,90,0.00,,,0.00,VWS V14.01,2013-05-26 06:33:00,
2013-05-26 02:34:00,55.8,52.9,30.29,North,7,1.5,1.5,90,0.00,,,0.00,VWS V14.01,2013-05-26 06:34:00,
2013-05-26 02:35:00,55.8,52.9,30.29,North,6,1.5,1.5,90,0.00,,,0.00,VWS V14.01,2013-05-26 06:35:00,
2013-05-26 02:36:00,55.8,52.9,30.29,North,7,1.5,1.5,90,0.00,,,0.00,VWS V14.01,2013-05-26 06:36:00,
2013-05-26 02:37:00,55.8,52.9,30.29,North,6,1.5,1.5,90,0.00,,,0.00,VWS V14.01,2013-05-26 06:37:00,
2013-05-26 02:38:00,55.8,52.9,30.29,North,6,1.5,3.0,90,0.00,,,0.00,VWS V14.01,2013-05-26 06:38:00,
2013-05-26 02:39:00,55.8,52.9,30.29,North,6,1.5,1.5,90,0.00,,,0.00,VWS V14.01,2013-05-26 06:39:00,
2013-05-26 02:40:00,55.9,53.0,30.29,North,7,1.5,3.0,90,0.00,,,0.00,VWS V14.01,2013-05-26 06:40:00,
2013-05-26 02:41:00,55.9,53.0,30.29,North,6,1.5,3.0,90,0.00,,,0.00,VWS V14.01,2013-05-26 06:41:00,
2013-05-26 02:42:00,55.9,53.0,30.29,North,7,1.5,1.5,90,0.00,,,0.00,VWS V14.01,2013-05-26 06:42:00,
2013-05-26 02:43:00,55.9,52.7,30.29,North,7,1.5,1.5,89,0.00,,,0.00,VWS V14.01,2013-05-26 06:43:00,
2013-05-26 02:44:00,55.9,52.7,30.29,North,6,1.5,1.5,89,0.00,,,0.00,VWS V14.01,2013-05-26 06:44:00,
2013-05-26 02:45:00,55.9,52.7,30.29,North,6,1.5,1.5,89,0.00,,,0.00,VWS V14.01,2013-05-26 06:45:00,
2013-05-26 02:46:00,55.9,52.7,30.29,North,6,1.5,1.5,89,0.00,,,0.00,VWS V14.01,2013-05-26 06:46:00,
2013-05-26 02:47:00,55.9,52.7,30.29,North,6,1.5,1.5,89,0.00,,,0.00,VWS V14.01,2013-05-26 06:47:00,
2013-05-26 02:48:00,55.9,52.7,30.29,North,6,1.5,1.5,89,0.00,,,0.00,VWS V14.01,2013-05-26 06:48:00,
2013-05-26 02:49:00,55.9,52.7,30.30,North,7,1.5,1.5,89,0.00,,,0.00,VWS V14.01,2013-05-26 06:49:00,
2013-05-26 02:50:00,55.9,52.7,30.29,North,7,1.5,1.5,89,0.00,,,0.00,VWS V14.01,2013-05-26 06:50:00,
2013-05-26 02:51:00,55.9,52.7,30.29,North,6,1.5,1.5,89,0.00,,,0.00,VWS V14.01,2013-05-26 06:51:00,
2013-05-26 02:52:00,55.9,52.7,30.29,North,7,1.5,1.5,89,0.00,,,0.00,VWS V14.01,2013-05-26 06:52:00,
2013-05-26 02:53:00,55.9,52.7,30.29,North,6,1.5,1.5,89,0.00,,,0.00,VWS V14.01,2013-05-26 06:53:00,
2013-05-26 02:54:00,55.9,52.7,30.29,NE,35,3.0,3.0,89,0.00,,,0.00,VWS V14.01,2013-05-26 06:54:00,
2013-05-26 02:55:00,55.8,52.6,30.29,NE,50,3.0,4.5,89,0.00,,,0.00,VWS V14.01,2013-05-26 06:55:00,
2013-05-26 02:56:00,55.9,52.7,30.29,NE,51,1.5,4.5,89,0.00,,,0.00,VWS V14.01,2013-05-26 06:56:00,
2013-05-26 02:57:00,55.8,52.6,30.29,NE,50,1.5,3.0,89,0.00,,,0.00,VWS V14.01,2013-05-26 06:57:00,
2013-05-26 02:58:00,55.8,52.6,30.29,NE,51,1.5,1.5,89,0.00,,,0.00,VWS V14.01,2013-05-26 06:58:00,
2013-05-26 02:59:00,55.9,52.7,30.29,NE,50,1.5,3.0,89,0.00,,,0.00,VWS V14.01,2013-05-26 06:59:00,
2013-05-26 03:00:00,55.8,52.6,30.29,NE,51,1.5,3.0,89,0.00,,,0.00,VWS V14.01,2013-05-26 07:00:00,
2013-05-26 03:01:00,55.8,52.6,30.29,NE,51,1.5,3.0,89,0.00,,,0.00,VWS V14.01,2013-05-26 07:01:00,
2013-05-26 03:02:00,55.8,52.6,30.29,NE,50,1.5,1.5,89,0.00,,,0.00,VWS V14.01,2013-05-26 07:02:00,
2013-05-26 03:03:00,55.8,52.6,30.29,NE,50,1.5,1.5,89,0.00,,,0.00,VWS V14.01,2013-05-26 07:03:00,
2013-05-26 03:04:00,55.8,52.6,30.29,NE,50,1.5,1.5,89,0.00,,,0.00,VWS V14.01,2013-05-26 07:04:00,
2013-05-26 03:05:00,55.8,52.6,30.29,NE,51,1.5,1.5,89,0.00,,,0.00,VWS V14.01,2013-05-26 07:05:00,
2013-05-26 03:06:00,55.8,52.6,30.29,NE,51,1.5,1.5,89,0.00,,,0.00,VWS V14.01,2013-05-26 07:06:00,
2013-05-26 03:07:00,55.8,52.9,30.29,NE,50,1.5,1.5,90,0.00,,,0.00,VWS V14.01,2013-05-26 07:07:00,
2013-05-26 03:08:00,55.8,52.9,30.29,NE,51,1.5,1.5,90,0.00,,,0.00,VWS V14.01,2013-05-26 07:08:00,
2013-05-26 03:09:00,55.8,52.9,30.29,NE,50,1.5,1.5,90,0.00,,,0.00,VWS V14.01,2013-05-26 07:09:00,
2013-05-26 03:10:00,55.7,52.8,30.29,NE,50,1.5,1.5,90,0.00,,,0.00,VWS V14.01,2013-05-26 07:10:00,
2013-05-26 03:11:00,55.7,52.8,30.29,NE,51,1.5,1.5,90,0.00,,,0.00,VWS V14.01,2013-05-26 07:11:00,
2013-05-26 03:12:00,55.7,52.8,30.29,NE,49,3.0,3.0,90,0.00,,,0.00,VWS V14.01,2013-05-26 07:12:00,
2013-05-26 03:13:00,55.7,53.1,30.29,NE,49,1.5,3.0,91,0.00,,,0.00,VWS V14.01,2013-05-26 07:13:00,
2013-05-26 03:14:00,55.7,53.1,30.29,NE,49,1.5,1.5,91,0.00,,,0.00,VWS V14.01,2013-05-26 07:14:00,
2013-05-26 03:15:00,55.7,53.1,30.29,NE,49,1.5,3.0,91,0.00,,,0.00,VWS V14.01,2013-05-26 07:15:00,
2013-05-26 03:16:00,55.6,53.0,30.29,NE,49,1.5,3.0,91,0.00,,,0.00,VWS V14.01,2013-05-26 07:16:00,
2013-05-26 03:17:00,55.7,53.1,30.29,NE,49,1.5,1.5,91,0.00,,,0.00,VWS V14.01,2013-05-26 07:17:00,
2013-05-26 03:18:00,55.7,53.1,30.29,NE,49,1.5,1.5,91,0.00,,,0.00,VWS V14.01,2013-05-26 07:18:00,
2013-05-26 03:19:00,55.6,53.0,30.29,NE,51,1.5,1.5,91,0.00,,,0.00,VWS V14.01,2013-05-26 07:19:00,
2013-05-26 03:20:00,55.6,53.0,30.29,NE,51,1.5,1.5,91,0.00,,,0.00,VWS V14.01,2013-05-26 07:20:00,
2013-05-26 03:21:00,55.6,53.0,30.29,NE,50,1.5,1.5,91,0.00,,,0.00,VWS V14.01,2013-05-26 07:21:00,
2013-05-26 03:22:00,55.6,53.0,30.29,NE,51,1.5,1.5,91,0.00,,,0.00,VWS V14.01,2013-05-26 07:22:00,
2013-05-26 03:23:00,55.5,52.9,30.29,NE,51,1.5,1.5,91,0.00,,,0.00,VWS V14.01,2013-05-26 07:23:00,
2013-05-26 03:24:00,55.5,52.9,30.29,NE,44,1.5,1.5,91,0.00,,,0.00,VWS V14.01,2013-05-26 07:24:00,
2013-05-26 03:25:00,55.5,52.9,30.29,NE,44,1.5,1.5,91,0.00,,,0.00,VWS V14.01,2013-05-26 07:25:00,
2013-05-26 03:26:00,55.5,52.9,30.29,NE,44,1.5,1.5,91,0.00,,,0.00,VWS V14.01,2013-05-26 07:26:00,
2013-05-26 03:27:00,55.5,52.9,30.29,NE,44,1.5,1.5,91,0.00,,,0.00,VWS V14.01,2013-05-26 07:27:00,
2013-05-26 03:28:00,55.5,52.9,30.29,NE,44,1.5,1.5,91,0.00,,,0.00,VWS V14.01,2013-05-26 07:28:00,
2013-05-26 03:29:00,55.5,52.9,30.29,NE,44,1.5,1.5,91,0.00,,,0.00,VWS V14.01,2013-05-26 07:29:00,
2013-05-26 03:30:00,55.5,52.9,30.29,NE,44,1.5,1.5,91,0.00,,,0.00,VWS V14.01,2013-05-26 07:30:00,
2013-05-26 03:31:00,55.5,52.9,30.29,NE,45,1.5,1.5,91,0.00,,,0.00,VWS V14.01,2013-05-26 07:31:00,
2013-05-26 03:32:00,55.5,52.9,30.29,NE,45,1.5,1.5,91,0.00,,,0.00,VWS V14.01,2013-05-26 07:32:00,
2013-05-26 03:33:00,55.5,52.9,30.29,NE,44,1.5,1.5,91,0.00,,,0.00,VWS V14.01,2013-05-26 07:33:00,
2013-05-26 03:34:00,55.5,52.9,30.29,NE,44,1.5,1.5,91,0.00,,,0.00,VWS V14.01,2013-05-26 07:34:00,
2013-05-26 03:35:00,55.4,52.8,30.29,NE,44,1.5,1.5,91,0.00,,,0.00,VWS V14.01,2013-05-26 07:35:00,
2013-05-26 03:36:00,55.4,52.8,30.29,NE,44,1.5,1.5,91,0.00,,,0.00,VWS V14.01,2013-05-26 07:36:00,
2013-05-26 03:37:00,55.4,52.8,30.29,NE,44,1.5,1.5,91,0.00,,,0.00,VWS V14.01,2013-05-26 07:37:00,
2013-05-26 03:38:00,55.4,52.8,30.29,NE,45,1.5,1.5,91,0.00,,,0.00,VWS V14.01,2013-05-26 07:38:00,
2013-05-26 03:39:00,55.4,52.8,30.29,NE,44,1.5,1.5,91,0.00,,,0.00,VWS V14.01,2013-05-26 07:39:00,
2013-05-26 03:40:00,55.4,52.8,30.29,NE,44,1.5,1.5,91,0.00,,,0.00,VWS V14.01,2013-05-26 07:40:00,
2013-05-26 03:41:00,55.4,52.8,30.29,NE,44,1.5,1.5,91,0.00,,,0.00,VWS V14.01,2013-05-26 07:41:00,
2013-05-26 03:42:00,55.4,52.8,30.29,NE,44,1.5,1.5,91,0.00,,,0.00,VWS V14.01,2013-05-26 07:42:00,
2013-05-26 03:43:00,55.4,52.8,30.29,NE,44,1.5,1.5,91,0.00,,,0.00,VWS V14.01,2013-05-26 07:43:00,
2013-05-26 03:44:00,55.4,52.8,30.29,NE,44,1.5,1.5,91,0.00,,,0.00,VWS V14.01,2013-05-26 07:44:00,
2013-05-26 03:45:00,55.4,52.8,30.29,NE,44,1.5,1.5,91,0.00,,,0.00,VWS V14.01,2013-05-26 07:45:00,
2013-05-26 03:46:00,55.4,52.8,30.30,NE,44,1.5,1.5,91,0.00,,,0.00,VWS V14.01,2013-05-26 07:46:00,
2013-05-26 03:47:00,55.4,52.8,30.30,NE,45,1.5,1.5,91,0.00,,,0.00,VWS V14.01,2013-05-26 07:47:00,
2013-05-26 03:48:00,55.4,52.8,30.30,NE,44,1.5,1.5,91,0.00,,,0.00,VWS V14.01,2013-05-26 07:48:00,
2013-05-26 03:49:00,55.4,52.8,30.30,NE,44,1.5,1.5,91,0.00,,,0.00,VWS V14.01,2013-05-26 07:49:00,
2013-05-26 03:50:00,55.4,52.8,30.30,NE,45,1.5,1.5,91,0.00,,,0.00,VWS V14.01,2013-05-26 07:50:00,
2013-05-26 03:51:00,55.4,52.8,30.30,NE,45,1.5,1.5,91,0.00,,,0.00,VWS V14.01,2013-05-26 07:51:00,
2013-05-26 03:52:00,55.4,52.5,30.30,NE,44,1.5,1.5,90,0.01,,,0.01,VWS V14.01,2013-05-26 07:52:00,
2013-05-26 03:53:00,55.4,52.5,30.30,NE,44,1.5,1.5,90,0.01,,,0.01,VWS V14.01,2013-05-26 07:53:00,
2013-05-26 03:54:00,55.4,52.5,30.30,NE,44,1.5,1.5,90,0.01,,,0.01,VWS V14.01,2013-05-26 07:54:00,
2013-05-26 03:55:00,55.4,52.5,30.30,NE,44,3.0,3.0,90,0.01,,,0.01,VWS V14.01,2013-05-26 07:55:00,
2013-05-26 03:56:00,55.4,52.5,30.30,NE,44,3.0,3.0,90,0.01,,,0.01,VWS V14.01,2013-05-26 07:56:00,
2013-05-26 03:57:00,55.5,52.6,30.30,NE,45,1.5,3.0,90,0.01,,,0.01,VWS V14.01,2013-05-26 07:57:00,
2013-05-26 03:58:00,55.5,52.6,30.30,NE,45,1.5,1.5,90,0.01,,,0.01,VWS V14.01,2013-05-26 07:58:00,
2013-05-26 03:59:00,55.5,52.6,30.29,NE,44,1.5,1.5,90,0.01,,,0.01,VWS V14.01,2013-05-26 07:59:00,
2013-05-26 04:00:00,55.6,52.7,30.30,NE,44,1.5,1.5,90,0.01,,,0.01,VWS V14.01,2013-05-26 08:00:00,
2013-05-26 04:01:00,55.6,52.7,30.30,NE,44,1.5,1.5,90,0.01,,,0.01,VWS V14.01,2013-05-26 08:01:00,
2013-05-26 04:02:00,55.6,52.7,30.30,NE,44,3.0,3.0,90,0.01,,,0.01,VWS V14.01,2013-05-26 08:02:00,
2013-05-26 04:03:00,55.6,52.7,30.29,NE,45,1.5,3.0,90,0.01,,,0.01,VWS V14.01,2013-05-26 08:03:00,
2013-05-26 04:04:00,55.6,52.7,30.29,NE,47,3.0,4.5,90,0.01,,,0.01,VWS V14.01,2013-05-26 08:04:00,
2013-05-26 04:05:00,55.6,53.0,30.29,ENE,66,3.0,4.5,91,0.01,,,0.01,VWS V14.01,2013-05-26 08:05:00,
2013-05-26 04:06:00,55.6,53.0,30.29,ENE,69,3.0,4.5,91,0.01,,,0.01,VWS V14.01,2013-05-26 08:06:00,
2013-05-26 04:07:00,55.5,52.9,30.29,ENE,69,1.5,3.0,91,0.01,,,0.01,VWS V14.01,2013-05-26 08:07:00,
2013-05-26 04:08:00,55.5,52.9,30.29,ENE,69,4.5,4.5,91,0.01,,,0.01,VWS V14.01,2013-05-26 08:08:00,
2013-05-26 04:09:00,55.5,52.9,30.29,ENE,59,3.0,4.5,91,0.01,,,0.01,VWS V14.01,2013-05-26 08:09:00,
2013-05-26 04:10:00,55.5,53.2,30.29,ENE,59,1.5,1.5,92,0.01,,,0.01,VWS V14.01,2013-05-26 08:10:00,
2013-05-26 04:11:00,55.5,53.2,30.29,ENE,59,1.5,3.0,92,0.01,,,0.01,VWS V14.01,2013-05-26 08:11:00,
2013-05-26 04:12:00,55.4,53.1,30.29,ENE,59,1.5,3.0,92,0.01,,,0.01,VWS V14.01,2013-05-26 08:12:00,
2013-05-26 04:13:00,55.4,53.1,30.30,ENE,59,1.5,1.5,92,0.01,,,0.01,VWS V14.01,2013-05-26 08:13:00,
2013-05-26 04:14:00,55.4,53.1,30.30,ENE,59,3.0,3.0,92,0.01,,,0.01,VWS V14.01,2013-05-26 08:14:00,
2013-05-26 04:15:00,55.3,53.0,30.29,East,98,3.0,4.5,92,0.01,,,0.01,VWS V14.01,2013-05-26 08:15:00,
2013-05-26 04:16:00,55.3,53.0,30.29,ENE,64,6.0,7.5,92,0.01,,,0.01,VWS V14.01,2013-05-26 08:16:00,
2013-05-26 04:17:00,55.2,52.9,30.29,ENE,63,3.0,6.0,92,0.01,,,0.01,VWS V14.01,2013-05-26 08:17:00,
2013-05-26 04:18:00,55.2,52.6,30.29,East,83,3.0,3.0,91,0.01,,,0.01,VWS V14.01,2013-05-26 08:18:00,
2013-05-26 04:19:00,55.3,52.7,30.29,ENE,73,3.0,4.5,91,0.01,,,0.01,VWS V14.01,2013-05-26 08:19:00,
2013-05-26 04:20:00,55.3,52.4,30.29,ENE,73,1.5,1.5,90,0.01,,,0.01,VWS V14.01,2013-05-26 08:20:00,
2013-05-26 04:21:00,55.3,52.4,30.29,ENE,73,1.5,1.5,90,0.01,,,0.01,VWS V14.01,2013-05-26 08:21:00,
2013-05-26 04:22:00,55.3,52.4,30.29,ENE,73,1.5,1.5,90,0.01,,,0.01,VWS V14.01,2013-05-26 08:22:00,
2013-05-26 04:23:00,55.4,52.2,30.29,ENE,73,1.5,1.5,89,0.01,,,0.01,VWS V14.01,2013-05-26 08:23:00,
2013-05-26 04:24:00,55.4,52.2,30.29,ENE,73,1.5,1.5,89,0.01,,,0.01,VWS V14.01,2013-05-26 08:24:00,
2013-05-26 04:25:00,55.4,52.2,30.29,ENE,73,1.5,3.0,89,0.01,,,0.01,VWS V14.01,2013-05-26 08:25:00,
2013-05-26 04:26:00,55.4,52.2,30.29,ENE,73,1.5,3.0,89,0.01,,,0.01,VWS V14.01,2013-05-26 08:26:00,
2013-05-26 04:27:00,55.5,52.3,30.29,ENE,73,1.5,1.5,89,0.01,,,0.01,VWS V14.01,2013-05-26 08:27:00,
2013-05-26 04:28:00,55.5,52.3,30.29,ENE,73,1.5,1.5,89,0.01,,,0.01,VWS V14.01,2013-05-26 08:28:00,
2013-05-26 04:29:00,55.5,52.3,30.29,ENE,73,1.5,1.5,89,0.01,,,0.01,VWS V14.01,2013-05-26 08:29:00,
2013-05-26 04:30:00,55.5,52.3,30.29,ENE,73,1.5,3.0,89,0.01,,,0.01,VWS V14.01,2013-05-26 08:30:00,
2013-05-26 04:31:00,55.5,52.3,30.29,ENE,73,1.5,3.0,89,0.01,,,0.01,VWS V14.01,2013-05-26 08:31:00,
2013-05-26 04:32:00,55.5,52.3,30.29,ENE,73,1.5,1.5,89,0.01,,,0.01,VWS V14.01,2013-05-26 08:32:00,
2013-05-26 04:33:00,55.5,52.3,30.29,ENE,73,1.5,1.5,89,0.01,,,0.01,VWS V14.01,2013-05-26 08:33:00,
2013-05-26 04:34:00,55.5,52.3,30.29,ENE,73,1.5,1.5,89,0.01,,,0.01,VWS V14.01,2013-05-26 08:34:00,
2013-05-26 04:35:00,55.4,52.2,30.29,ENE,73,1.5,1.5,89,0.01,,,0.01,VWS V14.01,2013-05-26 08:35:00,
2013-05-26 04:36:00,55.4,52.2,30.29,ENE,73,1.5,1.5,89,0.01,,,0.01,VWS V14.01,2013-05-26 08:36:00,
2013-05-26 04:37:00,55.4,52.2,30.29,ENE,73,1.5,1.5,89,0.01,,,0.01,VWS V14.01,2013-05-26 08:37:00,
2013-05-26 04:38:00,55.4,52.2,30.29,ENE,73,1.5,1.5,89,0.01,,,0.01,VWS V14.01,2013-05-26 08:38:00,
2013-05-26 04:39:00,55.4,52.2,30.29,ENE,73,1.5,1.5,89,0.01,,,0.01,VWS V14.01,2013-05-26 08:39:00,
2013-05-26 04:40:00,55.4,52.2,30.29,ENE,73,1.5,1.5,89,0.01,,,0.01,VWS V14.01,2013-05-26 08:40:00,
2013-05-26 04:41:00,55.4,52.2,30.29,ENE,73,1.5,1.5,89,0.01,,,0.01,VWS V14.01,2013-05-26 08:41:00,
2013-05-26 04:42:00,55.4,51.9,30.29,ENE,73,1.5,1.5,88,0.01,,,0.01,VWS V14.01,2013-05-26 08:42:00,
2013-05-26 04:43:00,55.3,51.8,30.29,ENE,73,3.0,3.0,88,0.01,,,0.01,VWS V14.01,2013-05-26 08:43:00,
2013-05-26 04:44:00,55.3,51.8,30.29,ENE,73,1.5,3.0,88,0.01,,,0.01,VWS V14.01,2013-05-26 08:44:00,
2013-05-26 04:45:00,55.4,51.9,30.29,ENE,73,1.5,1.5,88,0.01,,,0.01,VWS V14.01,2013-05-26 08:45:00,
2013-05-26 04:46:00,55.4,51.9,30.29,ENE,73,1.5,1.5,88,0.01,,,0.01,VWS V14.01,2013-05-26 08:46:00,
2013-05-26 04:47:00,55.3,51.8,30.29,SSE,165,1.5,1.5,88,0.01,,,0.01,VWS V14.01,2013-05-26 08:47:00,
2013-05-26 04:48:00,55.3,51.8,30.29,SSE,165,1.5,1.5,88,0.01,,,0.01,VWS V14.01,2013-05-26 08:48:00,
2013-05-26 04:49:00,55.3,51.8,30.29,SSE,165,1.5,1.5,88,0.01,,,0.01,VWS V14.01,2013-05-26 08:49:00,
2013-05-26 04:50:00,55.3,51.8,30.29,SSE,165,1.5,1.5,88,0.01,,,0.01,VWS V14.01,2013-05-26 08:50:00,
2013-05-26 04:51:00,55.3,51.8,30.29,SSE,165,1.5,1.5,88,0.01,,,0.01,VWS V14.01,2013-05-26 08:51:00,
2013-05-26 04:52:00,55.3,51.8,30.29,SSE,165,1.5,1.5,88,0.01,,,0.01,VWS V14.01,2013-05-26 08:52:00,
2013-05-26 04:53:00,55.3,51.8,30.29,SSE,165,1.5,1.5,88,0.00,,,0.01,VWS V14.01,2013-05-26 08:53:00,
2013-05-26 04:54:00,55.2,51.7,30.29,SSE,165,1.5,1.5,88,0.00,,,0.01,VWS V14.01,2013-05-26 08:54:00,
2013-05-26 04:55:00,55.2,51.7,30.29,SSE,165,1.5,1.5,88,0.00,,,0.01,VWS V14.01,2013-05-26 08:55:00,
2013-05-26 04:56:00,55.2,51.7,30.29,SSE,165,1.5,1.5,88,0.00,,,0.01,VWS V14.01,2013-05-26 08:56:00,
2013-05-26 04:57:00,55.2,52.0,30.28,SSE,165,1.5,1.5,89,0.00,,,0.01,VWS V14.01,2013-05-26 08:57:00,
2013-05-26 04:58:00,55.1,51.9,30.28,SSE,150,1.5,1.5,89,0.00,,,0.01,VWS V14.01,2013-05-26 08:58:00,
2013-05-26 04:59:00,55.1,51.9,30.28,SSE,150,1.5,1.5,89,0.00,,,0.01,VWS V14.01,2013-05-26 08:59:00,
2013-05-26 05:00:00,55.1,51.9,30.28,SSE,150,1.5,1.5,89,0.00,,,0.01,VWS V14.01,2013-05-26 09:00:00,
2013-05-26 05:01:00,55.1,51.9,30.28,SSE,150,1.5,1.5,89,0.00,,,0.01,VWS V14.01,2013-05-26 09:01:00,
2013-05-26 05:02:00,55.1,51.9,30.28,SSE,151,1.5,1.5,89,0.00,,,0.01,VWS V14.01,2013-05-26 09:02:00,
2013-05-26 05:03:00,55.1,51.9,30.28,SSE,151,1.5,1.5,89,0.00,,,0.01,VWS V14.01,2013-05-26 09:03:00,
2013-05-26 05:04:00,55.1,51.9,30.28,SSE,160,1.5,1.5,89,0.00,,,0.01,VWS V14.01,2013-05-26 09:04:00,
2013-05-26 05:05:00,55.1,51.9,30.28,SW,217,1.5,3.0,89,0.00,,,0.01,VWS V14.01,2013-05-26 09:05:00,
2013-05-26 05:06:00,55.1,51.9,30.28,SW,217,1.5,3.0,89,0.00,,,0.01,VWS V14.01,2013-05-26 09:06:00,
2013-05-26 05:07:00,55.1,51.9,30.28,SW,217,1.5,3.0,89,0.00,,,0.01,VWS V14.01,2013-05-26 09:07:00,
2013-05-26 05:08:00,55.1,51.9,30.28,SW,217,1.5,1.5,89,0.00,,,0.01,VWS V14.01,2013-05-26 09:08:00,
2013-05-26 05:09:00,55.1,51.9,30.28,SW,217,1.5,1.5,89,0.00,,,0.01,VWS V14.01,2013-05-26 09:09:00,
2013-05-26 05:10:00,55.1,51.9,30.28,SW,217,1.5,1.5,89,0.00,,,0.01,VWS V14.01,2013-05-26 09:10:00,
2013-05-26 05:11:00,55.1,51.9,30.28,SW,217,1.5,1.5,89,0.00,,,0.01,VWS V14.01,2013-05-26 09:11:00,
2013-05-26 05:12:00,55.1,52.2,30.28,SW,217,1.5,1.5,90,0.00,,,0.01,VWS V14.01,2013-05-26 09:12:00,
2013-05-26 05:13:00,55.0,52.1,30.28,SW,217,1.5,1.5,90,0.00,,,0.01,VWS V14.01,2013-05-26 09:13:00,
2013-05-26 05:14:00,55.0,52.1,30.28,SW,217,1.5,1.5,90,0.00,,,0.01,VWS V14.01,2013-05-26 09:14:00,
2013-05-26 05:15:00,55.0,51.8,30.28,SW,217,1.5,1.5,89,0.00,,,0.01,VWS V14.01,2013-05-26 09:15:00,
2013-05-26 05:16:00,54.9,51.7,30.28,SW,217,1.5,1.5,89,0.00,,,0.01,VWS V14.01,2013-05-26 09:16:00,
2013-05-26 05:17:00,54.9,51.7,30.28,SW,217,1.5,1.5,89,0.00,,,0.01,VWS V14.01,2013-05-26 09:17:00,
2013-05-26 05:18:00,54.9,51.7,30.28,SW,217,1.5,1.5,89,0.00,,,0.01,VWS V14.01,2013-05-26 09:18:00,
2013-05-26 05:19:00,54.8,51.6,30.28,SW,217,1.5,1.5,89,0.00,,,0.01,VWS V14.01,2013-05-26 09:19:00,
2013-05-26 05:20:00,54.8,51.6,30.28,SW,217,1.5,1.5,89,0.00,,,0.01,VWS V14.01,2013-05-26 09:20:00,
2013-05-26 05:21:00,54.7,51.5,30.28,SW,217,1.5,1.5,89,0.00,,,0.01,VWS V14.01,2013-05-26 09:21:00,
2013-05-26 05:22:00,54.7,51.5,30.28,SW,217,1.5,1.5,89,0.00,,,0.01,VWS V14.01,2013-05-26 09:22:00,
2013-05-26 05:23:00,54.7,51.5,30.28,SW,217,1.5,1.5,89,0.00,,,0.01,VWS V14.01,2013-05-26 09:23:00,
2013-05-26 05:24:00,54.7,51.8,30.28,SW,217,1.5,1.5,90,0.00,,,0.01,VWS V14.01,2013-05-26 09:24:00,
2013-05-26 05:25:00,54.7,51.8,30.28,SW,217,1.5,1.5,90,0.00,,,0.01,VWS V14.01,2013-05-26 09:25:00,
2013-05-26 05:26:00,54.7,51.8,30.28,SW,217,1.5,1.5,90,0.00,,,0.01,VWS V14.01,2013-05-26 09:26:00,
2013-05-26 05:27:00,54.7,51.8,30.28,SW,217,1.5,1.5,90,0.00,,,0.01,VWS V14.01,2013-05-26 09:27:00,
2013-05-26 05:28:00,54.6,52.0,30.28,SW,217,1.5,1.5,91,0.00,,,0.01,VWS V14.01,2013-05-26 09:28:00,
2013-05-26 05:29:00,54.6,52.0,30.28,SW,217,1.5,1.5,91,0.00,,,0.01,VWS V14.01,2013-05-26 09:29:00,
2013-05-26 05:30:00,54.6,52.0,30.28,SW,217,1.5,1.5,91,0.00,,,0.01,VWS V14.01,2013-05-26 09:30:00,
2013-05-26 05:31:00,54.6,52.0,30.28,SW,217,1.5,1.5,91,0.00,,,0.01,VWS V14.01,2013-05-26 09:31:00,
2013-05-26 05:32:00,54.6,52.0,30.28,SW,217,1.5,1.5,91,0.00,,,0.01,VWS V14.01,2013-05-26 09:32:00,
2013-05-26 05:33:00,54.5,51.9,30.28,SW,217,1.5,1.5,91,0.00,,,0.01,VWS V14.01,2013-05-26 09:33:00,
2013-05-26 05:34:00,54.5,51.9,30.28,SW,217,1.5,1.5,91,0.00,,,0.01,VWS V14.01,2013-05-26 09:34:00,
2013-05-26 05:35:00,54.5,52.2,30.28,SW,217,1.5,1.5,92,0.00,,,0.01,VWS V14.01,2013-05-26 09:35:00,
2013-05-26 05:36:00,54.5,52.2,30.28,SW,217,1.5,1.5,92,0.00,,,0.01,VWS V14.01,2013-05-26 09:36:00,
2013-05-26 05:37:00,54.4,52.1,30.28,SW,217,1.5,1.5,92,0.00,,,0.01,VWS V14.01,2013-05-26 09:37:00,
2013-05-26 05:38:00,54.4,52.1,30.28,SW,217,1.5,1.5,92,0.00,,,0.01,VWS V14.01,2013-05-26 09:38:00,
2013-05-26 05:39:00,54.3,52.0,30.28,SW,217,1.5,1.5,92,0.00,,,0.01,VWS V14.01,2013-05-26 09:39:00,
2013-05-26 05:40:00,54.3,52.0,30.28,SW,217,1.5,1.5,92,0.00,,,0.01,VWS V14.01,2013-05-26 09:40:00,
2013-05-26 05:41:00,54.3,52.0,30.28,SW,217,1.5,1.5,92,0.00,,,0.01,VWS V14.01,2013-05-26 09:41:00,
2013-05-26 05:42:00,54.2,51.9,30.28,SW,217,1.5,1.5,92,0.00,,,0.01,VWS V14.01,2013-05-26 09:42:00,
2013-05-26 05:43:00,54.2,51.9,30.28,SW,217,1.5,1.5,92,0.00,,,0.01,VWS V14.01,2013-05-26 09:43:00,
2013-05-26 05:44:00,54.1,51.8,30.28,SW,217,1.5,1.5,92,0.00,,,0.01,VWS V14.01,2013-05-26 09:44:00,
2013-05-26 05:45:00,54.1,51.8,30.28,SW,217,1.5,1.5,92,0.00,,,0.01,VWS V14.01,2013-05-26 09:45:00,
2013-05-26 05:46:00,54.1,51.8,30.28,SW,217,1.5,1.5,92,0.00,,,0.01,VWS V14.01,2013-05-26 09:46:00,
2013-05-26 05:47:00,54.1,51.8,30.28,SW,217,1.5,1.5,92,0.00,,,0.01,VWS V14.01,2013-05-26 09:47:00,
2013-05-26 05:48:00,54.0,51.7,30.28,SW,217,1.5,1.5,92,0.00,,,0.01,VWS V14.01,2013-05-26 09:48:00,
2013-05-26 05:49:00,54.0,51.7,30.28,SW,231,3.0,3.0,92,0.00,,,0.01,VWS V14.01,2013-05-26 09:49:00,
2013-05-26 05:50:00,54.0,52.0,30.28,SW,231,1.5,1.5,93,0.00,,,0.01,VWS V14.01,2013-05-26 09:50:00,
2013-05-26 05:51:00,54.0,52.0,30.28,SW,231,1.5,1.5,93,0.00,,,0.01,VWS V14.01,2013-05-26 09:51:00,
2013-05-26 05:52:00,54.0,51.7,30.28,SW,231,1.5,3.0,92,0.00,,,0.01,VWS V14.01,2013-05-26 09:52:00,
2013-05-26 05:53:00,54.0,51.7,30.28,SW,231,1.5,1.5,92,0.00,,,0.01,VWS V14.01,2013-05-26 09:53:00,
2013-05-26 05:54:00,54.0,51.7,30.28,SW,231,1.5,1.5,92,0.00,,,0.01,VWS V14.01,2013-05-26 09:54:00,
2013-05-26 05:55:00,54.1,51.8,30.28,SW,231,1.5,1.5,92,0.00,,,0.01,VWS V14.01,2013-05-26 09:55:00,
2013-05-26 05:56:00,54.1,51.8,30.28,SW,231,1.5,3.0,92,0.00,,,0.01,VWS V14.01,2013-05-26 09:56:00,
2013-05-26 05:57:00,54.1,51.8,30.28,SW,231,1.5,1.5,92,0.00,,,0.01,VWS V14.01,2013-05-26 09:57:00,
2013-05-26 05:58:00,54.1,51.8,30.28,SW,231,1.5,1.5,92,0.00,,,0.01,VWS V14.01,2013-05-26 09:58:00,
2013-05-26 05:59:00,54.1,51.8,30.28,SW,231,1.5,1.5,92,0.00,,,0.01,VWS V14.01,2013-05-26 09:59:00,
2013-05-26 06:00:00,54.1,51.8,30.28,SW,231,1.5,1.5,92,0.00,,,0.01,VWS V14.01,2013-05-26 10:00:00,
2013-05-26 06:01:00,54.1,51.8,30.28,SW,231,1.5,1.5,92,0.00,,,0.01,VWS V14.01,2013-05-26 10:01:00,
2013-05-26 06:02:00,54.2,51.9,30.28,SW,231,1.5,1.5,92,0.00,,,0.01,VWS V14.01,2013-05-26 10:02:00,
2013-05-26 06:03:00,54.2,51.9,30.28,SW,231,1.5,1.5,92,0.00,,,0.01,VWS V14.01,2013-05-26 10:03:00,
2013-05-26 06:04:00,54.2,51.9,30.28,SW,231,1.5,3.0,92,0.00,,,0.01,VWS V14.01,2013-05-26 10:04:00,
2013-05-26 06:05:00,54.2,51.9,30.28,SW,231,1.5,1.5,92,0.00,,,0.01,VWS V14.01,2013-05-26 10:05:00,
2013-05-26 06:06:00,54.2,51.9,30.28,SW,231,1.5,1.5,92,0.00,,,0.01,VWS V14.01,2013-05-26 10:06:00,
2013-05-26 06:07:00,54.2,51.9,30.28,SW,231,1.5,1.5,92,0.00,,,0.01,VWS V14.01,2013-05-26 10:07:00,
2013-05-26 06:08:00,54.3,52.0,30.28,SW,231,1.5,1.5,92,0.00,,,0.01,VWS V14.01,2013-05-26 10:08:00,
2013-05-26 06:09:00,54.3,52.0,30.28,SW,231,3.0,3.0,92,0.00,,,0.01,VWS V14.01,2013-05-26 10:09:00,
2013-05-26 06:10:00,54.3,52.0,30.28,SW,231,1.5,3.0,92,0.00,,,0.01,VWS V14.01,2013-05-26 10:10:00,
2013-05-26 06:11:00,54.3,52.0,30.28,SW,231,1.5,3.0,92,0.00,,,0.01,VWS V14.01,2013-05-26 10:11:00,
2013-05-26 06:12:00,54.4,51.8,30.28,SW,230,1.5,3.0,91,0.00,,,0.01,VWS V14.01,2013-05-26 10:12:00,
2013-05-26 06:13:00,54.4,51.8,30.28,SW,230,1.5,3.0,91,0.00,,,0.01,VWS V14.01,2013-05-26 10:13:00,
2013-05-26 06:14:00,54.5,51.9,30.28,SW,230,1.5,3.0,91,0.00,,,0.01,VWS V14.01,2013-05-26 10:14:00,
2013-05-26 06:15:00,54.5,51.9,30.28,SW,230,1.5,1.5,91,0.00,,,0.01,VWS V14.01,2013-05-26 10:15:00,
2013-05-26 06:16:00,54.5,51.9,30.28,SW,230,1.5,1.5,91,0.00,,,0.01,VWS V14.01,2013-05-26 10:16:00,
2013-05-26 06:17:00,54.5,51.9,30.28,SW,230,1.5,1.5,91,0.00,,,0.01,VWS V14.01,2013-05-26 10:17:00,
2013-05-26 06:18:00,54.5,51.9,30.28,SW,230,1.5,1.5,91,0.00,,,0.01,VWS V14.01,2013-05-26 10:18:00,
2013-05-26 06:19:00,54.5,51.9,30.28,SSW,206,1.5,3.0,91,0.00,,,0.01,VWS V14.01,2013-05-26 10:19:00,
2013-05-26 06:20:00,54.5,51.9,30.28,SSW,206,1.5,1.5,91,0.00,,,0.01,VWS V14.01,2013-05-26 10:20:00,
2013-05-26 06:21:00,54.5,51.9,30.28,SSW,206,1.5,1.5,91,0.00,,,0.01,VWS V14.01,2013-05-26 10:21:00,
2013-05-26 06:22:00,54.5,51.9,30.28,SSW,206,1.5,1.5,91,0.00,,,0.01,VWS V14.01,2013-05-26 10:22:00,
2013-05-26 06:23:00,54.5,51.9,30.28,SSW,206,1.5,1.5,91,0.00,,,0.01,VWS V14.01,2013-05-26 10:23:00,
2013-05-26 06:24:00,54.6,52.0,30.28,SSW,206,1.5,1.5,91,0.00,,,0.01,VWS V14.01,2013-05-26 10:24:00,
2013-05-26 06:25:00,54.6,52.0,30.28,SSW,206,1.5,1.5,91,0.00,,,0.01,VWS V14.01,2013-05-26 10:25:00,
2013-05-26 06:26:00,54.6,52.0,30.28,SSW,206,1.5,1.5,91,0.00,,,0.01,VWS V14.01,2013-05-26 10:26:00,
2013-05-26 06:27:00,54.6,52.0,30.28,SSW,206,1.5,1.5,91,0.00,,,0.01,VWS V14.01,2013-05-26 10:27:00,
2013-05-26 06:28:00,54.7,51.8,30.29,SSW,206,1.5,1.5,90,0.00,,,0.01,VWS V14.01,2013-05-26 10:28:00,
2013-05-26 06:29:00,54.7,51.8,30.29,SSW,206,1.5,1.5,90,0.00,,,0.01,VWS V14.01,2013-05-26 10:29:00,
2013-05-26 06:30:00,54.7,51.8,30.29,SSW,206,1.5,1.5,90,0.00,,,0.01,VWS V14.01,2013-05-26 10:30:00,
2013-05-26 06:31:00,54.7,51.8,30.29,SSW,206,1.5,1.5,90,0.00,,,0.01,VWS V14.01,2013-05-26 10:31:00,
2013-05-26 06:32:00,54.7,51.8,30.29,SSW,206,1.5,1.5,90,0.00,,,0.01,VWS V14.01,2013-05-26 10:32:00,
2013-05-26 06:33:00,54.7,51.8,30.29,SSW,206,1.5,1.5,90,0.00,,,0.01,VWS V14.01,2013-05-26 10:33:00,
2013-05-26 06:34:00,54.7,51.8,30.29,SSW,206,1.5,1.5,90,0.00,,,0.01,VWS V14.01,2013-05-26 10:34:00,
2013-05-26 06:35:00,54.7,51.8,30.29,SSW,206,1.5,1.5,90,0.00,,,0.01,VWS V14.01,2013-05-26 10:35:00,
2013-05-26 06:36:00,54.7,51.8,30.29,SSW,206,1.5,1.5,90,0.00,,,0.01,VWS V14.01,2013-05-26 10:36:00,
2013-05-26 06:37:00,54.7,51.8,30.29,SSW,206,1.5,1.5,90,0.00,,,0.01,VWS V14.01,2013-05-26 10:37:00,
2013-05-26 06:38:00,54.7,51.8,30.29,SSW,206,1.5,1.5,90,0.00,,,0.01,VWS V14.01,2013-05-26 10:38:00,
2013-05-26 06:39:00,54.7,51.8,30.29,SSW,206,1.5,1.5,90,0.00,,,0.01,VWS V14.01,2013-05-26 10:39:00,
2013-05-26 06:40:00,54.7,51.8,30.29,SSW,206,1.5,1.5,90,0.00,,,0.01,VWS V14.01,2013-05-26 10:40:00,
2013-05-26 06:41:00,54.7,52.1,30.29,SSW,206,1.5,1.5,91,0.00,,,0.01,VWS V14.01,2013-05-26 10:41:00,
2013-05-26 06:42:00,54.7,52.1,30.29,SSW,206,1.5,1.5,91,0.00,,,0.01,VWS V14.01,2013-05-26 10:42:00,
2013-05-26 06:43:00,54.7,52.1,30.29,SSW,206,1.5,1.5,91,0.00,,,0.01,VWS V14.01,2013-05-26 10:43:00,
2013-05-26 06:44:00,54.7,52.1,30.29,SSW,206,1.5,1.5,91,0.00,,,0.01,VWS V14.01,2013-05-26 10:44:00,
2013-05-26 06:45:00,54.7,52.1,30.29,SSW,206,1.5,1.5,91,0.00,,,0.01,VWS V14.01,2013-05-26 10:45:00,
2013-05-26 06:46:00,54.7,52.1,30.29,SSW,206,1.5,1.5,91,0.00,,,0.01,VWS V14.01,2013-05-26 10:46:00,
2013-05-26 06:47:00,54.7,52.1,30.29,SSW,206,1.5,1.5,91,0.00,,,0.01,VWS V14.01,2013-05-26 10:47:00,
2013-05-26 06:48:00,54.7,52.1,30.29,SSW,206,1.5,1.5,91,0.00,,,0.01,VWS V14.01,2013-05-26 10:48:00,
2013-05-26 06:49:00,54.7,52.1,30.29,SSW,206,1.5,1.5,91,0.00,,,0.01,VWS V14.01,2013-05-26 10:49:00,
2013-05-26 06:50:00,54.7,52.1,30.29,SSW,206,1.5,1.5,91,0.00,,,0.01,VWS V14.01,2013-05-26 10:50:00,
2013-05-26 06:51:00,54.7,52.4,30.29,SSW,206,1.5,1.5,92,0.00,,,0.01,VWS V14.01,2013-05-26 10:51:00,
2013-05-26 06:52:00,54.7,52.4,30.29,SSW,206,1.5,1.5,92,0.00,,,0.01,VWS V14.01,2013-05-26 10:52:00,
2013-05-26 06:53:00,54.7,52.4,30.29,SSW,206,1.5,1.5,92,0.00,,,0.01,VWS V14.01,2013-05-26 10:53:00,
2013-05-26 06:54:00,54.7,52.4,30.29,SSW,206,1.5,1.5,92,0.00,,,0.01,VWS V14.01,2013-05-26 10:54:00,
2013-05-26 06:55:00,54.8,52.5,30.29,SSW,206,3.0,3.0,92,0.00,,,0.01,VWS V14.01,2013-05-26 10:55:00,
2013-05-26 06:56:00,54.8,52.5,30.29,SSW,206,1.5,3.0,92,0.00,,,0.01,VWS V14.01,2013-05-26 10:56:00,
2013-05-26 06:57:00,54.8,52.5,30.29,SSW,206,1.5,1.5,92,0.00,,,0.01,VWS V14.01,2013-05-26 10:57:00,
2013-05-26 06:58:00,54.8,52.8,30.29,SSW,206,1.5,1.5,93,0.00,,,0.01,VWS V14.01,2013-05-26 10:58:00,
2013-05-26 06:59:00,54.8,52.8,30.29,SSW,206,1.5,1.5,93,0.00,,,0.01,VWS V14.01,2013-05-26 10:59:00,
2013-05-26 07:00:00,54.8,52.8,30.29,SSW,207,1.5,1.5,93,0.00,,,0.01,VWS V14.01,2013-05-26 11:00:00,
2013-05-26 07:01:00,54.8,52.8,30.29,SSW,206,1.5,1.5,93,0.00,,,0.01,VWS V14.01,2013-05-26 11:01:00,
2013-05-26 07:02:00,54.8,52.8,30.29,SSW,206,1.5,1.5,93,0.00,,,0.01,VWS V14.01,2013-05-26 11:02:00,
2013-05-26 07:03:00,54.8,52.8,30.29,SSW,206,1.5,1.5,93,0.00,,,0.01,VWS V14.01,2013-05-26 11:03:00,
2013-05-26 07:04:00,54.8,52.8,30.30,SSW,206,1.5,3.0,93,0.00,,,0.01,VWS V14.01,2013-05-26 11:04:00,
2013-05-26 07:05:00,54.8,52.8,30.30,ENE,64,3.0,3.0,93,0.00,,,0.01,VWS V14.01,2013-05-26 11:05:00,
2013-05-26 07:06:00,54.8,52.8,30.30,ENE,64,3.0,3.0,93,0.00,,,0.01,VWS V14.01,2013-05-26 11:06:00,
2013-05-26 07:07:00,54.8,52.8,30.30,ENE,64,1.5,3.0,93,0.00,,,0.01,VWS V14.01,2013-05-26 11:07:00,
2013-05-26 07:08:00,54.8,52.8,30.30,ENE,64,1.5,1.5,93,0.00,,,0.01,VWS V14.01,2013-05-26 11:08:00,
2013-05-26 07:09:00,54.8,52.8,30.30,ENE,65,1.5,1.5,93,0.00,,,0.01,VWS V14.01,2013-05-26 11:09:00,
2013-05-26 07:10:00,54.8,52.8,30.30,ENE,63,3.0,3.0,93,0.00,,,0.01,VWS V14.01,2013-05-26 11:10:00,
2013-05-26 07:11:00,54.8,52.8,30.30,ENE,62,3.0,3.0,93,0.00,,,0.01,VWS V14.01,2013-05-26 11:11:00,
2013-05-26 07:12:00,54.8,52.8,30.30,ENE,70,3.0,4.5,93,0.00,,,0.01,VWS V14.01,2013-05-26 11:12:00,
2013-05-26 07:13:00,54.7,52.7,30.30,ENE,59,1.5,3.0,93,0.00,,,0.01,VWS V14.01,2013-05-26 11:13:00,
2013-05-26 07:14:00,54.7,52.7,30.30,NNE,32,3.0,3.0,93,0.00,,,0.01,VWS V14.01,2013-05-26 11:14:00,
2013-05-26 07:15:00,54.7,52.7,30.30,NNE,32,1.5,1.5,93,0.00,,,0.01,VWS V14.01,2013-05-26 11:15:00,
2013-05-26 07:16:00,54.7,52.7,30.30,NNE,32,1.5,1.5,93,0.00,,,0.01,VWS V14.01,2013-05-26 11:16:00,
2013-05-26 07:17:00,54.7,52.7,30.30,NNE,32,1.5,1.5,93,0.00,,,0.01,VWS V14.01,2013-05-26 11:17:00,
2013-05-26 07:18:00,54.7,52.7,30.30,NNE,32,1.5,1.5,93,0.00,,,0.01,VWS V14.01,2013-05-26 11:18:00,
2013-05-26 07:19:00,54.7,52.7,30.30,NNE,32,1.5,1.5,93,0.00,,,0.01,VWS V14.01,2013-05-26 11:19:00,
2013-05-26 07:20:00,54.7,52.7,30.30,NNE,32,1.5,1.5,93,0.00,,,0.01,VWS V14.01,2013-05-26 11:20:00,
2013-05-26 07:21:00,54.7,52.7,30.30,NNE,32,1.5,1.5,93,0.00,,,0.01,VWS V14.01,2013-05-26 11:21:00,
2013-05-26 07:22:00,54.8,52.8,30.30,NNE,32,1.5,1.5,93,0.00,,,0.01,VWS V14.01,2013-05-26 11:22:00,
2013-05-26 07:23:00,54.8,52.8,30.30,NNE,32,1.5,1.5,93,0.00,,,0.01,VWS V14.01,2013-05-26 11:23:00,
2013-05-26 07:24:00,54.8,52.8,30.30,NNE,32,1.5,1.5,93,0.00,,,0.01,VWS V14.01,2013-05-26 11:24:00,
2013-05-26 07:25:00,54.8,52.8,30.30,NNE,32,1.5,1.5,93,0.00,,,0.01,VWS V14.01,2013-05-26 11:25:00,
2013-05-26 07:26:00,54.8,52.8,30.30,NNE,32,1.5,1.5,93,0.00,,,0.01,VWS V14.01,2013-05-26 11:26:00,
2013-05-26 07:27:00,54.9,52.9,30.30,NNE,32,1.5,1.5,93,0.00,,,0.01,VWS V14.01,2013-05-26 11:27:00,
2013-05-26 07:28:00,54.9,52.9,30.30,NNE,32,1.5,1.5,93,0.00,,,0.01,VWS V14.01,2013-05-26 11:28:00,
2013-05-26 07:29:00,54.9,52.9,30.30,NNE,32,1.5,1.5,93,0.00,,,0.01,VWS V14.01,2013-05-26 11:29:00,
2013-05-26 07:30:00,55.0,53.0,30.30,NNE,32,1.5,3.0,93,0.00,,,0.01,VWS V14.01,2013-05-26 11:30:00,
2013-05-26 07:31:00,55.0,52.7,30.30,NNE,32,1.5,3.0,92,0.00,,,0.01,VWS V14.01,2013-05-26 11:31:00,
2013-05-26 07:32:00,55.0,52.7,30.30,NNE,32,1.5,1.5,92,0.00,,,0.01,VWS V14.01,2013-05-26 11:32:00,
2013-05-26 07:33:00,55.1,52.8,30.30,NNE,32,1.5,1.5,92,0.00,,,0.01,VWS V14.01,2013-05-26 11:33:00,
2013-05-26 07:34:00,55.1,52.8,30.30,NNE,32,1.5,1.5,92,0.00,,,0.01,VWS V14.01,2013-05-26 11:34:00,
2013-05-26 07:35:00,55.2,52.9,30.30,NNE,32,1.5,1.5,92,0.00,,,0.01,VWS V14.01,2013-05-26 11:35:00,
2013-05-26 07:36:00,55.2,52.9,30.30,NNE,32,1.5,3.0,92,0.00,,,0.01,VWS V14.01,2013-05-26 11:36:00,
2013-05-26 07:37:00,55.3,53.0,30.30,NNE,32,1.5,1.5,92,0.00,,,0.01,VWS V14.01,2013-05-26 11:37:00,
2013-05-26 07:38:00,55.3,53.0,30.30,NNE,32,3.0,3.0,92,0.00,,,0.01,VWS V14.01,2013-05-26 11:38:00,
2013-05-26 07:39:00,55.4,53.1,30.30,NNE,32,3.0,3.0,92,0.00,,,0.01,VWS V14.01,2013-05-26 11:39:00,
2013-05-26 07:40:00,55.4,53.1,30.30,NNE,32,1.5,1.5,92,0.00,,,0.01,VWS V14.01,2013-05-26 11:40:00,
2013-05-26 07:41:00,55.4,53.1,30.30,North,6,1.5,3.0,92,0.00,,,0.01,VWS V14.01,2013-05-26 11:41:00,
2013-05-26 07:42:00,55.4,53.1,30.30,North,6,1.5,3.0,92,0.00,,,0.01,VWS V14.01,2013-05-26 11:42:00,
2013-05-26 07:43:00,55.4,53.1,30.30,North,7,1.5,3.0,92,0.00,,,0.01,VWS V14.01,2013-05-26 11:43:00,
2013-05-26 07:44:00,55.5,53.2,30.30,North,7,1.5,3.0,92,0.00,,,0.01,VWS V14.01,2013-05-26 11:44:00,
2013-05-26 07:45:00,55.5,53.2,30.30,North,7,1.5,1.5,92,0.00,,,0.01,VWS V14.01,2013-05-26 11:45:00,
2013-05-26 07:46:00,55.5,53.2,30.30,North,7,1.5,1.5,92,0.00,,,0.01,VWS V14.01,2013-05-26 11:46:00,
2013-05-26 07:47:00,55.6,53.3,30.30,North,6,1.5,1.5,92,0.00,,,0.01,VWS V14.01,2013-05-26 11:47:00,
2013-05-26 07:48:00,55.7,53.4,30.30,North,6,1.5,1.5,92,0.00,,,0.01,VWS V14.01,2013-05-26 11:48:00,
2013-05-26 07:49:00,55.7,53.4,30.30,North,6,1.5,1.5,92,0.00,,,0.01,VWS V14.01,2013-05-26 11:49:00,
2013-05-26 07:50:00,55.7,53.4,30.30,North,6,1.5,1.5,92,0.00,,,0.01,VWS V14.01,2013-05-26 11:50:00,
2013-05-26 07:51:00,55.7,53.4,30.30,North,7,1.5,1.5,92,0.00,,,0.01,VWS V14.01,2013-05-26 11:51:00,
2013-05-26 07:52:00,55.8,53.5,30.30,North,7,1.5,1.5,92,0.00,,,0.01,VWS V14.01,2013-05-26 11:52:00,
2013-05-26 07:53:00,55.8,53.5,30.29,North,6,1.5,1.5,92,0.00,,,0.01,VWS V14.01,2013-05-26 11:53:00,
2013-05-26 07:54:00,55.9,53.6,30.29,East,85,3.0,3.0,92,0.00,,,0.01,VWS V14.01,2013-05-26 11:54:00,
2013-05-26 07:55:00,55.9,53.3,30.29,East,84,1.5,3.0,91,0.00,,,0.01,VWS V14.01,2013-05-26 11:55:00,
2013-05-26 07:56:00,55.9,53.3,30.29,East,82,3.0,3.0,91,0.00,,,0.01,VWS V14.01,2013-05-26 11:56:00,
2013-05-26 07:57:00,56.0,53.4,30.29,ESE,116,3.0,4.5,91,0.00,,,0.01,VWS V14.01,2013-05-26 11:57:00,
2013-05-26 07:58:00,56.0,53.4,30.29,East,90,3.0,3.0,91,0.00,,,0.01,VWS V14.01,2013-05-26 11:58:00,
2013-05-26 07:59:00,56.0,53.1,30.30,East,82,3.0,4.5,90,0.00,,,0.01,VWS V14.01,2013-05-26 11:59:00,
2013-05-26 08:00:00,56.0,53.1,30.30,East,82,1.5,1.5,90,0.00,,,0.01,VWS V14.01,2013-05-26 12:00:00,
2013-05-26 08:01:00,56.0,53.1,30.30,East,81,1.5,3.0,90,0.00,,,0.01,VWS V14.01,2013-05-26 12:01:00,
2013-05-26 08:02:00,56.0,53.1,30.30,East,85,1.5,3.0,90,0.00,,,0.01,VWS V14.01,2013-05-26 12:02:00,
2013-05-26 08:03:00,56.0,53.1,30.30,East,86,1.5,3.0,90,0.00,,,0.01,VWS V14.01,2013-05-26 12:03:00,
2013-05-26 08:04:00,56.1,53.2,30.30,East,85,1.5,1.5,90,0.00,,,0.01,VWS V14.01,2013-05-26 12:04:00,
2013-05-26 08:05:00,56.1,53.2,30.30,East,86,1.5,1.5,90,0.00,,,0.01,VWS V14.01,2013-05-26 12:05:00,
2013-05-26 08:06:00,56.1,53.2,30.30,East,86,1.5,1.5,90,0.00,,,0.01,VWS V14.01,2013-05-26 12:06:00,
2013-05-26 08:07:00,56.2,53.3,30.30,East,85,1.5,1.5,90,0.00,,,0.01,VWS V14.01,2013-05-26 12:07:00,
2013-05-26 08:08:00,56.2,53.3,30.30,East,85,3.0,3.0,90,0.00,,,0.01,VWS V14.01,2013-05-26 12:08:00,
2013-05-26 08:09:00,56.2,53.0,30.30,East,86,3.0,3.0,89,0.00,,,0.01,VWS V14.01,2013-05-26 12:09:00,
2013-05-26 08:10:00,56.2,53.0,30.30,East,85,1.5,1.5,89,0.00,,,0.01,VWS V14.01,2013-05-26 12:10:00,
2013-05-26 08:11:00,56.3,53.1,30.30,East,85,1.5,3.0,89,0.00,,,0.01,VWS V14.01,2013-05-26 12:11:00,
2013-05-26 08:12:00,56.3,53.1,30.30,East,86,1.5,1.5,89,0.00,,,0.01,VWS V14.01,2013-05-26 12:12:00,
2013-05-26 08:13:00,56.3,53.4,30.30,East,85,1.5,1.5,90,0.00,,,0.01,VWS V14.01,2013-05-26 12:13:00,
2013-05-26 08:14:00,56.4,53.2,30.30,East,85,1.5,1.5,89,0.00,,,0.01,VWS V14.01,2013-05-26 12:14:00,
2013-05-26 08:15:00,56.4,53.2,30.30,East,85,1.5,1.5,89,0.00,,,0.01,VWS V14.01,2013-05-26 12:15:00,
2013-05-26 08:16:00,56.5,53.3,30.30,East,85,1.5,1.5,89,0.00,,,0.01,VWS V14.01,2013-05-26 12:16:00,
2013-05-26 08:17:00,56.5,53.3,30.30,East,85,1.5,1.5,89,0.00,,,0.01,VWS V14.01,2013-05-26 12:17:00,
2013-05-26 08:18:00,56.5,53.3,30.30,East,85,1.5,1.5,89,0.00,,,0.01,VWS V14.01,2013-05-26 12:18:00,
2013-05-26 08:19:00,56.6,53.4,30.30,East,85,1.5,1.5,89,0.00,,,0.01,VWS V14.01,2013-05-26 12:19:00,
2013-05-26 08:20:00,56.6,53.4,30.30,East,85,1.5,1.5,89,0.00,,,0.01,VWS V14.01,2013-05-26 12:20:00,
2013-05-26 08:21:00,56.6,53.4,30.30,East,86,1.5,3.0,89,0.00,,,0.01,VWS V14.01,2013-05-26 12:21:00,
2013-05-26 08:22:00,56.7,53.5,30.30,East,85,1.5,1.5,89,0.00,,,0.01,VWS V14.01,2013-05-26 12:22:00,
2013-05-26 08:23:00,56.8,53.6,30.31,East,85,1.5,3.0,89,0.00,,,0.01,VWS V14.01,2013-05-26 12:23:00,
2013-05-26 08:24:00,56.8,53.6,30.31,East,84,3.0,3.0,89,0.00,,,0.01,VWS V14.01,2013-05-26 12:24:00,
2013-05-26 08:25:00,56.8,53.6,30.31,East,85,3.0,3.0,89,0.00,,,0.01,VWS V14.01,2013-05-26 12:25:00,
2013-05-26 08:26:00,56.8,53.3,30.31,East,84,1.5,3.0,88,0.00,,,0.01,VWS V14.01,2013-05-26 12:26:00,
2013-05-26 08:27:00,56.8,53.3,30.31,East,84,1.5,1.5,88,0.00,,,0.01,VWS V14.01,2013-05-26 12:27:00,
2013-05-26 08:28:00,56.9,53.4,30.31,East,80,1.5,3.0,88,0.00,,,0.01,VWS V14.01,2013-05-26 12:28:00,
2013-05-26 08:29:00,56.9,53.4,30.31,East,80,1.5,1.5,88,0.00,,,0.01,VWS V14.01,2013-05-26 12:29:00,
2013-05-26 08:30:00,56.9,53.4,30.31,East,80,1.5,1.5,88,0.00,,,0.01,VWS V14.01,2013-05-26 12:30:00,
2013-05-26 08:31:00,56.9,53.4,30.31,East,80,3.0,3.0,88,0.00,,,0.01,VWS V14.01,2013-05-26 12:31:00,
2013-05-26 08:32:00,57.0,53.5,30.31,East,80,1.5,3.0,88,0.00,,,0.01,VWS V14.01,2013-05-26 12:32:00,
2013-05-26 08:33:00,56.9,53.1,30.31,East,80,1.5,1.5,87,0.00,,,0.01,VWS V14.01,2013-05-26 12:33:00,
2013-05-26 08:34:00,57.0,53.2,30.31,East,80,1.5,3.0,87,0.00,,,0.01,VWS V14.01,2013-05-26 12:34:00,
2013-05-26 08:35:00,57.0,52.9,30.31,East,80,1.5,1.5,86,0.00,,,0.01,VWS V14.01,2013-05-26 12:35:00,
2013-05-26 08:36:00,57.0,53.2,30.31,East,80,1.5,1.5,87,0.00,,,0.01,VWS V14.01,2013-05-26 12:36:00,
2013-05-26 08:37:00,57.1,53.3,30.31,East,80,1.5,3.0,87,0.00,,,0.01,VWS V14.01,2013-05-26 12:37:00,
2013-05-26 08:38:00,57.1,53.0,30.31,East,80,1.5,1.5,86,0.00,,,0.01,VWS V14.01,2013-05-26 12:38:00,
2013-05-26 08:39:00,57.1,53.0,30.31,East,80,1.5,1.5,86,0.00,,,0.01,VWS V14.01,2013-05-26 12:39:00,
2013-05-26 08:40:00,57.1,53.0,30.31,East,80,3.0,3.0,86,0.00,,,0.01,VWS V14.01,2013-05-26 12:40:00,
2013-05-26 08:41:00,57.1,53.0,30.31,East,80,1.5,3.0,86,0.00,,,0.01,VWS V14.01,2013-05-26 12:41:00,
2013-05-26 08:42:00,57.1,53.0,30.31,East,80,1.5,3.0,86,0.00,,,0.01,VWS V14.01,2013-05-26 12:42:00,
2013-05-26 08:43:00,57.1,53.0,30.31,East,80,1.5,1.5,86,0.00,,,0.01,VWS V14.01,2013-05-26 12:43:00,
2013-05-26 08:44:00,57.2,53.1,30.31,East,80,1.5,3.0,86,0.00,,,0.01,VWS V14.01,2013-05-26 12:44:00,
2013-05-26 08:45:00,57.2,53.1,30.31,East,80,1.5,1.5,86,0.00,,,0.01,VWS V14.01,2013-05-26 12:45:00,
2013-05-26 08:46:00,57.2,53.1,30.31,East,80,1.5,1.5,86,0.00,,,0.01,VWS V14.01,2013-05-26 12:46:00,
2013-05-26 08:47:00,57.2,53.1,30.31,East,80,1.5,3.0,86,0.00,,,0.01,VWS V14.01,2013-05-26 12:47:00,
2013-05-26 08:48:00,57.2,53.1,30.31,East,80,1.5,3.0,86,0.00,,,0.01,VWS V14.01,2013-05-26 12:48:00,
2013-05-26 08:49:00,57.3,53.2,30.31,East,80,1.5,1.5,86,0.00,,,0.01,VWS V14.01,2013-05-26 12:49:00,
2013-05-26 08:50:00,57.3,53.2,30.31,East,80,1.5,1.5,86,0.00,,,0.01,VWS V14.01,2013-05-26 12:50:00,
2013-05-26 08:51:00,57.3,53.5,30.31,East,80,1.5,3.0,87,0.00,,,0.01,VWS V14.01,2013-05-26 12:51:00,
2013-05-26 08:52:00,57.3,53.2,30.31,East,80,1.5,3.0,86,0.00,,,0.01,VWS V14.01,2013-05-26 12:52:00,
2013-05-26 08:53:00,57.4,53.6,30.31,East,80,1.5,1.5,87,0.00,,,0.01,VWS V14.01,2013-05-26 12:53:00,
2013-05-26 08:54:00,57.4,53.6,30.31,NE,35,1.5,3.0,87,0.00,,,0.01,VWS V14.01,2013-05-26 12:54:00,
2013-05-26 08:55:00,57.4,53.6,30.31,NE,35,1.5,3.0,87,0.00,,,0.01,VWS V14.01,2013-05-26 12:55:00,
2013-05-26 08:56:00,57.4,53.6,30.31,NE,35,1.5,1.5,87,0.00,,,0.01,VWS V14.01,2013-05-26 12:56:00,
2013-05-26 08:57:00,57.4,53.6,30.30,NE,35,1.5,3.0,87,0.00,,,0.01,VWS V14.01,2013-05-26 12:57:00,
2013-05-26 08:58:00,57.5,53.7,30.30,NE,35,1.5,1.5,87,0.00,,,0.01,VWS V14.01,2013-05-26 12:58:00,
2013-05-26 08:59:00,57.5,53.3,30.30,ESE,109,1.5,3.0,86,0.00,,,0.01,VWS V14.01,2013-05-26 12:59:00,
2013-05-26 09:00:00,57.5,53.3,30.30,ESE,109,1.5,3.0,86,0.00,,,0.01,VWS V14.01,2013-05-26 13:00:00,
2013-05-26 09:01:00,57.6,53.5,30.30,East,93,1.5,3.0,86,0.00,,,0.01,VWS V14.01,2013-05-26 13:01:00,
2013-05-26 09:02:00,57.6,53.5,30.30,ENE,77,3.0,3.0,86,0.00,,,0.01,VWS V14.01,2013-05-26 13:02:00,
2013-05-26 09:03:00,57.6,53.5,30.30,ENE,73,3.0,4.5,86,0.00,,,0.01,VWS V14.01,2013-05-26 13:03:00,
2013-05-26 09:04:00,57.7,53.5,30.30,East,89,3.0,3.0,86,0.00,,,0.01,VWS V14.01,2013-05-26 13:04:00,
2013-05-26 09:05:00,57.7,53.5,30.30,East,89,3.0,3.0,86,0.00,,,0.01,VWS V14.01,2013-05-26 13:05:00,
2013-05-26 09:06:00,57.6,53.5,30.30,East,91,1.5,3.0,86,0.00,,,0.01,VWS V14.01,2013-05-26 13:06:00,
2013-05-26 09:07:00,57.6,53.5,30.30,ESE,119,3.0,3.0,86,0.00,,,0.01,VWS V14.01,2013-05-26 13:07:00,
2013-05-26 09:08:00,57.7,53.5,30.30,ESE,119,1.5,3.0,86,0.00,,,0.01,VWS V14.01,2013-05-26 13:08:00,
2013-05-26 09:09:00,57.8,53.7,30.30,East,85,1.5,3.0,86,0.00,,,0.01,VWS V14.01,2013-05-26 13:09:00,
2013-05-26 09:10:00,57.8,53.7,30.30,East,85,1.5,3.0,86,0.00,,,0.01,VWS V14.01,2013-05-26 13:10:00,
2013-05-26 09:11:00,57.9,53.7,30.30,East,92,3.0,3.0,86,0.00,,,0.01,VWS V14.01,2013-05-26 13:11:00,
2013-05-26 09:12:00,57.9,53.7,30.30,ESE,122,3.0,4.5,86,0.00,,,0.01,VWS V14.01,2013-05-26 13:12:00,
2013-05-26 09:13:00,58.0,53.5,30.29,ESE,116,4.5,4.5,85,0.00,,,0.01,VWS V14.01,2013-05-26 13:13:00,
2013-05-26 09:14:00,58.1,53.3,30.29,East,94,1.5,3.0,84,0.00,,,0.01,VWS V14.01,2013-05-26 13:14:00,
2013-05-26 09:15:00,58.1,53.3,30.29,East,94,1.5,3.0,84,0.00,,,0.01,VWS V14.01,2013-05-26 13:15:00,
2013-05-26 09:16:00,58.2,53.7,30.30,ENE,70,3.0,3.0,85,0.00,,,0.01,VWS V14.01,2013-05-26 13:16:00,
2013-05-26 09:17:00,58.2,53.7,30.30,ENE,70,1.5,3.0,85,0.00,,,0.01,VWS V14.01,2013-05-26 13:17:00,
2013-05-26 09:18:00,58.3,53.8,30.30,ENE,76,1.5,3.0,85,0.00,,,0.01,VWS V14.01,2013-05-26 13:18:00,
2013-05-26 09:19:00,58.4,53.6,30.30,ENE,67,1.5,4.5,84,0.00,,,0.01,VWS V14.01,2013-05-26 13:19:00,
2013-05-26 09:20:00,58.4,53.9,30.30,ENE,67,1.5,4.5,85,0.00,,,0.01,VWS V14.01,2013-05-26 13:20:00,
2013-05-26 09:21:00,58.5,54.0,30.30,ENE,68,1.5,1.5,85,0.00,,,0.01,VWS V14.01,2013-05-26 13:21:00,
2013-05-26 09:22:00,58.6,53.8,30.31,ENE,73,1.5,3.0,84,0.00,,,0.01,VWS V14.01,2013-05-26 13:22:00,
2013-05-26 09:23:00,58.7,53.9,30.31,ENE,73,1.5,3.0,84,0.00,,,0.01,VWS V14.01,2013-05-26 13:23:00,
2013-05-26 09:24:00,58.9,54.1,30.31,ENE,73,1.5,1.5,84,0.00,,,0.01,VWS V14.01,2013-05-26 13:24:00,
2013-05-26 09:25:00,58.9,54.1,30.31,ENE,73,1.5,1.5,84,0.00,,,0.01,VWS V14.01,2013-05-26 13:25:00,
2013-05-26 09:26:00,59.0,54.2,30.31,ESE,107,3.0,3.0,84,0.00,,,0.01,VWS V14.01,2013-05-26 13:26:00,
2013-05-26 09:27:00,59.0,53.5,30.31,ESE,116,1.5,4.5,82,0.00,,,0.01,VWS V14.01,2013-05-26 13:27:00,
2013-05-26 09:28:00,59.0,53.2,30.31,ESE,113,3.0,3.0,81,0.00,,,0.01,VWS V14.01,2013-05-26 13:28:00,
2013-05-26 09:29:00,59.0,52.8,30.31,East,84,1.5,3.0,80,0.00,,,0.01,VWS V14.01,2013-05-26 13:29:00,
2013-05-26 09:30:00,59.0,52.8,30.31,East,84,1.5,3.0,80,0.00,,,0.01,VWS V14.01,2013-05-26 13:30:00,
2013-05-26 09:31:00,59.0,52.8,30.31,ENE,73,3.0,6.0,80,0.00,,,0.01,VWS V14.01,2013-05-26 13:31:00,
2013-05-26 09:32:00,59.1,52.6,30.31,East,80,4.5,4.5,79,0.00,,,0.01,VWS V14.01,2013-05-26 13:32:00,
2013-05-26 09:33:00,59.1,52.9,30.31,East,90,3.0,4.5,80,0.00,,,0.01,VWS V14.01,2013-05-26 13:33:00,
2013-05-26 09:34:00,59.1,52.6,30.31,East,84,1.5,3.0,79,0.00,,,0.01,VWS V14.01,2013-05-26 13:34:00,
2013-05-26 09:35:00,59.1,52.6,30.31,East,84,1.5,3.0,79,0.00,,,0.01,VWS V14.01,2013-05-26 13:35:00,
2013-05-26 09:36:00,59.2,53.0,30.31,East,84,1.5,1.5,80,0.00,,,0.01,VWS V14.01,2013-05-26 13:36:00,
2013-05-26 09:37:00,59.2,53.0,30.31,East,84,1.5,3.0,80,0.00,,,0.01,VWS V14.01,2013-05-26 13:37:00,
2013-05-26 09:38:00,59.3,53.1,30.31,East,84,1.5,1.5,80,0.00,,,0.01,VWS V14.01,2013-05-26 13:38:00,
2013-05-26 09:39:00,59.5,53.3,30.31,East,84,1.5,1.5,80,0.00,,,0.01,VWS V14.01,2013-05-26 13:39:00,
2013-05-26 09:40:00,59.5,53.3,30.31,East,84,1.5,1.5,80,0.00,,,0.01,VWS V14.01,2013-05-26 13:40:00,
2013-05-26 09:41:00,59.7,53.5,30.31,East,84,1.5,1.5,80,0.00,,,0.01,VWS V14.01,2013-05-26 13:41:00,
2013-05-26 09:42:00,59.8,54.0,30.31,ENE,67,1.5,1.5,81,0.00,,,0.01,VWS V14.01,2013-05-26 13:42:00,
2013-05-26 09:43:00,60.0,53.8,30.31,ENE,78,1.5,3.0,80,0.00,,,0.01,VWS V14.01,2013-05-26 13:43:00,
2013-05-26 09:44:00,60.2,53.7,30.31,ENE,78,3.0,3.0,79,0.00,,,0.01,VWS V14.01,2013-05-26 13:44:00,
2013-05-26 09:45:00,60.2,53.7,30.31,East,79,3.0,3.0,79,0.00,,,0.01,VWS V14.01,2013-05-26 13:45:00,
2013-05-26 09:46:00,60.2,53.7,30.31,East,82,1.5,3.0,79,0.00,,,0.01,VWS V14.01,2013-05-26 13:46:00,
2013-05-26 09:47:00,60.2,53.3,30.31,East,82,3.0,3.0,78,0.00,,,0.01,VWS V14.01,2013-05-26 13:47:00,
2013-05-26 09:48:00,60.3,53.4,30.31,East,82,1.5,3.0,78,0.00,,,0.01,VWS V14.01,2013-05-26 13:48:00,
2013-05-26 09:49:00,60.3,53.1,30.31,East,80,1.5,3.0,77,0.00,,,0.01,VWS V14.01,2013-05-26 13:49:00,
2013-05-26 09:50:00,60.3,53.1,30.31,East,80,1.5,3.0,77,0.00,,,0.01,VWS V14.01,2013-05-26 13:50:00,
2013-05-26 09:51:00,60.4,53.2,30.31,East,80,3.0,3.0,77,0.00,,,0.01,VWS V14.01,2013-05-26 13:51:00,
2013-05-26 09:52:00,60.3,52.7,30.31,East,80,1.5,3.0,76,0.00,,,0.01,VWS V14.01,2013-05-26 13:52:00,
2013-05-26 09:53:00,60.3,52.7,30.31,East,82,1.5,1.5,76,0.00,,,0.01,VWS V14.01,2013-05-26 13:53:00,
2013-05-26 09:54:00,60.4,53.2,30.31,ENE,76,3.0,4.5,77,0.00,,,0.01,VWS V14.01,2013-05-26 13:54:00,
2013-05-26 09:55:00,60.4,53.2,30.31,East,95,4.5,4.5,77,0.00,,,0.01,VWS V14.01,2013-05-26 13:55:00,
2013-05-26 09:56:00,60.5,52.9,30.31,ESE,102,1.5,4.5,76,0.00,,,0.01,VWS V14.01,2013-05-26 13:56:00,
2013-05-26 09:57:00,60.6,53.4,30.31,SE,140,4.5,4.5,77,0.00,,,0.01,VWS V14.01,2013-05-26 13:57:00,
2013-05-26 09:58:00,60.7,53.5,30.31,SE,136,1.5,4.5,77,0.00,,,0.01,VWS V14.01,2013-05-26 13:58:00,
2013-05-26 09:59:00,60.8,53.2,30.31,East,85,1.5,3.0,76,0.00,,,0.01,VWS V14.01,2013-05-26 13:59:00,
2013-05-26 10:00:00,60.8,53.2,30.31,East,84,1.5,3.0,76,0.00,,,0.01,VWS V14.01,2013-05-26 14:00:00,
2013-05-26 10:01:00,60.9,53.3,30.31,East,84,4.5,4.5,76,0.00,,,0.01,VWS V14.01,2013-05-26 14:01:00,
2013-05-26 10:02:00,60.9,52.9,30.31,SE,128,3.0,4.5,75,0.00,,,0.01,VWS V14.01,2013-05-26 14:02:00,
2013-05-26 10:03:00,61.0,53.0,30.31,SE,127,1.5,4.5,75,0.00,,,0.01,VWS V14.01,2013-05-26 14:03:00,
2013-05-26 10:04:00,61.1,53.5,30.32,NE,53,6.0,6.0,76,0.00,,,0.01,VWS V14.01,2013-05-26 14:04:00,
2013-05-26 10:05:00,61.1,53.1,30.32,ENE,60,4.5,6.0,75,0.00,,,0.01,VWS V14.01,2013-05-26 14:05:00,
2013-05-26 10:06:00,61.2,53.6,30.32,ENE,61,3.0,4.5,76,0.00,,,0.01,VWS V14.01,2013-05-26 14:06:00,
2013-05-26 10:07:00,61.2,53.6,30.32,ENE,61,3.0,3.0,76,0.00,,,0.01,VWS V14.01,2013-05-26 14:07:00,
2013-05-26 10:08:00,61.3,53.3,30.32,ENE,61,1.5,3.0,75,0.00,,,0.01,VWS V14.01,2013-05-26 14:08:00,
2013-05-26 10:09:00,61.3,53.3,30.32,ENE,63,1.5,3.0,75,0.00,,,0.01,VWS V14.01,2013-05-26 14:09:00,
2013-05-26 10:10:00,61.3,53.3,30.32,ENE,63,1.5,3.0,75,0.00,,,0.01,VWS V14.01,2013-05-26 14:10:00,
2013-05-26 10:11:00,61.4,53.8,30.31,ENE,67,4.5,4.5,76,0.00,,,0.01,VWS V14.01,2013-05-26 14:11:00,
2013-05-26 10:12:00,61.4,52.7,30.31,East,85,4.5,6.0,73,0.00,,,0.01,VWS V14.01,2013-05-26 14:12:00,
2013-05-26 10:13:00,61.3,52.6,30.31,ENE,68,3.0,4.5,73,0.00,,,0.01,VWS V14.01,2013-05-26 14:13:00,
2013-05-26 10:14:00,61.3,52.6,30.32,ENE,70,4.5,4.5,73,0.00,,,0.01,VWS V14.01,2013-05-26 14:14:00,
2013-05-26 10:15:00,61.3,52.6,30.32,ENE,71,4.5,4.5,73,0.00,,,0.01,VWS V14.01,2013-05-26 14:15:00,
2013-05-26 10:16:00,61.3,52.2,30.31,ENE,75,4.5,6.0,72,0.00,,,0.01,VWS V14.01,2013-05-26 14:16:00,
2013-05-26 10:17:00,61.3,52.2,30.32,East,92,3.0,4.5,72,0.00,,,0.01,VWS V14.01,2013-05-26 14:17:00,
2013-05-26 10:18:00,61.4,52.3,30.31,ESE,116,1.5,3.0,72,0.00,,,0.01,VWS V14.01,2013-05-26 14:18:00,
2013-05-26 10:19:00,61.5,52.4,30.31,ESE,108,6.0,6.0,72,0.00,,,0.01,VWS V14.01,2013-05-26 14:19:00,
2013-05-26 10:20:00,61.5,52.4,30.31,SE,130,3.0,6.0,72,0.00,,,0.01,VWS V14.01,2013-05-26 14:20:00,
2013-05-26 10:21:00,61.6,52.5,30.31,East,98,4.5,4.5,72,0.00,,,0.01,VWS V14.01,2013-05-26 14:21:00,
2013-05-26 10:22:00,61.7,53.0,30.31,East,89,6.0,6.0,73,0.00,,,0.01,VWS V14.01,2013-05-26 14:22:00,
2013-05-26 10:23:00,61.8,53.1,30.31,ENE,68,6.0,7.5,73,0.00,,,0.01,VWS V14.01,2013-05-26 14:23:00,
2013-05-26 10:24:00,61.8,52.3,30.31,ENE,66,4.5,6.0,71,0.00,,,0.01,VWS V14.01,2013-05-26 14:24:00,
2013-05-26 10:25:00,61.8,52.3,30.31,ENE,76,4.5,6.0,71,0.00,,,0.01,VWS V14.01,2013-05-26 14:25:00,
2013-05-26 10:26:00,61.9,52.8,30.31,ENE,75,6.0,6.0,72,0.00,,,0.01,VWS V14.01,2013-05-26 14:26:00,
2013-05-26 10:27:00,61.9,52.8,30.31,ENE,75,4.5,6.0,72,0.00,,,0.01,VWS V14.01,2013-05-26 14:27:00,
2013-05-26 10:28:00,61.9,52.0,30.31,NE,51,6.0,6.0,70,0.00,,,0.01,VWS V14.01,2013-05-26 14:28:00,
2013-05-26 10:29:00,62.0,52.1,30.31,East,91,3.0,4.5,70,0.00,,,0.01,VWS V14.01,2013-05-26 14:29:00,
2013-05-26 10:30:00,62.0,52.5,30.31,East,91,3.0,4.5,71,0.00,,,0.01,VWS V14.01,2013-05-26 14:30:00,
2013-05-26 10:31:00,62.1,52.2,30.31,East,99,1.5,3.0,70,0.00,,,0.01,VWS V14.01,2013-05-26 14:31:00,
2013-05-26 10:32:00,62.2,52.7,30.31,ENE,77,3.0,3.0,71,0.00,,,0.01,VWS V14.01,2013-05-26 14:32:00,
2013-05-26 10:33:00,62.3,52.4,30.31,SE,136,3.0,6.0,70,0.00,,,0.01,VWS V14.01,2013-05-26 14:33:00,
2013-05-26 10:34:00,62.6,52.7,30.31,SSE,165,1.5,4.5,70,0.00,,,0.01,VWS V14.01,2013-05-26 14:34:00,
2013-05-26 10:35:00,62.6,51.9,30.31,South,186,1.5,4.5,68,0.00,,,0.01,VWS V14.01,2013-05-26 14:35:00,
2013-05-26 10:36:00,62.8,52.1,30.32,SW,223,7.5,7.5,68,0.00,,,0.01,VWS V14.01,2013-05-26 14:36:00,
2013-05-26 10:37:00,62.8,51.7,30.32,SW,222,3.0,7.5,67,0.00,,,0.01,VWS V14.01,2013-05-26 14:37:00,
2013-05-26 10:38:00,62.9,52.2,30.32,SSE,159,3.0,4.5,68,0.00,,,0.01,VWS V14.01,2013-05-26 14:38:00,
2013-05-26 10:39:00,63.0,51.9,30.32,ENE,71,3.0,3.0,67,0.00,,,0.01,VWS V14.01,2013-05-26 14:39:00,
2013-05-26 10:40:00,63.0,51.9,30.32,ESE,113,3.0,4.5,67,0.00,,,0.01,VWS V14.01,2013-05-26 14:40:00,
2013-05-26 10:41:00,63.2,52.1,30.31,ESE,122,3.0,6.0,67,0.00,,,0.01,VWS V14.01,2013-05-26 14:41:00,
2013-05-26 10:42:00,63.2,52.5,30.32,ESE,116,1.5,3.0,68,0.00,,,0.01,VWS V14.01,2013-05-26 14:42:00,
2013-05-26 10:43:00,63.3,52.2,30.32,SE,139,3.0,3.0,67,0.00,,,0.01,VWS V14.01,2013-05-26 14:43:00,
2013-05-26 10:44:00,63.5,52.4,30.32,East,101,1.5,3.0,67,0.00,,,0.01,VWS V14.01,2013-05-26 14:44:00,
2013-05-26 10:45:00,63.5,52.4,30.32,East,101,1.5,3.0,67,0.00,,,0.01,VWS V14.01,2013-05-26 14:45:00,
2013-05-26 10:46:00,63.6,52.0,30.31,East,101,1.5,3.0,66,0.00,,,0.01,VWS V14.01,2013-05-26 14:46:00,
2013-05-26 10:47:00,63.8,52.2,30.31,SSE,163,3.0,4.5,66,0.00,,,0.01,VWS V14.01,2013-05-26 14:47:00,
2013-05-26 10:48:00,63.9,52.3,30.32,SSE,163,1.5,3.0,66,0.00,,,0.01,VWS V14.01,2013-05-26 14:48:00,
2013-05-26 10:49:00,64.3,52.7,30.32,East,82,4.5,4.5,66,0.00,,,0.01,VWS V14.01,2013-05-26 14:49:00,
2013-05-26 10:50:00,64.3,52.7,30.32,East,81,3.0,4.5,66,0.00,,,0.01,VWS V14.01,2013-05-26 14:50:00,
2013-05-26 10:51:00,64.3,52.7,30.31,SSW,208,4.5,6.0,66,0.00,,,0.01,VWS V14.01,2013-05-26 14:51:00,
2013-05-26 10:52:00,64.4,52.4,30.32,SSW,199,3.0,6.0,65,0.00,,,0.01,VWS V14.01,2013-05-26 14:52:00,
2013-05-26 10:53:00,64.4,52.0,30.31,SW,226,4.5,4.5,64,0.00,,,0.01,VWS V14.01,2013-05-26 14:53:00,
2013-05-26 10:54:00,64.5,52.5,30.31,West,271,3.0,3.0,65,0.00,,,0.01,VWS V14.01,2013-05-26 14:54:00,
2013-05-26 10:55:00,64.5,52.9,30.31,North,359,3.0,3.0,66,0.00,,,0.01,VWS V14.01,2013-05-26 14:55:00,
2013-05-26 10:56:00,64.6,53.0,30.31,North,359,1.5,3.0,66,0.00,,,0.01,VWS V14.01,2013-05-26 14:56:00,
2013-05-26 10:57:00,64.7,52.7,30.31,East,91,3.0,3.0,65,0.00,,,0.01,VWS V14.01,2013-05-26 14:57:00,
2013-05-26 10:58:00,64.8,52.3,30.31,East,96,3.0,6.0,64,0.00,,,0.01,VWS V14.01,2013-05-26 14:58:00,
2013-05-26 10:59:00,64.9,52.0,30.32,ENE,63,4.5,4.5,63,0.00,,,0.01,VWS V14.01,2013-05-26 14:59:00,
2013-05-26 11:00:00,64.8,51.9,30.32,ENE,61,3.0,4.5,63,0.00,,,0.01,VWS V14.01,2013-05-26 15:00:00,
2013-05-26 11:01:00,64.8,51.9,30.32,ESE,116,3.0,4.5,63,0.00,,,0.01,VWS V14.01,2013-05-26 15:01:00,
2013-05-26 11:02:00,64.8,51.9,30.32,ENE,68,3.0,4.5,63,0.00,,,0.01,VWS V14.01,2013-05-26 15:02:00,
2013-05-26 11:03:00,64.8,51.5,30.32,NNE,26,3.0,4.5,62,0.00,,,0.01,VWS V14.01,2013-05-26 15:03:00,
2013-05-26 11:04:00,65.0,52.1,30.32,ENE,66,4.5,4.5,63,0.00,,,0.01,VWS V14.01,2013-05-26 15:04:00,
2013-05-26 11:05:00,65.0,52.1,30.32,SSW,195,4.5,4.5,63,0.00,,,0.01,VWS V14.01,2013-05-26 15:05:00,
2013-05-26 11:06:00,65.1,52.2,30.32,East,89,6.0,6.0,63,0.00,,,0.01,VWS V14.01,2013-05-26 15:06:00,
2013-05-26 11:07:00,65.2,51.9,30.31,ESE,123,3.0,6.0,62,0.00,,,0.01,VWS V14.01,2013-05-26 15:07:00,
2013-05-26 11:08:00,65.2,51.9,30.32,East,88,6.0,7.5,62,0.00,,,0.01,VWS V14.01,2013-05-26 15:08:00,
2013-05-26 11:09:00,65.1,51.3,30.31,East,99,4.5,4.5,61,0.00,,,0.01,VWS V14.01,2013-05-26 15:09:00,
2013-05-26 11:10:00,65.0,51.2,30.31,SE,130,6.0,6.0,61,0.00,,,0.01,VWS V14.01,2013-05-26 15:10:00,
2013-05-26 11:11:00,65.0,51.2,30.31,ENE,73,4.5,7.5,61,0.00,,,0.01,VWS V14.01,2013-05-26 15:11:00,
2013-05-26 11:12:00,64.9,51.2,30.31,ENE,76,9.0,10.5,61,0.00,,,0.01,VWS V14.01,2013-05-26 15:12:00,
2013-05-26 11:13:00,64.8,51.0,30.31,East,92,6.0,9.0,61,0.00,,,0.01,VWS V14.01,2013-05-26 15:13:00,
2013-05-26 11:14:00,64.7,51.0,30.31,East,85,6.0,7.5,61,0.00,,,0.01,VWS V14.01,2013-05-26 15:14:00,
2013-05-26 11:15:00,64.7,51.8,30.31,East,87,3.0,7.5,63,0.00,,,0.01,VWS V14.01,2013-05-26 15:15:00,
2013-05-26 11:16:00,64.8,51.5,30.31,SE,142,9.0,10.5,62,0.00,,,0.01,VWS V14.01,2013-05-26 15:16:00,
2013-05-26 11:17:00,64.8,51.0,30.31,East,98,7.5,9.0,61,0.00,,,0.01,VWS V14.01,2013-05-26 15:17:00,
2013-05-26 11:18:00,64.7,51.0,30.31,SSE,147,4.5,9.0,61,0.00,,,0.01,VWS V14.01,2013-05-26 15:18:00,
2013-05-26 11:19:00,64.7,50.1,30.31,ENE,63,4.5,6.0,59,0.00,,,0.01,VWS V14.01,2013-05-26 15:19:00,
2013-05-26 11:20:00,64.7,51.0,30.31,SE,130,4.5,6.0,61,0.00,,,0.01,VWS V14.01,2013-05-26 15:20:00,
2013-05-26 11:21:00,64.8,51.0,30.31,SSE,151,4.5,6.0,61,0.00,,,0.01,VWS V14.01,2013-05-26 15:21:00,
2013-05-26 11:22:00,65.0,51.7,30.31,SSW,210,3.0,4.5,62,0.00,,,0.01,VWS V14.01,2013-05-26 15:22:00,
2013-05-26 11:23:00,65.1,51.8,30.31,East,81,6.0,6.0,62,0.00,,,0.01,VWS V14.01,2013-05-26 15:23:00,
2013-05-26 11:24:00,65.3,51.5,30.31,East,99,7.5,7.5,61,0.00,,,0.01,VWS V14.01,2013-05-26 15:24:00,
2013-05-26 11:25:00,65.3,51.1,30.31,ESE,111,7.5,10.5,60,0.00,,,0.01,VWS V14.01,2013-05-26 15:25:00,
2013-05-26 11:26:00,65.3,51.1,30.31,SSE,149,3.0,7.5,60,0.00,,,0.01,VWS V14.01,2013-05-26 15:26:00,
2013-05-26 11:27:00,65.4,51.6,30.31,East,94,4.5,4.5,61,0.00,,,0.01,VWS V14.01,2013-05-26 15:27:00,
2013-05-26 11:28:00,65.4,51.2,30.31,ESE,116,10.5,15.0,60,0.00,,,0.01,VWS V14.01,2013-05-26 15:28:00,
2013-05-26 11:29:00,65.2,50.1,30.31,ENE,76,9.0,9.0,58,0.00,,,0.01,VWS V14.01,2013-05-26 15:29:00,
2013-05-26 11:30:00,65.1,50.0,30.31,ENE,70,7.5,9.0,58,0.00,,,0.01,VWS V14.01,2013-05-26 15:30:00,
2013-05-26 11:31:00,65.1,50.4,30.31,ESE,113,4.5,7.5,59,0.00,,,0.01,VWS V14.01,2013-05-26 15:31:00,
2013-05-26 11:32:00,65.0,50.8,30.31,East,91,9.0,10.5,60,0.00,,,0.01,VWS V14.01,2013-05-26 15:32:00,
2013-05-26 11:33:00,64.9,50.7,30.31,ESE,111,6.0,9.0,60,0.00,,,0.01,VWS V14.01,2013-05-26 15:33:00,
2013-05-26 11:34:00,64.9,51.2,30.31,East,87,6.0,6.0,61,0.00,,,0.01,VWS V14.01,2013-05-26 15:34:00,
2013-05-26 11:35:00,64.9,51.2,30.31,East,92,4.5,6.0,61,0.00,,,0.01,VWS V14.01,2013-05-26 15:35:00,
2013-05-26 11:36:00,64.9,50.7,30.31,East,87,6.0,7.5,60,0.00,,,0.01,VWS V14.01,2013-05-26 15:36:00,
2013-05-26 11:37:00,64.9,50.7,30.31,NE,53,4.5,7.5,60,0.00,,,0.01,VWS V14.01,2013-05-26 15:37:00,
2013-05-26 11:38:00,65.0,52.1,30.31,ESE,123,6.0,6.0,63,0.00,,,0.01,VWS V14.01,2013-05-26 15:38:00,
2013-05-26 11:39:00,65.2,51.4,30.31,East,88,10.5,10.5,61,0.00,,,0.01,VWS V14.01,2013-05-26 15:39:00,
2013-05-26 11:40:00,65.3,51.5,30.31,ESE,117,4.5,10.5,61,0.00,,,0.01,VWS V14.01,2013-05-26 15:40:00,
2013-05-26 11:41:00,65.3,52.0,30.31,East,79,6.0,6.0,62,0.00,,,0.01,VWS V14.01,2013-05-26 15:41:00,
2013-05-26 11:42:00,65.4,51.6,30.31,ENE,72,6.0,7.5,61,0.00,,,0.01,VWS V14.01,2013-05-26 15:42:00,
2013-05-26 11:43:00,65.5,51.3,30.31,ENE,66,4.5,7.5,60,0.00,,,0.01,VWS V14.01,2013-05-26 15:43:00,
2013-05-26 11:44:00,65.4,50.7,30.31,NE,42,4.5,6.0,59,0.00,,,0.01,VWS V14.01,2013-05-26 15:44:00,
2013-05-26 11:45:00,65.4,51.2,30.31,East,88,6.0,6.0,60,0.00,,,0.01,VWS V14.01,2013-05-26 15:45:00,
2013-05-26 11:46:00,65.3,51.5,30.31,ENE,70,4.5,7.5,61,0.00,,,0.01,VWS V14.01,2013-05-26 15:46:00,
2013-05-26 11:47:00,65.4,51.6,30.31,East,94,4.5,6.0,61,0.00,,,0.01,VWS V14.01,2013-05-26 15:47:00,
2013-05-26 11:48:00,65.4,52.1,30.31,East,95,1.5,4.5,62,0.00,,,0.01,VWS V14.01,2013-05-26 15:48:00,
2013-05-26 11:49:00,65.7,52.8,30.31,ENE,74,3.0,4.5,63,0.00,,,0.01,VWS V14.01,2013-05-26 15:49:00,
2013-05-26 11:50:00,65.9,53.0,30.31,East,80,6.0,6.0,63,0.00,,,0.01,VWS V14.01,2013-05-26 15:50:00,
2013-05-26 11:51:00,66.0,51.3,30.31,ENE,76,12.0,12.0,59,0.00,,,0.01,VWS V14.01,2013-05-26 15:51:00,
2013-05-26 11:52:00,66.0,51.3,30.31,ESE,104,7.5,12.0,59,0.00,,,0.01,VWS V14.01,2013-05-26 15:52:00,
2013-05-26 11:53:00,66.0,51.7,30.32,East,91,4.5,7.5,60,0.00,,,0.01,VWS V14.01,2013-05-26 15:53:00,
2013-05-26 11:54:00,65.9,51.2,30.32,SSE,149,7.5,7.5,59,0.00,,,0.01,VWS V14.01,2013-05-26 15:54:00,
2013-05-26 11:55:00,65.9,51.2,30.32,East,100,3.0,7.5,59,0.00,,,0.01,VWS V14.01,2013-05-26 15:55:00,
2013-05-26 11:56:00,66.0,51.7,30.32,ENE,66,7.5,7.5,60,0.00,,,0.01,VWS V14.01,2013-05-26 15:56:00,
2013-05-26 11:57:00,65.9,50.7,30.32,ENE,72,4.5,7.5,58,0.00,,,0.01,VWS V14.01,2013-05-26 15:57:00,
2013-05-26 11:58:00,65.8,50.6,30.32,East,98,3.0,4.5,58,0.00,,,0.01,VWS V14.01,2013-05-26 15:58:00,
2013-05-26 11:59:00,65.9,51.2,30.32,East,94,4.5,4.5,59,0.00,,,0.01,VWS V14.01,2013-05-26 15:59:00,
2013-05-26 12:00:00,65.9,51.2,30.32,East,89,4.5,6.0,59,0.00,,,0.01,VWS V14.01,2013-05-26 16:00:00,
2013-05-26 12:01:00,66.0,51.7,30.32,SE,139,3.0,6.0,60,0.00,,,0.01,VWS V14.01,2013-05-26 16:01:00,
2013-05-26 12:02:00,66.1,51.4,30.32,SE,146,1.5,6.0,59,0.00,,,0.01,VWS V14.01,2013-05-26 16:02:00,
2013-05-26 12:03:00,66.2,51.0,30.32,ENE,77,6.0,6.0,58,0.00,,,0.01,VWS V14.01,2013-05-26 16:03:00,
2013-05-26 12:04:00,66.2,51.0,30.32,East,83,6.0,10.5,58,0.00,,,0.01,VWS V14.01,2013-05-26 16:04:00,
2013-05-26 12:05:00,66.2,51.0,30.32,NE,53,6.0,10.5,58,0.00,,,0.01,VWS V14.01,2013-05-26 16:05:00,
2013-05-26 12:06:00,66.1,50.9,30.32,ESE,116,4.5,6.0,58,0.00,,,0.01,VWS V14.01,2013-05-26 16:06:00,
2013-05-26 12:07:00,66.1,50.4,30.32,SE,133,3.0,4.5,57,0.00,,,0.01,VWS V14.01,2013-05-26 16:07:00,
2013-05-26 12:08:00,66.2,51.5,30.31,ENE,73,1.5,3.0,59,0.00,,,0.01,VWS V14.01,2013-05-26 16:08:00,
2013-05-26 12:09:00,66.3,51.1,30.31,East,89,4.5,10.5,58,0.00,,,0.01,VWS V14.01,2013-05-26 16:09:00,
2013-05-26 12:10:00,66.3,51.1,30.31,ESE,116,4.5,10.5,58,0.00,,,0.01,VWS V14.01,2013-05-26 16:10:00,
2013-05-26 12:11:00,66.4,50.7,30.31,East,85,6.0,6.0,57,0.00,,,0.01,VWS V14.01,2013-05-26 16:11:00,
2013-05-26 12:12:00,66.3,50.2,30.31,East,91,6.0,9.0,56,0.00,,,0.01,VWS V14.01,2013-05-26 16:12:00,
2013-05-26 12:13:00,66.3,50.6,30.31,SE,131,3.0,6.0,57,0.00,,,0.01,VWS V14.01,2013-05-26 16:13:00,
2013-05-26 12:14:00,66.3,51.1,30.31,SE,143,7.5,7.5,58,0.00,,,0.01,VWS V14.01,2013-05-26 16:14:00,
2013-05-26 12:15:00,66.4,51.2,30.31,ESE,119,6.0,7.5,58,0.00,,,0.01,VWS V14.01,2013-05-26 16:15:00,
2013-05-26 12:16:00,66.4,50.2,30.32,East,91,4.5,7.5,56,0.00,,,0.01,VWS V14.01,2013-05-26 16:16:00,
2013-05-26 12:17:00,66.3,50.6,30.32,East,88,4.5,7.5,57,0.00,,,0.01,VWS V14.01,2013-05-26 16:17:00,
2013-05-26 12:18:00,66.3,50.2,30.31,East,95,1.5,6.0,56,0.00,,,0.01,VWS V14.01,2013-05-26 16:18:00,
2013-05-26 12:19:00,66.4,51.7,30.31,ENE,73,3.0,6.0,59,0.00,,,0.01,VWS V14.01,2013-05-26 16:19:00,
2013-05-26 12:20:00,66.4,51.7,30.31,East,101,7.5,7.5,59,0.00,,,0.01,VWS V14.01,2013-05-26 16:20:00,
2013-05-26 12:21:00,66.5,51.3,30.31,East,81,4.5,7.5,58,0.00,,,0.01,VWS V14.01,2013-05-26 16:21:00,
2013-05-26 12:22:00,66.6,51.8,30.31,ESE,113,3.0,4.5,59,0.00,,,0.01,VWS V14.01,2013-05-26 16:22:00,
2013-05-26 12:23:00,66.7,51.9,30.31,ESE,111,3.0,3.0,59,0.00,,,0.01,VWS V14.01,2013-05-26 16:23:00,
2013-05-26 12:24:00,66.8,52.0,30.31,East,84,4.5,4.5,59,0.00,,,0.01,VWS V14.01,2013-05-26 16:24:00,
2013-05-26 12:25:00,66.8,51.1,30.31,East,84,1.5,4.5,57,0.00,,,0.01,VWS V14.01,2013-05-26 16:25:00,
2013-05-26 12:26:00,66.9,51.7,30.31,East,84,1.5,3.0,58,0.00,,,0.01,VWS V14.01,2013-05-26 16:26:00,
2013-05-26 12:27:00,67.0,52.7,30.31,SE,128,3.0,3.0,60,0.00,,,0.01,VWS V14.01,2013-05-26 16:27:00,
2013-05-26 12:28:00,67.1,52.3,30.31,ENE,75,6.0,6.0,59,0.00,,,0.01,VWS V14.01,2013-05-26 16:28:00,
2013-05-26 12:29:00,67.1,51.4,30.31,ENE,77,1.5,3.0,57,0.00,,,0.01,VWS V14.01,2013-05-26 16:29:00,
2013-05-26 12:30:00,67.2,52.4,30.31,SSE,158,3.0,3.0,59,0.00,,,0.01,VWS V14.01,2013-05-26 16:30:00,
2013-05-26 12:31:00,67.3,52.0,30.31,ESE,122,6.0,9.0,58,0.00,,,0.01,VWS V14.01,2013-05-26 16:31:00,
2013-05-26 12:32:00,67.3,51.6,30.31,ESE,104,4.5,6.0,57,0.00,,,0.01,VWS V14.01,2013-05-26 16:32:00,
2013-05-26 12:33:00,67.4,51.7,30.31,SSW,199,4.5,6.0,57,0.00,,,0.01,VWS V14.01,2013-05-26 16:33:00,
2013-05-26 12:34:00,67.5,51.3,30.31,SSW,212,1.5,1.5,56,0.00,,,0.01,VWS V14.01,2013-05-26 16:34:00,
2013-05-26 12:35:00,67.5,51.8,30.31,SW,228,4.5,4.5,57,0.00,,,0.01,VWS V14.01,2013-05-26 16:35:00,
2013-05-26 12:36:00,67.7,51.9,30.31,ESE,119,4.5,4.5,57,0.00,,,0.01,VWS V14.01,2013-05-26 16:36:00,
2013-05-26 12:37:00,67.7,51.5,30.31,East,93,3.0,7.5,56,0.00,,,0.01,VWS V14.01,2013-05-26 16:37:00,
2013-05-26 12:38:00,67.7,51.5,30.31,ESE,111,1.5,3.0,56,0.00,,,0.01,VWS V14.01,2013-05-26 16:38:00,
2013-05-26 12:39:00,67.8,51.5,30.31,ENE,76,4.5,6.0,56,0.00,,,0.01,VWS V14.01,2013-05-26 16:39:00,
2013-05-26 12:40:00,67.8,51.5,30.31,SE,130,4.5,7.5,56,0.00,,,0.01,VWS V14.01,2013-05-26 16:40:00,
2013-05-26 12:41:00,67.7,51.5,30.31,ESE,119,1.5,7.5,56,0.00,,,0.01,VWS V14.01,2013-05-26 16:41:00,
2013-05-26 12:42:00,67.7,51.5,30.31,East,87,1.5,3.0,56,0.00,,,0.01,VWS V14.01,2013-05-26 16:42:00,
2013-05-26 12:43:00,67.7,51.5,30.31,ENE,76,4.5,6.0,56,0.00,,,0.01,VWS V14.01,2013-05-26 16:43:00,
2013-05-26 12:44:00,67.6,50.4,30.31,SE,127,4.5,6.0,54,0.00,,,0.01,VWS V14.01,2013-05-26 16:44:00,
2013-05-26 12:45:00,67.6,50.4,30.31,South,169,4.5,6.0,54,0.00,,,0.01,VWS V14.01,2013-05-26 16:45:00,
2013-05-26 12:46:00,67.5,50.3,30.31,ENE,66,3.0,4.5,54,0.00,,,0.01,VWS V14.01,2013-05-26 16:46:00,
2013-05-26 12:47:00,67.6,51.4,30.30,SE,139,4.5,6.0,56,0.00,,,0.01,VWS V14.01,2013-05-26 16:47:00,
2013-05-26 12:48:00,67.5,51.8,30.31,ESE,111,3.0,6.0,57,0.00,,,0.01,VWS V14.01,2013-05-26 16:48:00,
2013-05-26 12:49:00,67.6,52.3,30.31,East,83,4.5,6.0,58,0.00,,,0.01,VWS V14.01,2013-05-26 16:49:00,
2013-05-26 12:50:00,67.7,51.0,30.31,ESE,119,1.5,6.0,55,0.00,,,0.01,VWS V14.01,2013-05-26 16:50:00,
2013-05-26 12:51:00,67.7,51.5,30.31,East,92,3.0,4.5,56,0.00,,,0.01,VWS V14.01,2013-05-26 16:51:00,
2013-05-26 12:52:00,67.8,52.0,30.31,NNE,23,3.0,3.0,57,0.00,,,0.01,VWS V14.01,2013-05-26 16:52:00,
2013-05-26 12:53:00,67.9,51.6,30.31,East,92,3.0,4.5,56,0.00,,,0.01,VWS V14.01,2013-05-26 16:53:00,
2013-05-26 12:54:00,67.9,52.1,30.31,SSW,201,6.0,6.0,57,0.00,,,0.01,VWS V14.01,2013-05-26 16:54:00,
2013-05-26 12:55:00,68.0,52.7,30.31,ENE,58,3.0,6.0,58,0.00,,,0.01,VWS V14.01,2013-05-26 16:55:00,
2013-05-26 12:56:00,68.1,51.8,30.31,East,95,1.5,6.0,56,0.00,,,0.01,VWS V14.01,2013-05-26 16:56:00,
2013-05-26 12:57:00,68.1,51.8,30.31,ESE,111,1.5,3.0,56,0.00,,,0.01,VWS V14.01,2013-05-26 16:57:00,
2013-05-26 12:58:00,68.2,52.4,30.31,SSE,165,1.5,3.0,57,0.00,,,0.01,VWS V14.01,2013-05-26 16:58:00,
2013-05-26 12:59:00,68.4,51.6,30.31,SW,231,3.0,3.0,55,0.00,,,0.01,VWS V14.01,2013-05-26 16:59:00,
2013-05-26 13:00:00,68.5,52.2,30.31,East,95,4.5,4.5,56,0.00,,,0.01,VWS V14.01,2013-05-26 17:00:00,
2013-05-26 13:01:00,68.5,52.2,30.31,ESE,108,1.5,7.5,56,0.00,,,0.01,VWS V14.01,2013-05-26 17:01:00,
2013-05-26 13:02:00,68.5,52.2,30.31,SSW,213,4.5,7.5,56,0.00,,,0.01,VWS V14.01,2013-05-26 17:02:00,
2013-05-26 13:03:00,68.4,51.1,30.31,South,172,6.0,7.5,54,0.00,,,0.01,VWS V14.01,2013-05-26 17:03:00,
2013-05-26 13:04:00,68.3,52.0,30.30,South,181,1.5,1.5,56,0.00,,,0.01,VWS V14.01,2013-05-26 17:04:00,
2013-05-26 13:05:00,68.3,52.0,30.30,ESE,114,1.5,1.5,56,0.00,,,0.01,VWS V14.01,2013-05-26 17:05:00,
2013-05-26 13:06:00,68.4,53.1,30.30,ENE,61,3.0,3.0,58,0.00,,,0.01,VWS V14.01,2013-05-26 17:06:00,
2013-05-26 13:07:00,68.5,51.7,30.30,East,87,1.5,4.5,55,0.00,,,0.01,VWS V14.01,2013-05-26 17:07:00,
2013-05-26 13:08:00,68.6,52.3,30.30,ENE,70,4.5,4.5,56,0.00,,,0.01,VWS V14.01,2013-05-26 17:08:00,
2013-05-26 13:09:00,68.7,52.4,30.30,East,81,6.0,6.0,56,0.00,,,0.01,VWS V14.01,2013-05-26 17:09:00,
2013-05-26 13:10:00,68.7,51.9,30.30,ENE,59,6.0,7.5,55,0.00,,,0.01,VWS V14.01,2013-05-26 17:10:00,
2013-05-26 13:11:00,68.6,51.8,30.30,ENE,59,4.5,6.0,55,0.00,,,0.01,VWS V14.01,2013-05-26 17:11:00,
2013-05-26 13:12:00,68.5,50.7,30.30,ENE,69,6.0,6.0,53,0.00,,,0.01,VWS V14.01,2013-05-26 17:12:00,
2013-05-26 13:13:00,68.4,51.1,30.30,ESE,106,7.5,7.5,54,0.00,,,0.01,VWS V14.01,2013-05-26 17:13:00,
2013-05-26 13:14:00,68.1,50.8,30.30,East,101,1.5,3.0,54,0.00,,,0.01,VWS V14.01,2013-05-26 17:14:00,
2013-05-26 13:15:00,68.1,51.3,30.30,ENE,73,6.0,7.5,55,0.00,,,0.01,VWS V14.01,2013-05-26 17:15:00,
2013-05-26 13:16:00,68.0,50.8,30.30,ENE,65,3.0,6.0,54,0.00,,,0.01,VWS V14.01,2013-05-26 17:16:00,
2013-05-26 13:17:00,68.0,51.7,30.30,South,175,4.5,4.5,56,0.00,,,0.01,VWS V14.01,2013-05-26 17:17:00,
2013-05-26 13:18:00,68.1,50.8,30.30,West,259,4.5,6.0,54,0.00,,,0.01,VWS V14.01,2013-05-26 17:18:00,
2013-05-26 13:19:00,68.0,50.8,30.30,WSW,237,3.0,4.5,54,0.00,,,0.01,VWS V14.01,2013-05-26 17:19:00,
2013-05-26 13:20:00,68.0,50.8,30.30,SSW,197,3.0,4.5,54,0.00,,,0.01,VWS V14.01,2013-05-26 17:20:00,
2013-05-26 13:21:00,68.1,52.8,30.30,SE,133,1.5,3.0,58,0.00,,,0.01,VWS V14.01,2013-05-26 17:21:00,
2013-05-26 13:22:00,68.2,51.4,30.30,South,191,3.0,3.0,55,0.00,,,0.01,VWS V14.01,2013-05-26 17:22:00,
2013-05-26 13:23:00,68.4,52.1,30.30,South,191,1.5,3.0,56,0.00,,,0.01,VWS V14.01,2013-05-26 17:23:00,
2013-05-26 13:24:00,68.6,52.3,30.30,East,95,3.0,3.0,56,0.00,,,0.01,VWS V14.01,2013-05-26 17:24:00,
2013-05-26 13:25:00,68.7,51.9,30.30,West,268,4.5,6.0,55,0.00,,,0.01,VWS V14.01,2013-05-26 17:25:00,
2013-05-26 13:26:00,68.8,51.5,30.30,SSW,198,4.5,7.5,54,0.00,,,0.01,VWS V14.01,2013-05-26 17:26:00,
2013-05-26 13:27:00,68.8,51.5,30.30,SSE,164,7.5,7.5,54,0.00,,,0.01,VWS V14.01,2013-05-26 17:27:00,
2013-05-26 13:28:00,68.8,52.0,30.30,ESE,113,1.5,7.5,55,0.00,,,0.01,VWS V14.01,2013-05-26 17:28:00,
2013-05-26 13:29:00,68.8,51.5,30.30,SSW,192,6.0,6.0,54,0.00,,,0.01,VWS V14.01,2013-05-26 17:29:00,
2013-05-26 13:30:00,68.9,51.6,30.30,SSW,206,6.0,6.0,54,0.00,,,0.01,VWS V14.01,2013-05-26 17:30:00,
2013-05-26 13:31:00,68.9,51.6,30.30,South,191,4.5,6.0,54,0.00,,,0.01,VWS V14.01,2013-05-26 17:31:00,
2013-05-26 13:32:00,69.0,51.7,30.30,SSW,208,1.5,4.5,54,0.00,,,0.01,VWS V14.01,2013-05-26 17:32:00,
2013-05-26 13:33:00,69.1,51.3,30.30,WSW,244,6.0,6.0,53,0.00,,,0.01,VWS V14.01,2013-05-26 17:33:00,
2013-05-26 13:34:00,69.0,51.2,30.30,WSW,244,3.0,3.0,53,0.00,,,0.01,VWS V14.01,2013-05-26 17:34:00,
2013-05-26 13:35:00,69.0,51.7,30.30,WSW,244,1.5,3.0,54,0.00,,,0.01,VWS V14.01,2013-05-26 17:35:00,
2013-05-26 13:36:00,69.0,52.2,30.30,West,265,3.0,4.5,55,0.00,,,0.01,VWS V14.01,2013-05-26 17:36:00,
2013-05-26 13:37:00,69.1,51.8,30.30,West,276,4.5,4.5,54,0.00,,,0.01,VWS V14.01,2013-05-26 17:37:00,
2013-05-26 13:38:00,69.2,51.9,30.30,West,261,1.5,4.5,54,0.00,,,0.01,VWS V14.01,2013-05-26 17:38:00,
2013-05-26 13:39:00,69.3,52.0,30.30,WNW,295,3.0,3.0,54,0.00,,,0.01,VWS V14.01,2013-05-26 17:39:00,
2013-05-26 13:40:00,69.3,51.5,30.30,WNW,282,3.0,4.5,53,0.00,,,0.01,VWS V14.01,2013-05-26 17:40:00,
2013-05-26 13:41:00,69.3,51.5,30.30,WNW,282,1.5,3.0,53,0.00,,,0.01,VWS V14.01,2013-05-26 17:41:00,
2013-05-26 13:42:00,69.3,50.9,30.30,WNW,282,1.5,1.5,52,0.00,,,0.01,VWS V14.01,2013-05-26 17:42:00,
2013-05-26 13:43:00,69.3,51.5,30.30,WNW,287,1.5,3.0,53,0.00,,,0.01,VWS V14.01,2013-05-26 17:43:00,
2013-05-26 13:44:00,69.5,51.6,30.30,WNW,288,1.5,1.5,53,0.00,,,0.01,VWS V14.01,2013-05-26 17:44:00,
2013-05-26 13:45:00,69.5,52.6,30.30,ENE,68,6.0,6.0,55,0.00,,,0.01,VWS V14.01,2013-05-26 17:45:00,
2013-05-26 13:46:00,69.6,52.7,30.30,East,87,6.0,7.5,55,0.00,,,0.01,VWS V14.01,2013-05-26 17:46:00,
2013-05-26 13:47:00,69.4,52.0,30.30,ESE,122,4.5,6.0,54,0.00,,,0.01,VWS V14.01,2013-05-26 17:47:00,
2013-05-26 13:48:00,69.3,52.0,30.30,ESE,116,4.5,4.5,54,0.00,,,0.01,VWS V14.01,2013-05-26 17:48:00,
2013-05-26 13:49:00,69.2,51.4,30.30,ENE,62,4.5,4.5,53,0.00,,,0.01,VWS V14.01,2013-05-26 17:49:00,
2013-05-26 13:50:00,69.0,50.7,30.30,ENE,59,3.0,4.5,52,0.00,,,0.01,VWS V14.01,2013-05-26 17:50:00,
2013-05-26 13:51:00,69.0,51.2,30.30,East,80,4.5,4.5,53,0.00,,,0.01,VWS V14.01,2013-05-26 17:51:00,
2013-05-26 13:52:00,68.9,51.1,30.30,East,94,1.5,4.5,53,0.00,,,0.01,VWS V14.01,2013-05-26 17:52:00,
2013-05-26 13:53:00,68.9,51.6,30.30,East,98,3.0,3.0,54,0.00,,,0.01,VWS V14.01,2013-05-26 17:53:00,
2013-05-26 13:54:00,68.9,52.6,30.30,ENE,77,3.0,3.0,56,0.00,,,0.01,VWS V14.01,2013-05-26 17:54:00,
2013-05-26 13:55:00,69.0,52.7,30.30,ESE,104,3.0,4.5,56,0.00,,,0.01,VWS V14.01,2013-05-26 17:55:00,
2013-05-26 13:56:00,69.2,52.8,30.30,ESE,113,4.5,6.0,56,0.00,,,0.01,VWS V14.01,2013-05-26 17:56:00,
2013-05-26 13:57:00,69.2,52.4,30.30,East,89,1.5,4.5,55,0.00,,,0.01,VWS V14.01,2013-05-26 17:57:00,
2013-05-26 13:58:00,69.3,52.5,30.30,East,80,1.5,1.5,55,0.00,,,0.01,VWS V14.01,2013-05-26 17:58:00,
2013-05-26 13:59:00,69.5,52.6,30.30,East,85,3.0,4.5,55,0.00,,,0.01,VWS V14.01,2013-05-26 17:59:00,
2013-05-26 14:00:00,69.6,53.2,30.30,ESE,106,1.5,4.5,56,0.00,,,0.01,VWS V14.01,2013-05-26 18:00:00,
2013-05-26 14:01:00,69.7,52.8,30.29,ENE,66,6.0,6.0,55,0.00,,,0.01,VWS V14.01,2013-05-26 18:01:00,
2013-05-26 14:02:00,69.8,53.9,30.29,ESE,106,3.0,6.0,57,0.00,,,0.01,VWS V14.01,2013-05-26 18:02:00,
2013-05-26 14:03:00,69.8,51.9,30.29,East,82,3.0,4.5,53,0.00,,,0.01,VWS V14.01,2013-05-26 18:03:00,
2013-05-26 14:04:00,69.8,52.4,30.29,NNW,336,1.5,1.5,54,0.00,,,0.01,VWS V14.01,2013-05-26 18:04:00,
2013-05-26 14:05:00,69.8,51.9,30.29,SW,216,1.5,4.5,53,0.00,,,0.01,VWS V14.01,2013-05-26 18:05:00,
2013-05-26 14:06:00,69.9,53.0,30.29,SE,137,4.5,4.5,55,0.00,,,0.01,VWS V14.01,2013-05-26 18:06:00,
2013-05-26 14:07:00,70.0,52.6,30.29,SE,130,4.5,6.0,54,0.00,,,0.01,VWS V14.01,2013-05-26 18:07:00,
2013-05-26 14:08:00,70.0,52.6,30.29,ENE,66,3.0,4.5,54,0.00,,,0.01,VWS V14.01,2013-05-26 18:08:00,
2013-05-26 14:09:00,70.1,51.7,30.29,NE,45,1.5,1.5,52,0.00,,,0.01,VWS V14.01,2013-05-26 18:09:00,
2013-05-26 14:10:00,70.1,52.2,30.29,ENE,67,3.0,4.5,53,0.00,,,0.01,VWS V14.01,2013-05-26 18:10:00,
2013-05-26 14:11:00,70.1,52.2,30.29,NE,49,4.5,4.5,53,0.00,,,0.01,VWS V14.01,2013-05-26 18:11:00,
2013-05-26 14:12:00,70.0,52.6,30.29,NE,54,3.0,4.5,54,0.00,,,0.01,VWS V14.01,2013-05-26 18:12:00,
2013-05-26 14:13:00,69.9,52.0,30.29,NE,55,1.5,3.0,53,0.00,,,0.01,VWS V14.01,2013-05-26 18:13:00,
2013-05-26 14:14:00,69.9,53.0,30.29,East,85,3.0,3.0,55,0.00,,,0.01,VWS V14.01,2013-05-26 18:14:00,
2013-05-26 14:15:00,70.0,53.6,30.28,WSW,244,3.0,3.0,56,0.00,,,0.01,VWS V14.01,2013-05-26 18:15:00,
2013-05-26 14:16:00,70.1,54.2,30.28,SW,216,1.5,4.5,57,0.00,,,0.01,VWS V14.01,2013-05-26 18:16:00,
2013-05-26 14:17:00,70.3,53.4,30.29,SSE,168,1.5,1.5,55,0.00,,,0.01,VWS V14.01,2013-05-26 18:17:00,
2013-05-26 14:18:00,70.4,52.5,30.28,East,96,1.5,1.5,53,0.00,,,0.01,VWS V14.01,2013-05-26 18:18:00,
2013-05-26 14:19:00,70.5,53.1,30.28,SE,130,4.5,4.5,54,0.00,,,0.01,VWS V14.01,2013-05-26 18:19:00,
2013-05-26 14:20:00,70.6,53.2,30.28,ESE,119,3.0,6.0,54,0.00,,,0.01,VWS V14.01,2013-05-26 18:20:00,
2013-05-26 14:21:00,70.7,54.2,30.28,ESE,106,4.5,4.5,56,0.00,,,0.01,VWS V14.01,2013-05-26 18:21:00,
2013-05-26 14:22:00,70.7,53.8,30.28,South,172,4.5,9.0,55,0.00,,,0.01,VWS V14.01,2013-05-26 18:22:00,
2013-05-26 14:23:00,70.7,53.3,30.28,ESE,104,3.0,7.5,54,0.00,,,0.01,VWS V14.01,2013-05-26 18:23:00,
2013-05-26 14:24:00,70.6,53.7,30.28,SE,138,7.5,7.5,55,0.00,,,0.01,VWS V14.01,2013-05-26 18:24:00,
2013-05-26 14:25:00,70.7,52.8,30.28,East,90,6.0,7.5,53,0.00,,,0.01,VWS V14.01,2013-05-26 18:25:00,
2013-05-26 14:26:00,70.6,52.7,30.28,ENE,76,1.5,6.0,53,0.00,,,0.01,VWS V14.01,2013-05-26 18:26:00,
2013-05-26 14:27:00,70.6,52.1,30.28,East,99,3.0,4.5,52,0.00,,,0.01,VWS V14.01,2013-05-26 18:27:00,
2013-05-26 14:28:00,70.6,52.7,30.28,ENE,73,3.0,4.5,53,0.00,,,0.01,VWS V14.01,2013-05-26 18:28:00,
2013-05-26 14:29:00,70.4,52.5,30.28,East,81,3.0,4.5,53,0.00,,,0.01,VWS V14.01,2013-05-26 18:29:00,
2013-05-26 14:30:00,70.3,53.4,30.28,SE,126,4.5,7.5,55,0.00,,,0.01,VWS V14.01,2013-05-26 18:30:00,
2013-05-26 14:31:00,70.3,52.9,30.27,SE,138,3.0,6.0,54,0.00,,,0.01,VWS V14.01,2013-05-26 18:31:00,
2013-05-26 14:32:00,70.3,53.9,30.28,ESE,111,6.0,6.0,56,0.00,,,0.01,VWS V14.01,2013-05-26 18:32:00,
2013-05-26 14:33:00,70.3,53.4,30.27,East,101,4.5,6.0,55,0.00,,,0.01,VWS V14.01,2013-05-26 18:33:00,
2013-05-26 14:34:00,70.3,52.9,30.27,East,79,6.0,6.0,54,0.00,,,0.01,VWS V14.01,2013-05-26 18:34:00,
2013-05-26 14:35:00,70.3,53.4,30.27,ESE,108,4.5,7.5,55,0.00,,,0.01,VWS V14.01,2013-05-26 18:35:00,
2013-05-26 14:36:00,70.3,52.9,30.27,East,96,4.5,4.5,54,0.00,,,0.01,VWS V14.01,2013-05-26 18:36:00,
2013-05-26 14:37:00,70.2,52.8,30.27,SW,226,6.0,7.5,54,0.00,,,0.01,VWS V14.01,2013-05-26 18:37:00,
2013-05-26 14:38:00,70.1,51.2,30.27,ESE,108,6.0,6.0,51,0.00,,,0.01,VWS V14.01,2013-05-26 18:38:00,
2013-05-26 14:39:00,70.2,52.3,30.27,NE,48,6.0,6.0,53,0.00,,,0.01,VWS V14.01,2013-05-26 18:39:00,
2013-05-26 14:40:00,70.2,52.8,30.27,ENE,66,4.5,6.0,54,0.00,,,0.01,VWS V14.01,2013-05-26 18:40:00,
2013-05-26 14:41:00,70.4,54.0,30.27,ESE,117,7.5,12.0,56,0.00,,,0.01,VWS V14.01,2013-05-26 18:41:00,
2013-05-26 14:42:00,70.3,53.4,30.27,ENE,74,4.5,7.5,55,0.00,,,0.01,VWS V14.01,2013-05-26 18:42:00,
2013-05-26 14:43:00,70.3,53.4,30.27,East,95,3.0,7.5,55,0.00,,,0.01,VWS V14.01,2013-05-26 18:43:00,
2013-05-26 14:44:00,70.3,52.9,30.27,SE,125,3.0,3.0,54,0.00,,,0.01,VWS V14.01,2013-05-26 18:44:00,
2013-05-26 14:45:00,70.3,52.4,30.27,SSW,195,4.5,6.0,53,0.00,,,0.01,VWS V14.01,2013-05-26 18:45:00,
2013-05-26 14:46:00,70.5,52.6,30.27,SSW,206,3.0,4.5,53,0.00,,,0.01,VWS V14.01,2013-05-26 18:46:00,
2013-05-26 14:47:00,70.5,53.1,30.27,SSW,202,4.5,10.5,54,0.00,,,0.01,VWS V14.01,2013-05-26 18:47:00,
2013-05-26 14:48:00,70.7,53.8,30.27,SSE,163,4.5,6.0,55,0.00,,,0.01,VWS V14.01,2013-05-26 18:48:00,
2013-05-26 14:49:00,70.8,52.8,30.27,SE,133,6.0,6.0,53,0.00,,,0.01,VWS V14.01,2013-05-26 18:49:00,
2013-05-26 14:50:00,70.9,52.9,30.27,SSE,153,3.0,7.5,53,0.00,,,0.01,VWS V14.01,2013-05-26 18:50:00,
2013-05-26 14:51:00,70.9,52.9,30.27,East,87,7.5,7.5,53,0.00,,,0.01,VWS V14.01,2013-05-26 18:51:00,
2013-05-26 14:52:00,70.9,51.9,30.27,ENE,61,4.5,7.5,51,0.00,,,0.01,VWS V14.01,2013-05-26 18:52:00,
2013-05-26 14:53:00,70.8,52.3,30.27,East,85,1.5,7.5,52,0.00,,,0.01,VWS V14.01,2013-05-26 18:53:00,
2013-05-26 14:54:00,70.7,52.2,30.27,NNE,18,4.5,4.5,52,0.00,,,0.01,VWS V14.01,2013-05-26 18:54:00,
2013-05-26 14:55:00,70.7,52.8,30.26,NNE,31,3.0,4.5,53,0.00,,,0.01,VWS V14.01,2013-05-26 18:55:00,
2013-05-26 14:56:00,70.8,53.8,30.26,WSW,241,3.0,3.0,55,0.00,,,0.01,VWS V14.01,2013-05-26 18:56:00,
2013-05-26 14:57:00,70.9,53.4,30.27,SSW,196,4.5,4.5,54,0.00,,,0.01,VWS V14.01,2013-05-26 18:57:00,
2013-05-26 14:58:00,71.1,53.1,30.27,SSW,210,3.0,3.0,53,0.00,,,0.01,VWS V14.01,2013-05-26 18:58:00,
2013-05-26 14:59:00,71.1,53.1,30.27,WSW,257,3.0,3.0,53,0.00,,,0.01,VWS V14.01,2013-05-26 18:59:00,
2013-05-26 15:00:00,71.1,52.6,30.27,West,260,3.0,4.5,52,0.00,,,0.01,VWS V14.01,2013-05-26 19:00:00,
2013-05-26 15:01:00,71.1,52.6,30.27,SSE,154,1.5,3.0,52,0.00,,,0.01,VWS V14.01,2013-05-26 19:01:00,
2013-05-26 15:02:00,71.1,53.1,30.27,SSW,203,3.0,4.5,53,0.00,,,0.01,VWS V14.01,2013-05-26 19:02:00,
2013-05-26 15:03:00,71.3,54.3,30.27,SSW,198,3.0,3.0,55,0.00,,,0.01,VWS V14.01,2013-05-26 19:03:00,
2013-05-26 15:04:00,71.3,54.3,30.27,SSW,198,3.0,3.0,55,0.00,,,0.01,VWS V14.01,2013-05-26 19:04:00,
2013-05-26 15:05:00,71.3,52.8,30.27,SSW,210,1.5,3.0,52,0.00,,,0.01,VWS V14.01,2013-05-26 19:05:00,
2013-05-26 15:06:00,71.4,53.4,30.27,ENE,67,3.0,4.5,53,0.00,,,0.01,VWS V14.01,2013-05-26 19:06:00,
2013-05-26 15:07:00,71.5,54.0,30.27,SE,127,3.0,4.5,54,0.00,,,0.01,VWS V14.01,2013-05-26 19:07:00,
2013-05-26 15:08:00,71.5,54.0,30.27,East,80,6.0,6.0,54,0.00,,,0.01,VWS V14.01,2013-05-26 19:08:00,
2013-05-26 15:09:00,71.5,54.0,30.27,East,92,6.0,6.0,54,0.00,,,0.01,VWS V14.01,2013-05-26 19:09:00,
2013-05-26 15:10:00,71.5,53.0,30.27,East,91,3.0,6.0,52,0.00,,,0.01,VWS V14.01,2013-05-26 19:10:00,
2013-05-26 15:11:00,71.4,53.4,30.27,East,91,1.5,3.0,53,0.00,,,0.01,VWS V14.01,2013-05-26 19:11:00,
2013-05-26 15:12:00,71.4,53.4,30.27,East,89,3.0,3.0,53,0.00,,,0.01,VWS V14.01,2013-05-26 19:12:00,
2013-05-26 15:13:00,71.5,53.5,30.26,East,89,1.5,1.5,53,0.00,,,0.01,VWS V14.01,2013-05-26 19:13:00,
2013-05-26 15:14:00,71.5,53.5,30.26,East,89,1.5,1.5,53,0.00,,,0.01,VWS V14.01,2013-05-26 19:14:00,
2013-05-26 15:15:00,71.7,54.2,30.26,SSE,160,6.0,6.0,54,0.00,,,0.01,VWS V14.01,2013-05-26 19:15:00,
2013-05-26 15:16:00,71.8,53.8,30.26,ESE,116,1.5,7.5,53,0.00,,,0.01,VWS V14.01,2013-05-26 19:16:00,
2013-05-26 15:17:00,71.9,53.3,30.26,ESE,119,3.0,4.5,52,0.00,,,0.01,VWS V14.01,2013-05-26 19:17:00,
2013-05-26 15:18:00,71.8,53.2,30.26,ENE,75,3.0,3.0,52,0.00,,,0.01,VWS V14.01,2013-05-26 19:18:00,
2013-05-26 15:19:00,71.8,53.2,30.26,ENE,75,3.0,3.0,52,0.00,,,0.01,VWS V14.01,2013-05-26 19:19:00,
2013-05-26 15:20:00,71.7,53.2,30.26,SSE,165,4.5,4.5,52,0.00,,,0.01,VWS V14.01,2013-05-26 19:20:00,
2013-05-26 15:21:00,71.7,54.2,30.26,NE,44,3.0,4.5,54,0.00,,,0.01,VWS V14.01,2013-05-26 19:21:00,
2013-05-26 15:22:00,71.8,54.3,30.26,East,95,6.0,6.0,54,0.00,,,0.01,VWS V14.01,2013-05-26 19:22:00,
2013-05-26 15:23:00,71.7,53.2,30.26,ESE,105,3.0,4.5,52,0.00,,,0.01,VWS V14.01,2013-05-26 19:23:00,
2013-05-26 15:24:00,71.7,53.2,30.26,NNE,13,4.5,4.5,52,0.00,,,0.01,VWS V14.01,2013-05-26 19:24:00,
2013-05-26 15:25:00,71.6,53.6,30.26,ENE,58,4.5,6.0,53,0.00,,,0.01,VWS V14.01,2013-05-26 19:25:00,
2013-05-26 15:26:00,71.6,53.6,30.27,ENE,63,7.5,9.0,53,0.00,,,0.01,VWS V14.01,2013-05-26 19:26:00,
2013-05-26 15:27:00,71.5,53.0,30.26,ENE,72,3.0,9.0,52,0.00,,,0.01,VWS V14.01,2013-05-26 19:27:00,
2013-05-26 15:28:00,71.1,53.1,30.27,ENE,61,6.0,6.0,53,0.00,,,0.01,VWS V14.01,2013-05-26 19:28:00,
2013-05-26 15:29:00,71.1,54.1,30.27,East,95,4.5,6.0,55,0.00,,,0.01,VWS V14.01,2013-05-26 19:29:00,
2013-05-26 15:30:00,71.0,53.0,30.27,ENE,58,6.0,6.0,53,0.00,,,0.01,VWS V14.01,2013-05-26 19:30:00,
2013-05-26 15:31:00,70.8,52.8,30.27,NE,52,3.0,6.0,53,0.00,,,0.01,VWS V14.01,2013-05-26 19:31:00,
2013-05-26 15:32:00,70.7,52.2,30.27,NE,52,1.5,3.0,52,0.00,,,0.01,VWS V14.01,2013-05-26 19:32:00,
2013-05-26 15:33:00,70.7,52.2,30.26,NE,46,1.5,3.0,52,0.00,,,0.01,VWS V14.01,2013-05-26 19:33:00,
2013-05-26 15:34:00,70.7,52.2,30.26,NE,46,3.0,3.0,52,0.00,,,0.01,VWS V14.01,2013-05-26 19:34:00,
2013-05-26 15:35:00,70.7,52.2,30.26,NW,324,3.0,4.5,52,0.00,,,0.01,VWS V14.01,2013-05-26 19:35:00,
2013-05-26 15:36:00,70.8,51.8,30.26,NW,324,1.5,3.0,51,0.00,,,0.01,VWS V14.01,2013-05-26 19:36:00,
2013-05-26 15:37:00,70.8,52.8,30.26,NNW,338,3.0,3.0,53,0.00,,,0.01,VWS V14.01,2013-05-26 19:37:00,
2013-05-26 15:38:00,71.0,53.0,30.26,North,360,4.5,7.5,53,0.00,,,0.01,VWS V14.01,2013-05-26 19:38:00,
2013-05-26 15:39:00,71.0,53.0,30.26,NNW,343,4.5,7.5,53,0.00,,,0.01,VWS V14.01,2013-05-26 19:39:00,
2013-05-26 15:40:00,71.0,53.0,30.26,East,87,3.0,7.5,53,0.00,,,0.01,VWS V14.01,2013-05-26 19:40:00,
2013-05-26 15:41:00,71.1,54.6,30.26,ENE,67,1.5,3.0,56,0.00,,,0.01,VWS V14.01,2013-05-26 19:41:00,
2013-05-26 15:42:00,71.3,54.3,30.26,ESE,104,4.5,9.0,55,0.00,,,0.01,VWS V14.01,2013-05-26 19:42:00,
2013-05-26 15:43:00,71.3,53.3,30.26,East,89,6.0,9.0,53,0.00,,,0.01,VWS V14.01,2013-05-26 19:43:00,
2013-05-26 15:44:00,71.3,53.3,30.26,East,85,7.5,9.0,53,0.00,,,0.01,VWS V14.01,2013-05-26 19:44:00,
2013-05-26 15:45:00,71.2,52.2,30.26,SE,137,4.5,9.0,51,0.00,,,0.01,VWS V14.01,2013-05-26 19:45:00,
2013-05-26 15:46:00,71.2,52.7,30.26,East,92,3.0,4.5,52,0.00,,,0.01,VWS V14.01,2013-05-26 19:46:00,
2013-05-26 15:47:00,71.3,52.8,30.26,East,92,1.5,3.0,52,0.00,,,0.01,VWS V14.01,2013-05-26 19:47:00,
2013-05-26 15:48:00,71.5,53.0,30.26,WSW,255,1.5,3.0,52,0.00,,,0.01,VWS V14.01,2013-05-26 19:48:00,
2013-05-26 15:49:00,71.6,53.1,30.26,NW,324,4.5,4.5,52,0.00,,,0.01,VWS V14.01,2013-05-26 19:49:00,
2013-05-26 15:50:00,71.9,53.9,30.26,North,356,7.5,7.5,53,0.00,,,0.01,VWS V14.01,2013-05-26 19:50:00,
2013-05-26 15:51:00,72.1,54.6,30.26,ENE,59,9.0,9.0,54,0.00,,,0.01,VWS V14.01,2013-05-26 19:51:00,
2013-05-26 15:52:00,72.2,54.7,30.26,ENE,69,3.0,9.0,54,0.00,,,0.01,VWS V14.01,2013-05-26 19:52:00,
2013-05-26 15:53:00,72.3,52.6,30.26,NE,40,6.0,10.5,50,0.00,,,0.01,VWS V14.01,2013-05-26 19:53:00,
2013-05-26 15:54:00,72.3,52.6,30.26,NNE,32,7.5,10.5,50,0.00,,,0.01,VWS V14.01,2013-05-26 19:54:00,
2013-05-26 15:55:00,72.2,52.0,30.26,NE,46,1.5,7.5,49,0.00,,,0.01,VWS V14.01,2013-05-26 19:55:00,
2013-05-26 15:56:00,72.1,52.5,30.26,NNW,340,4.5,6.0,50,0.00,,,0.01,VWS V14.01,2013-05-26 19:56:00,
2013-05-26 15:57:00,72.0,53.4,30.26,NW,312,4.5,6.0,52,0.00,,,0.01,VWS V14.01,2013-05-26 19:57:00,
2013-05-26 15:58:00,72.0,54.0,30.26,NNE,23,7.5,7.5,53,0.00,,,0.01,VWS V14.01,2013-05-26 19:58:00,
2013-05-26 15:59:00,72.0,54.0,30.26,NNE,23,4.5,7.5,53,0.00,,,0.01,VWS V14.01,2013-05-26 19:59:00,
2013-05-26 16:00:00,72.1,53.5,30.26,NE,51,4.5,7.5,52,0.00,,,0.01,VWS V14.01,2013-05-26 20:00:00,
2013-05-26 16:01:00,72.0,52.4,30.25,NE,34,6.0,7.5,50,0.00,,,0.01,VWS V14.01,2013-05-26 20:01:00,
2013-05-26 16:02:00,71.9,53.3,30.25,North,4,7.5,10.5,52,0.00,,,0.01,VWS V14.01,2013-05-26 20:02:00,
2013-05-26 16:03:00,71.8,53.8,30.25,NE,40,4.5,7.5,53,0.00,,,0.01,VWS V14.01,2013-05-26 20:03:00,
2013-05-26 16:04:00,71.8,53.8,30.25,North,11,6.0,7.5,53,0.00,,,0.01,VWS V14.01,2013-05-26 20:04:00,
2013-05-26 16:05:00,71.8,53.2,30.25,NE,44,4.5,6.0,52,0.00,,,0.01,VWS V14.01,2013-05-26 20:05:00,
2013-05-26 16:06:00,71.8,53.2,30.25,NE,56,4.5,7.5,52,0.00,,,0.01,VWS V14.01,2013-05-26 20:06:00,
2013-05-26 16:07:00,71.7,53.2,30.25,ENE,77,1.5,4.5,52,0.00,,,0.01,VWS V14.01,2013-05-26 20:07:00,
2013-05-26 16:08:00,71.8,53.8,30.25,East,95,3.0,6.0,53,0.00,,,0.01,VWS V14.01,2013-05-26 20:08:00,
2013-05-26 16:09:00,71.7,53.7,30.25,ESE,104,4.5,6.0,53,0.00,,,0.01,VWS V14.01,2013-05-26 20:09:00,
2013-05-26 16:10:00,71.7,54.2,30.25,ENE,74,6.0,6.0,54,0.00,,,0.01,VWS V14.01,2013-05-26 20:10:00,
2013-05-26 16:11:00,71.7,53.2,30.25,East,79,4.5,6.0,52,0.00,,,0.01,VWS V14.01,2013-05-26 20:11:00,
2013-05-26 16:12:00,71.5,53.0,30.25,East,95,4.5,4.5,52,0.00,,,0.01,VWS V14.01,2013-05-26 20:12:00,
2013-05-26 16:13:00,71.2,52.7,30.25,ENE,69,3.0,4.5,52,0.00,,,0.01,VWS V14.01,2013-05-26 20:13:00,
2013-05-26 16:14:00,71.2,53.7,30.25,SE,139,3.0,4.5,54,0.00,,,0.01,VWS V14.01,2013-05-26 20:14:00,
2013-05-26 16:15:00,71.1,53.6,30.25,ESE,111,3.0,4.5,54,0.00,,,0.01,VWS V14.01,2013-05-26 20:15:00,
2013-05-26 16:16:00,71.1,53.6,30.25,ESE,111,3.0,4.5,54,0.00,,,0.01,VWS V14.01,2013-05-26 20:16:00,
2013-05-26 16:17:00,71.1,53.6,30.25,ESE,106,1.5,3.0,54,0.00,,,0.01,VWS V14.01,2013-05-26 20:17:00,
2013-05-26 16:18:00,71.1,53.6,30.25,ENE,58,3.0,4.5,54,0.00,,,0.01,VWS V14.01,2013-05-26 20:18:00,
2013-05-26 16:19:00,71.1,53.6,30.25,ENE,58,3.0,4.5,54,0.00,,,0.01,VWS V14.01,2013-05-26 20:19:00,
2013-05-26 16:20:00,71.2,53.2,30.25,ENE,58,1.5,3.0,53,0.00,,,0.01,VWS V14.01,2013-05-26 20:20:00,
2013-05-26 16:21:00,71.1,53.1,30.26,ENE,57,1.5,1.5,53,0.00,,,0.01,VWS V14.01,2013-05-26 20:21:00,
2013-05-26 16:22:00,71.2,53.2,30.25,ESE,120,3.0,3.0,53,0.00,,,0.01,VWS V14.01,2013-05-26 20:22:00,
2013-05-26 16:23:00,71.5,53.5,30.25,SSE,153,3.0,3.0,53,0.00,,,0.01,VWS V14.01,2013-05-26 20:23:00,
2013-05-26 16:24:00,71.5,53.5,30.25,SE,127,3.0,3.0,53,0.00,,,0.01,VWS V14.01,2013-05-26 20:24:00,
2013-05-26 16:25:00,71.7,53.7,30.25,SE,143,1.5,3.0,53,0.00,,,0.01,VWS V14.01,2013-05-26 20:25:00,
2013-05-26 16:26:00,71.9,53.3,30.25,SSE,158,1.5,3.0,52,0.00,,,0.01,VWS V14.01,2013-05-26 20:26:00,
2013-05-26 16:27:00,72.0,54.5,30.25,ESE,113,3.0,3.0,54,0.00,,,0.01,VWS V14.01,2013-05-26 20:27:00,
2013-05-26 16:28:00,72.2,54.1,30.25,SE,136,4.5,4.5,53,0.00,,,0.01,VWS V14.01,2013-05-26 20:28:00,
2013-05-26 16:29:00,72.2,54.1,30.25,SSE,163,1.5,4.5,53,0.00,,,0.01,VWS V14.01,2013-05-26 20:29:00,
2013-05-26 16:30:00,72.3,53.2,30.25,SSW,203,1.5,3.0,51,0.00,,,0.01,VWS V14.01,2013-05-26 20:30:00,
2013-05-26 16:31:00,72.4,53.8,30.25,SSW,211,1.5,3.0,52,0.00,,,0.01,VWS V14.01,2013-05-26 20:31:00,
2013-05-26 16:32:00,72.6,54.0,30.25,ENE,70,3.0,3.0,52,0.00,,,0.01,VWS V14.01,2013-05-26 20:32:00,
2013-05-26 16:33:00,72.5,53.9,30.24,East,82,6.0,9.0,52,0.00,,,0.01,VWS V14.01,2013-05-26 20:33:00,
2013-05-26 16:34:00,72.5,53.9,30.24,ESE,122,4.5,9.0,52,0.00,,,0.01,VWS V14.01,2013-05-26 20:34:00,
2013-05-26 16:35:00,72.3,53.7,30.25,ESE,108,1.5,4.5,52,0.00,,,0.01,VWS V14.01,2013-05-26 20:35:00,
2013-05-26 16:36:00,72.3,53.7,30.25,NE,38,6.0,6.0,52,0.00,,,0.01,VWS V14.01,2013-05-26 20:36:00,
2013-05-26 16:37:00,72.3,53.7,30.25,East,82,4.5,6.0,52,0.00,,,0.01,VWS V14.01,2013-05-26 20:37:00,
2013-05-26 16:38:00,72.4,53.8,30.25,East,95,3.0,4.5,52,0.00,,,0.01,VWS V14.01,2013-05-26 20:38:00,
2013-05-26 16:39:00,72.4,54.3,30.25,East,95,1.5,4.5,53,0.00,,,0.01,VWS V14.01,2013-05-26 20:39:00,
2013-05-26 16:40:00,72.5,53.9,30.24,West,280,1.5,3.0,52,0.00,,,0.01,VWS V14.01,2013-05-26 20:40:00,
2013-05-26 16:41:00,72.7,54.1,30.24,WNW,291,1.5,3.0,52,0.00,,,0.01,VWS V14.01,2013-05-26 20:41:00,
2013-05-26 16:42:00,72.8,55.2,30.24,NE,51,3.0,6.0,54,0.00,,,0.01,VWS V14.01,2013-05-26 20:42:00,
2013-05-26 16:43:00,73.1,53.4,30.24,East,100,3.0,6.0,50,0.00,,,0.01,VWS V14.01,2013-05-26 20:43:00,
2013-05-26 16:44:00,73.0,53.3,30.24,East,91,3.0,6.0,50,0.00,,,0.01,VWS V14.01,2013-05-26 20:44:00,
2013-05-26 16:45:00,73.1,54.5,30.24,East,96,4.5,4.5,52,0.00,,,0.01,VWS V14.01,2013-05-26 20:45:00,
2013-05-26 16:46:00,73.0,53.3,30.24,East,92,1.5,4.5,50,0.00,,,0.01,VWS V14.01,2013-05-26 20:46:00,
2013-05-26 16:47:00,73.1,54.5,30.24,East,85,1.5,4.5,52,0.00,,,0.01,VWS V14.01,2013-05-26 20:47:00,
2013-05-26 16:48:00,73.1,53.4,30.24,North,3,4.5,7.5,50,0.00,,,0.01,VWS V14.01,2013-05-26 20:48:00,
2013-05-26 16:49:00,73.1,53.4,30.24,NE,50,4.5,7.5,50,0.00,,,0.01,VWS V14.01,2013-05-26 20:49:00,
2013-05-26 16:50:00,73.1,53.4,30.24,NNE,26,1.5,4.5,50,0.00,,,0.01,VWS V14.01,2013-05-26 20:50:00,
2013-05-26 16:51:00,73.2,52.9,30.24,NW,312,1.5,1.5,49,0.00,,,0.01,VWS V14.01,2013-05-26 20:51:00,
2013-05-26 16:52:00,73.3,53.6,30.24,NW,312,1.5,1.5,50,0.00,,,0.01,VWS V14.01,2013-05-26 20:52:00,
2013-05-26 16:53:00,73.4,54.2,30.24,SW,217,3.0,3.0,51,0.00,,,0.01,VWS V14.01,2013-05-26 20:53:00,
2013-05-26 16:54:00,73.5,54.3,30.24,SW,219,1.5,3.0,51,0.00,,,0.01,VWS V14.01,2013-05-26 20:54:00,
2013-05-26 16:55:00,73.5,54.3,30.24,SW,219,1.5,1.5,51,0.00,,,0.01,VWS V14.01,2013-05-26 20:55:00,
2013-05-26 16:56:00,73.7,53.9,30.24,SW,219,1.5,1.5,50,0.00,,,0.01,VWS V14.01,2013-05-26 20:56:00,
2013-05-26 16:57:00,73.9,54.7,30.24,East,82,3.0,3.0,51,0.00,,,0.01,VWS V14.01,2013-05-26 20:57:00,
2013-05-26 16:58:00,74.2,54.4,30.24,ESE,123,3.0,6.0,50,0.00,,,0.01,VWS V14.01,2013-05-26 20:58:00,
2013-05-26 16:59:00,74.3,54.5,30.24,ESE,119,3.0,6.0,50,0.00,,,0.01,VWS V14.01,2013-05-26 20:59:00,
2013-05-26 17:00:00,74.3,54.5,30.24,SE,126,3.0,3.0,50,0.00,,,0.01,VWS V14.01,2013-05-26 21:00:00,
2013-05-26 17:01:00,74.5,55.2,30.24,East,92,3.0,6.0,51,0.00,,,0.01,VWS V14.01,2013-05-26 21:01:00,
2013-05-26 17:02:00,74.5,54.7,30.24,ESE,102,3.0,6.0,50,0.00,,,0.01,VWS V14.01,2013-05-26 21:02:00,
2013-05-26 17:03:00,74.4,54.0,30.24,ENE,70,3.0,3.0,49,0.00,,,0.01,VWS V14.01,2013-05-26 21:03:00,
2013-05-26 17:04:00,74.3,53.9,30.24,ENE,75,3.0,4.5,49,0.00,,,0.01,VWS V14.01,2013-05-26 21:04:00,
2013-05-26 17:05:00,74.3,54.5,30.24,East,92,3.0,4.5,50,0.00,,,0.01,VWS V14.01,2013-05-26 21:05:00,
2013-05-26 17:06:00,74.1,53.7,30.24,ENE,65,6.0,6.0,49,0.00,,,0.01,VWS V14.01,2013-05-26 21:06:00,
2013-05-26 17:07:00,73.8,53.5,30.24,East,85,4.5,7.5,49,0.00,,,0.01,VWS V14.01,2013-05-26 21:07:00,
2013-05-26 17:08:00,73.5,53.7,30.24,East,87,7.5,7.5,50,0.00,,,0.01,VWS V14.01,2013-05-26 21:08:00,
2013-05-26 17:09:00,73.4,53.7,30.24,ESE,104,6.0,7.5,50,0.00,,,0.01,VWS V14.01,2013-05-26 21:09:00,
2013-05-26 17:10:00,73.1,53.4,30.24,ESE,105,4.5,6.0,50,0.00,,,0.01,VWS V14.01,2013-05-26 21:10:00,
2013-05-26 17:11:00,72.9,53.2,30.24,East,99,1.5,7.5,50,0.00,,,0.01,VWS V14.01,2013-05-26 21:11:00,
2013-05-26 17:12:00,72.8,53.6,30.24,East,82,1.5,3.0,51,0.00,,,0.01,VWS V14.01,2013-05-26 21:12:00,
2013-05-26 17:13:00,72.8,54.2,30.24,ENE,68,1.5,3.0,52,0.00,,,0.01,VWS V14.01,2013-05-26 21:13:00,
2013-05-26 17:14:00,72.8,54.2,30.24,NW,312,1.5,3.0,52,0.00,,,0.01,VWS V14.01,2013-05-26 21:14:00,
2013-05-26 17:15:00,73.0,54.3,30.24,NNW,327,1.5,1.5,52,0.00,,,0.01,VWS V14.01,2013-05-26 21:15:00,
2013-05-26 17:16:00,73.1,54.5,30.24,NW,305,3.0,4.5,52,0.00,,,0.01,VWS V14.01,2013-05-26 21:16:00,
2013-05-26 17:17:00,73.1,53.4,30.24,WSW,250,6.0,6.0,50,0.00,,,0.01,VWS V14.01,2013-05-26 21:17:00,
2013-05-26 17:18:00,73.0,53.8,30.24,WSW,258,3.0,4.5,51,0.00,,,0.01,VWS V14.01,2013-05-26 21:18:00,
2013-05-26 17:19:00,72.9,53.7,30.24,WSW,244,4.5,4.5,51,0.00,,,0.01,VWS V14.01,2013-05-26 21:19:00,
2013-05-26 17:20:00,72.8,54.2,30.24,WNW,282,4.5,4.5,52,0.00,,,0.01,VWS V14.01,2013-05-26 21:20:00,
2013-05-26 17:21:00,72.8,54.7,30.24,WNW,300,6.0,7.5,53,0.00,,,0.01,VWS V14.01,2013-05-26 21:21:00,
2013-05-26 17:22:00,72.7,53.5,30.24,WNW,300,1.5,6.0,51,0.00,,,0.01,VWS V14.01,2013-05-26 21:22:00,
2013-05-26 17:23:00,72.8,53.6,30.24,NNE,32,1.5,1.5,51,0.00,,,0.01,VWS V14.01,2013-05-26 21:23:00,
2013-05-26 17:24:00,72.8,54.2,30.24,ENE,61,3.0,3.0,52,0.00,,,0.01,VWS V14.01,2013-05-26 21:24:00,
2013-05-26 17:25:00,72.9,54.3,30.24,NE,37,1.5,3.0,52,0.00,,,0.01,VWS V14.01,2013-05-26 21:25:00,
2013-05-26 17:26:00,72.9,53.7,30.24,NNW,331,4.5,4.5,51,0.00,,,0.01,VWS V14.01,2013-05-26 21:26:00,
2013-05-26 17:27:00,72.9,53.7,30.24,East,80,3.0,4.5,51,0.00,,,0.01,VWS V14.01,2013-05-26 21:27:00,
2013-05-26 17:28:00,72.7,53.5,30.24,East,88,3.0,3.0,51,0.00,,,0.01,VWS V14.01,2013-05-26 21:28:00,
2013-05-26 17:29:00,72.7,53.5,30.24,East,89,1.5,3.0,51,0.00,,,0.01,VWS V14.01,2013-05-26 21:29:00,
2013-05-26 17:30:00,72.5,53.9,30.24,ENE,66,1.5,4.5,52,0.00,,,0.01,VWS V14.01,2013-05-26 21:30:00,
2013-05-26 17:31:00,72.5,54.9,30.24,East,98,4.5,4.5,54,0.00,,,0.01,VWS V14.01,2013-05-26 21:31:00,
2013-05-26 17:32:00,72.4,54.3,30.24,ENE,74,3.0,6.0,53,0.00,,,0.01,VWS V14.01,2013-05-26 21:32:00,
2013-05-26 17:33:00,72.4,54.8,30.24,ENE,73,4.5,4.5,54,0.00,,,0.01,VWS V14.01,2013-05-26 21:33:00,
2013-05-26 17:34:00,72.4,54.8,30.23,NE,55,4.5,6.0,54,0.00,,,0.01,VWS V14.01,2013-05-26 21:34:00,
2013-05-26 17:35:00,72.4,55.3,30.24,East,84,6.0,6.0,55,0.00,,,0.01,VWS V14.01,2013-05-26 21:35:00,
2013-05-26 17:36:00,72.4,54.8,30.24,East,95,6.0,7.5,54,0.00,,,0.01,VWS V14.01,2013-05-26 21:36:00,
2013-05-26 17:37:00,72.4,54.3,30.24,ENE,69,4.5,6.0,53,0.00,,,0.01,VWS V14.01,2013-05-26 21:37:00,
2013-05-26 17:38:00,72.3,54.7,30.24,ENE,76,1.5,1.5,54,0.00,,,0.01,VWS V14.01,2013-05-26 21:38:00,
2013-05-26 17:39:00,72.3,54.7,30.24,NE,38,6.0,6.0,54,0.00,,,0.01,VWS V14.01,2013-05-26 21:39:00,
2013-05-26 17:40:00,72.5,54.9,30.24,ENE,57,1.5,6.0,54,0.00,,,0.01,VWS V14.01,2013-05-26 21:40:00,
2013-05-26 17:41:00,72.6,55.0,30.24,NE,54,6.0,6.0,54,0.00,,,0.01,VWS V14.01,2013-05-26 21:41:00,
2013-05-26 17:42:00,72.8,55.2,30.24,ENE,72,3.0,7.5,54,0.00,,,0.01,VWS V14.01,2013-05-26 21:42:00,
2013-05-26 17:43:00,73.1,55.5,30.23,NNE,33,4.5,7.5,54,0.00,,,0.01,VWS V14.01,2013-05-26 21:43:00,
2013-05-26 17:44:00,73.1,55.5,30.23,ENE,77,4.5,7.5,54,0.00,,,0.01,VWS V14.01,2013-05-26 21:44:00,
2013-05-26 17:45:00,73.1,55.5,30.23,East,85,4.5,7.5,54,0.00,,,0.01,VWS V14.01,2013-05-26 21:45:00,
2013-05-26 17:46:00,73.1,55.0,30.23,East,89,6.0,7.5,53,0.00,,,0.01,VWS V14.01,2013-05-26 21:46:00,
2013-05-26 17:47:00,73.0,54.9,30.23,East,82,4.5,9.0,53,0.00,,,0.01,VWS V14.01,2013-05-26 21:47:00,
2013-05-26 17:48:00,72.8,54.7,30.23,NE,53,3.0,6.0,53,0.00,,,0.01,VWS V14.01,2013-05-26 21:48:00,
2013-05-26 17:49:00,72.7,55.1,30.23,SE,136,4.5,6.0,54,0.00,,,0.01,VWS V14.01,2013-05-26 21:49:00,
2013-05-26 17:50:00,72.7,54.6,30.23,SE,137,1.5,4.5,53,0.00,,,0.01,VWS V14.01,2013-05-26 21:50:00,
2013-05-26 17:51:00,72.7,54.6,30.23,SSE,159,3.0,3.0,53,0.00,,,0.01,VWS V14.01,2013-05-26 21:51:00,
2013-05-26 17:52:00,72.7,54.6,30.23,SSE,159,1.5,3.0,53,0.00,,,0.01,VWS V14.01,2013-05-26 21:52:00,
2013-05-26 17:53:00,72.9,54.8,30.24,NNE,29,1.5,3.0,53,0.00,,,0.01,VWS V14.01,2013-05-26 21:53:00,
2013-05-26 17:54:00,72.9,54.8,30.24,NNE,30,1.5,3.0,53,0.00,,,0.01,VWS V14.01,2013-05-26 21:54:00,
2013-05-26 17:55:00,72.9,55.3,30.24,NNW,329,6.0,6.0,54,0.00,,,0.01,VWS V14.01,2013-05-26 21:55:00,
2013-05-26 17:56:00,72.8,54.7,30.23,NNW,328,3.0,6.0,53,0.00,,,0.01,VWS V14.01,2013-05-26 21:56:00,
2013-05-26 17:57:00,72.8,54.7,30.23,NNW,340,1.5,4.5,53,0.00,,,0.01,VWS V14.01,2013-05-26 21:57:00,
2013-05-26 17:58:00,72.6,54.5,30.23,NNE,32,4.5,4.5,53,0.00,,,0.01,VWS V14.01,2013-05-26 21:58:00,
2013-05-26 17:59:00,72.6,54.5,30.23,NNE,29,3.0,4.5,53,0.00,,,0.01,VWS V14.01,2013-05-26 21:59:00,
2013-05-26 18:00:00,72.5,54.9,30.23,ENE,63,1.5,3.0,54,0.00,,,0.01,VWS V14.01,2013-05-26 22:00:00,
2013-05-26 18:01:00,72.5,54.9,30.23,NNE,21,4.5,6.0,54,0.00,,,0.01,VWS V14.01,2013-05-26 22:01:00,
2013-05-26 18:02:00,72.4,54.3,30.23,North,359,3.0,4.5,53,0.00,,,0.01,VWS V14.01,2013-05-26 22:02:00,
2013-05-26 18:03:00,72.3,55.2,30.23,NE,38,3.0,3.0,55,0.00,,,0.01,VWS V14.01,2013-05-26 22:03:00,
2013-05-26 18:04:00,72.3,55.2,30.23,NE,54,4.5,4.5,55,0.00,,,0.01,VWS V14.01,2013-05-26 22:04:00,
2013-05-26 18:05:00,72.2,55.7,30.23,NE,55,6.0,6.0,56,0.00,,,0.01,VWS V14.01,2013-05-26 22:05:00,
2013-05-26 18:06:00,72.2,55.2,30.23,ENE,65,3.0,6.0,55,0.00,,,0.01,VWS V14.01,2013-05-26 22:06:00,
2013-05-26 18:07:00,72.1,55.1,30.23,NE,38,4.5,4.5,55,0.00,,,0.01,VWS V14.01,2013-05-26 22:07:00,
2013-05-26 18:08:00,72.1,55.1,30.23,ENE,74,6.0,6.0,55,0.00,,,0.01,VWS V14.01,2013-05-26 22:08:00,
2013-05-26 18:09:00,72.1,55.6,30.23,NE,56,7.5,7.5,56,0.00,,,0.01,VWS V14.01,2013-05-26 22:09:00,
2013-05-26 18:10:00,72.1,54.6,30.23,East,80,6.0,7.5,54,0.00,,,0.01,VWS V14.01,2013-05-26 22:10:00,
2013-05-26 18:11:00,71.9,54.9,30.23,NE,44,4.5,6.0,55,0.00,,,0.01,VWS V14.01,2013-05-26 22:11:00,
2013-05-26 18:12:00,71.9,54.9,30.23,NE,38,4.5,4.5,55,0.00,,,0.01,VWS V14.01,2013-05-26 22:12:00,
2013-05-26 18:13:00,71.9,54.9,30.23,NNE,16,4.5,7.5,55,0.00,,,0.01,VWS V14.01,2013-05-26 22:13:00,
2013-05-26 18:14:00,71.8,54.3,30.23,NNE,19,3.0,7.5,54,0.00,,,0.01,VWS V14.01,2013-05-26 22:14:00,
2013-05-26 18:15:00,71.8,54.8,30.23,ESE,108,3.0,4.5,55,0.00,,,0.01,VWS V14.01,2013-05-26 22:15:00,
2013-05-26 18:16:00,71.7,55.2,30.23,ENE,66,6.0,7.5,56,0.00,,,0.01,VWS V14.01,2013-05-26 22:16:00,
2013-05-26 18:17:00,71.6,55.1,30.22,ENE,67,4.5,6.0,56,0.00,,,0.01,VWS V14.01,2013-05-26 22:17:00,
2013-05-26 18:18:00,71.6,55.6,30.22,East,101,3.0,4.5,57,0.00,,,0.01,VWS V14.01,2013-05-26 22:18:00,
2013-05-26 18:19:00,71.6,55.6,30.22,East,99,3.0,4.5,57,0.00,,,0.01,VWS V14.01,2013-05-26 22:19:00,
2013-05-26 18:20:00,71.7,55.7,30.22,ESE,104,4.5,6.0,57,0.00,,,0.01,VWS V14.01,2013-05-26 22:20:00,
2013-05-26 18:21:00,71.8,55.3,30.22,ESE,106,4.5,6.0,56,0.00,,,0.01,VWS V14.01,2013-05-26 22:21:00,
2013-05-26 18:22:00,71.8,54.8,30.22,East,92,4.5,6.0,55,0.00,,,0.01,VWS V14.01,2013-05-26 22:22:00,
2013-05-26 18:23:00,71.8,55.8,30.22,East,79,6.0,6.0,57,0.00,,,0.01,VWS V14.01,2013-05-26 22:23:00,
2013-05-26 18:24:00,71.9,55.9,30.22,East,92,6.0,7.5,57,0.00,,,0.01,VWS V14.01,2013-05-26 22:24:00,
2013-05-26 18:25:00,71.9,54.4,30.22,ENE,78,4.5,9.0,54,0.00,,,0.01,VWS V14.01,2013-05-26 22:25:00,
2013-05-26 18:26:00,71.9,54.4,30.22,ESE,105,1.5,6.0,54,0.00,,,0.01,VWS V14.01,2013-05-26 22:26:00,
2013-05-26 18:27:00,71.9,54.4,30.22,East,99,6.0,9.0,54,0.00,,,0.01,VWS V14.01,2013-05-26 22:27:00,
2013-05-26 18:28:00,72.0,55.0,30.22,East,87,12.0,12.0,55,0.00,,,0.01,VWS V14.01,2013-05-26 22:28:00,
2013-05-26 18:29:00,71.9,54.9,30.22,East,101,10.5,12.0,55,0.00,,,0.01,VWS V14.01,2013-05-26 22:29:00,
2013-05-26 18:30:00,71.9,54.4,30.23,ESE,119,6.0,10.5,54,0.00,,,0.01,VWS V14.01,2013-05-26 22:30:00,
2013-05-26 18:31:00,71.8,54.3,30.22,East,89,6.0,9.0,54,0.00,,,0.01,VWS V14.01,2013-05-26 22:31:00,
2013-05-26 18:32:00,71.8,54.3,30.22,East,90,4.5,9.0,54,0.00,,,0.01,VWS V14.01,2013-05-26 22:32:00,
2013-05-26 18:33:00,71.8,55.3,30.22,SE,141,4.5,4.5,56,0.00,,,0.01,VWS V14.01,2013-05-26 22:33:00,
2013-05-26 18:34:00,71.9,55.9,30.22,ESE,123,3.0,4.5,57,0.00,,,0.01,VWS V14.01,2013-05-26 22:34:00,
2013-05-26 18:35:00,72.1,55.6,30.22,East,95,4.5,4.5,56,0.00,,,0.01,VWS V14.01,2013-05-26 22:35:00,
2013-05-26 18:36:00,72.3,55.2,30.22,ESE,106,4.5,7.5,55,0.00,,,0.01,VWS V14.01,2013-05-26 22:36:00,
2013-05-26 18:37:00,72.4,54.8,30.22,ESE,111,4.5,6.0,54,0.00,,,0.01,VWS V14.01,2013-05-26 22:37:00,
2013-05-26 18:38:00,72.4,54.8,30.21,SE,140,3.0,6.0,54,0.00,,,0.01,VWS V14.01,2013-05-26 22:38:00,
2013-05-26 18:39:00,72.4,54.8,30.21,SE,141,3.0,6.0,54,0.00,,,0.01,VWS V14.01,2013-05-26 22:39:00,
2013-05-26 18:40:00,72.5,55.4,30.21,East,95,4.5,7.5,55,0.00,,,0.01,VWS V14.01,2013-05-26 22:40:00,
2013-05-26 18:41:00,72.5,55.4,30.21,ESE,105,4.5,4.5,55,0.00,,,0.01,VWS V14.01,2013-05-26 22:41:00,
2013-05-26 18:42:00,72.5,54.9,30.21,East,95,4.5,6.0,54,0.00,,,0.01,VWS V14.01,2013-05-26 22:42:00,
2013-05-26 18:43:00,72.5,55.4,30.21,ENE,77,4.5,4.5,55,0.00,,,0.01,VWS V14.01,2013-05-26 22:43:00,
2013-05-26 18:44:00,72.5,55.4,30.21,East,80,6.0,6.0,55,0.00,,,0.01,VWS V14.01,2013-05-26 22:44:00,
2013-05-26 18:45:00,72.5,54.9,30.21,East,96,6.0,6.0,54,0.00,,,0.01,VWS V14.01,2013-05-26 22:45:00,
2013-05-26 18:46:00,72.4,54.3,30.21,East,87,4.5,7.5,53,0.00,,,0.01,VWS V14.01,2013-05-26 22:46:00,
2013-05-26 18:47:00,72.3,54.2,30.21,ENE,63,3.0,4.5,53,0.00,,,0.01,VWS V14.01,2013-05-26 22:47:00,
2013-05-26 18:48:00,72.2,54.7,30.20,NE,51,4.5,6.0,54,0.00,,,0.01,VWS V14.01,2013-05-26 22:48:00,
2013-05-26 18:49:00,72.2,54.7,30.20,ENE,71,4.5,6.0,54,0.00,,,0.01,VWS V14.01,2013-05-26 22:49:00,
2013-05-26 18:50:00,72.2,55.2,30.20,East,85,4.5,7.5,55,0.00,,,0.01,VWS V14.01,2013-05-26 22:50:00,
2013-05-26 18:51:00,72.2,55.2,30.20,NNE,12,6.0,9.0,55,0.00,,,0.01,VWS V14.01,2013-05-26 22:51:00,
2013-05-26 18:52:00,72.2,55.2,30.20,ENE,66,6.0,12.0,55,0.00,,,0.01,VWS V14.01,2013-05-26 22:52:00,
2013-05-26 18:53:00,72.0,54.5,30.20,East,88,6.0,9.0,54,0.00,,,0.01,VWS V14.01,2013-05-26 22:53:00,
2013-05-26 18:54:00,72.0,54.5,30.20,ESE,111,3.0,9.0,54,0.00,,,0.01,VWS V14.01,2013-05-26 22:54:00,
2013-05-26 18:55:00,72.0,55.0,30.20,East,84,4.5,6.0,55,0.00,,,0.01,VWS V14.01,2013-05-26 22:55:00,
2013-05-26 18:56:00,71.9,54.9,30.20,ENE,70,4.5,6.0,55,0.00,,,0.01,VWS V14.01,2013-05-26 22:56:00,
2013-05-26 18:57:00,72.0,55.0,30.19,East,91,6.0,7.5,55,0.00,,,0.01,VWS V14.01,2013-05-26 22:57:00,
2013-05-26 18:58:00,71.9,54.9,30.19,East,94,6.0,6.0,55,0.00,,,0.01,VWS V14.01,2013-05-26 22:58:00,
2013-05-26 18:59:00,71.9,54.9,30.19,ENE,64,7.5,7.5,55,0.00,,,0.01,VWS V14.01,2013-05-26 22:59:00,
2013-05-26 19:00:00,71.8,55.3,30.19,East,98,3.0,13.5,56,0.00,,,0.01,VWS V14.01,2013-05-26 23:00:00,
2013-05-26 19:01:00,71.8,54.8,30.19,East,101,7.5,7.5,55,0.00,,,0.01,VWS V14.01,2013-05-26 23:01:00,
2013-05-26 19:02:00,71.7,54.7,30.19,ENE,76,6.0,7.5,55,0.00,,,0.01,VWS V14.01,2013-05-26 23:02:00,
2013-05-26 19:03:00,71.6,54.6,30.19,East,99,7.5,7.5,55,0.00,,,0.01,VWS V14.01,2013-05-26 23:03:00,
2013-05-26 19:04:00,71.6,55.1,30.19,ENE,68,7.5,7.5,56,0.00,,,0.01,VWS V14.01,2013-05-26 23:04:00,
2013-05-26 19:05:00,71.5,55.0,30.19,East,88,6.0,7.5,56,0.00,,,0.01,VWS V14.01,2013-05-26 23:05:00,
2013-05-26 19:06:00,71.5,54.5,30.19,SSE,153,6.0,10.5,55,0.00,,,0.01,VWS V14.01,2013-05-26 23:06:00,
2013-05-26 19:07:00,71.5,55.0,30.19,ENE,66,4.5,6.0,56,0.00,,,0.01,VWS V14.01,2013-05-26 23:07:00,
2013-05-26 19:08:00,71.5,54.5,30.19,ENE,70,6.0,7.5,55,0.00,,,0.01,VWS V14.01,2013-05-26 23:08:00,
2013-05-26 19:09:00,71.5,54.5,30.19,ENE,73,4.5,7.5,55,0.00,,,0.01,VWS V14.01,2013-05-26 23:09:00,
2013-05-26 19:10:00,71.5,55.0,30.19,NNE,26,4.5,9.0,56,0.00,,,0.01,VWS V14.01,2013-05-26 23:10:00,
2013-05-26 19:11:00,71.5,54.5,30.19,NE,51,4.5,6.0,55,0.00,,,0.01,VWS V14.01,2013-05-26 23:11:00,
2013-05-26 19:12:00,71.5,55.0,30.19,ESE,120,6.0,10.5,56,0.00,,,0.01,VWS V14.01,2013-05-26 23:12:00,
2013-05-26 19:13:00,71.5,55.5,30.19,ENE,70,7.5,7.5,57,0.00,,,0.01,VWS V14.01,2013-05-26 23:13:00,
2013-05-26 19:14:00,71.5,55.5,30.19,East,95,4.5,7.5,57,0.00,,,0.01,VWS V14.01,2013-05-26 23:14:00,
2013-05-26 19:15:00,71.4,54.9,30.19,ESE,113,4.5,6.0,56,0.00,,,0.01,VWS V14.01,2013-05-26 23:15:00,
2013-05-26 19:16:00,71.4,54.9,30.19,East,80,4.5,4.5,56,0.00,,,0.01,VWS V14.01,2013-05-26 23:16:00,
2013-05-26 19:17:00,71.5,55.0,30.19,SE,146,1.5,4.5,56,0.00,,,0.01,VWS V14.01,2013-05-26 23:17:00,
2013-05-26 19:18:00,71.5,55.0,30.19,SE,125,4.5,6.0,56,0.00,,,0.01,VWS V14.01,2013-05-26 23:18:00,
2013-05-26 19:19:00,71.5,55.0,30.19,SE,138,6.0,7.5,56,0.00,,,0.01,VWS V14.01,2013-05-26 23:19:00,
2013-05-26 19:20:00,71.5,55.0,30.19,ENE,67,4.5,6.0,56,0.00,,,0.01,VWS V14.01,2013-05-26 23:20:00,
2013-05-26 19:21:00,71.5,55.0,30.19,NE,54,6.0,9.0,56,0.00,,,0.01,VWS V14.01,2013-05-26 23:21:00,
2013-05-26 19:22:00,71.5,55.0,30.19,ENE,63,9.0,9.0,56,0.00,,,0.01,VWS V14.01,2013-05-26 23:22:00,
2013-05-26 19:23:00,71.3,54.8,30.19,East,95,7.5,9.0,56,0.00,,,0.01,VWS V14.01,2013-05-26 23:23:00,
2013-05-26 19:24:00,71.3,54.8,30.19,ESE,105,3.0,9.0,56,0.00,,,0.01,VWS V14.01,2013-05-26 23:24:00,
2013-05-26 19:25:00,71.2,54.7,30.20,East,79,3.0,6.0,56,0.00,,,0.01,VWS V14.01,2013-05-26 23:25:00,
2013-05-26 19:26:00,71.1,55.1,30.19,East,91,4.5,4.5,57,0.00,,,0.01,VWS V14.01,2013-05-26 23:26:00,
2013-05-26 19:27:00,71.2,55.2,30.19,East,88,3.0,4.5,57,0.00,,,0.01,VWS V14.01,2013-05-26 23:27:00,
2013-05-26 19:28:00,71.2,55.2,30.20,SE,130,7.5,7.5,57,0.00,,,0.01,VWS V14.01,2013-05-26 23:28:00,
2013-05-26 19:29:00,71.2,55.2,30.20,SE,130,4.5,7.5,57,0.00,,,0.01,VWS V14.01,2013-05-26 23:29:00,
2013-05-26 19:30:00,71.2,55.2,30.19,East,82,6.0,6.0,57,0.00,,,0.01,VWS V14.01,2013-05-26 23:30:00,
2013-05-26 19:31:00,71.2,54.7,30.19,East,89,6.0,7.5,56,0.00,,,0.01,VWS V14.01,2013-05-26 23:31:00,
2013-05-26 19:32:00,71.2,55.2,30.20,ENE,75,1.5,6.0,57,0.00,,,0.01,VWS V14.01,2013-05-26 23:32:00,
2013-05-26 19:33:00,71.2,55.2,30.20,ESE,122,4.5,6.0,57,0.00,,,0.01,VWS V14.01,2013-05-26 23:33:00,
2013-05-26 19:34:00,71.1,55.1,30.20,SE,136,3.0,6.0,57,0.00,,,0.01,VWS V14.01,2013-05-26 23:34:00,
2013-05-26 19:35:00,71.2,55.2,30.19,East,81,4.5,6.0,57,0.00,,,0.01,VWS V14.01,2013-05-26 23:35:00,
2013-05-26 19:36:00,71.1,54.6,30.20,SE,136,3.0,6.0,56,0.00,,,0.01,VWS V14.01,2013-05-26 23:36:00,
2013-05-26 19:37:00,71.1,54.6,30.20,ESE,111,3.0,6.0,56,0.00,,,0.01,VWS V14.01,2013-05-26 23:37:00,
2013-05-26 19:38:00,71.1,55.1,30.20,ESE,111,1.5,1.5,57,0.00,,,0.01,VWS V14.01,2013-05-26 23:38:00,
2013-05-26 19:39:00,71.2,55.2,30.20,ESE,119,1.5,3.0,57,0.00,,,0.01,VWS V14.01,2013-05-26 23:39:00,
2013-05-26 19:40:00,71.3,54.8,30.20,East,85,6.0,6.0,56,0.00,,,0.01,VWS V14.01,2013-05-26 23:40:00,
2013-05-26 19:41:00,71.4,54.9,30.20,ESE,104,4.5,6.0,56,0.00,,,0.01,VWS V14.01,2013-05-26 23:41:00,
2013-05-26 19:42:00,71.4,55.4,30.20,ENE,75,4.5,6.0,57,0.00,,,0.01,VWS V14.01,2013-05-26 23:42:00,
2013-05-26 19:43:00,71.3,55.3,30.20,ENE,77,1.5,1.5,57,0.00,,,0.01,VWS V14.01,2013-05-26 23:43:00,
2013-05-26 19:44:00,71.3,55.3,30.20,East,82,6.0,6.0,57,0.00,,,0.01,VWS V14.01,2013-05-26 23:44:00,
2013-05-26 19:45:00,71.3,55.3,30.20,East,96,1.5,6.0,57,0.00,,,0.01,VWS V14.01,2013-05-26 23:45:00,
2013-05-26 19:46:00,71.3,55.3,30.20,East,85,3.0,3.0,57,0.00,,,0.01,VWS V14.01,2013-05-26 23:46:00,
2013-05-26 19:47:00,71.3,55.3,30.20,ESE,106,3.0,4.5,57,0.00,,,0.01,VWS V14.01,2013-05-26 23:47:00,
2013-05-26 19:48:00,71.3,55.3,30.20,East,96,6.0,7.5,57,0.00,,,0.01,VWS V14.01,2013-05-26 23:48:00,
2013-05-26 19:49:00,71.2,55.2,30.20,ENE,76,6.0,7.5,57,0.00,,,0.01,VWS V14.01,2013-05-26 23:49:00,
2013-05-26 19:50:00,71.1,55.1,30.20,East,87,4.5,7.5,57,0.00,,,0.01,VWS V14.01,2013-05-26 23:50:00,
2013-05-26 19:51:00,71.0,55.0,30.20,East,90,6.0,7.5,57,0.00,,,0.01,VWS V14.01,2013-05-26 23:51:00,
2013-05-26 19:52:00,70.8,54.8,30.20,ESE,102,4.5,7.5,57,0.00,,,0.01,VWS V14.01,2013-05-26 23:52:00,
2013-05-26 19:53:00,70.6,54.6,30.20,East,85,3.0,3.0,57,0.00,,,0.01,VWS V14.01,2013-05-26 23:53:00,
2013-05-26 19:54:00,70.5,55.0,30.20,East,84,3.0,4.5,58,0.00,,,0.01,VWS V14.01,2013-05-26 23:54:00,
2013-05-26 19:55:00,70.4,54.9,30.20,NE,40,7.5,7.5,58,0.00,,,0.01,VWS V14.01,2013-05-26 23:55:00,
2013-05-26 19:56:00,70.3,54.4,30.20,ENE,77,6.0,7.5,57,0.00,,,0.01,VWS V14.01,2013-05-26 23:56:00,
2013-05-26 19:57:00,70.2,54.8,30.20,ENE,74,3.0,6.0,58,0.00,,,0.01,VWS V14.01,2013-05-26 23:57:00,
2013-05-26 19:58:00,70.1,55.1,30.20,East,95,3.0,3.0,59,0.00,,,0.01,VWS V14.01,2013-05-26 23:58:00,
2013-05-26 19:59:00,70.1,55.1,30.20,ENE,71,4.5,4.5,59,0.00,,,0.01,VWS V14.01,2013-05-26 23:59:00,
2013-05-26 20:00:00,70.1,55.1,30.20,ESE,102,4.5,4.5,59,0.00,,,0.01,VWS V14.01,2013-05-27 00:00:00,
2013-05-26 20:01:00,70.1,55.1,30.20,ENE,78,3.0,4.5,59,0.00,,,0.01,VWS V14.01,2013-05-27 00:01:00,
2013-05-26 20:02:00,70.1,55.1,30.20,NE,46,4.5,7.5,59,0.00,,,0.01,VWS V14.01,2013-05-27 00:02:00,
2013-05-26 20:03:00,70.1,55.1,30.20,ESE,104,4.5,4.5,59,0.00,,,0.01,VWS V14.01,2013-05-27 00:03:00,
2013-05-26 20:04:00,70.1,55.1,30.20,East,92,4.5,4.5,59,0.00,,,0.01,VWS V14.01,2013-05-27 00:04:00,
2013-05-26 20:05:00,70.1,55.1,30.20,East,85,3.0,4.5,59,0.00,,,0.01,VWS V14.01,2013-05-27 00:05:00,
2013-05-26 20:06:00,70.0,54.6,30.20,ENE,72,3.0,7.5,58,0.00,,,0.01,VWS V14.01,2013-05-27 00:06:00,
2013-05-26 20:07:00,70.0,55.0,30.20,East,88,3.0,4.5,59,0.00,,,0.01,VWS V14.01,2013-05-27 00:07:00,
2013-05-26 20:08:00,70.0,55.0,30.20,ENE,60,6.0,7.5,59,0.00,,,0.01,VWS V14.01,2013-05-27 00:08:00,
2013-05-26 20:09:00,69.9,54.9,30.20,ESE,108,4.5,7.5,59,0.00,,,0.01,VWS V14.01,2013-05-27 00:09:00,
2013-05-26 20:10:00,69.9,54.9,30.20,ESE,111,4.5,4.5,59,0.00,,,0.01,VWS V14.01,2013-05-27 00:10:00,
2013-05-26 20:11:00,69.9,54.9,30.20,ENE,75,3.0,4.5,59,0.00,,,0.01,VWS V14.01,2013-05-27 00:11:00,
2013-05-26 20:12:00,69.8,54.8,30.20,East,83,1.5,4.5,59,0.00,,,0.01,VWS V14.01,2013-05-27 00:12:00,
2013-05-26 20:13:00,69.7,55.2,30.20,East,83,1.5,1.5,60,0.00,,,0.01,VWS V14.01,2013-05-27 00:13:00,
2013-05-26 20:14:00,69.7,54.8,30.20,East,99,3.0,3.0,59,0.00,,,0.01,VWS V14.01,2013-05-27 00:14:00,
2013-05-26 20:15:00,69.7,54.8,30.20,ENE,68,3.0,4.5,59,0.00,,,0.01,VWS V14.01,2013-05-27 00:15:00,
2013-05-26 20:16:00,69.6,55.1,30.20,ESE,105,3.0,4.5,60,0.00,,,0.01,VWS V14.01,2013-05-27 00:16:00,
2013-05-26 20:17:00,69.6,55.1,30.20,East,79,3.0,3.0,60,0.00,,,0.01,VWS V14.01,2013-05-27 00:17:00,
2013-05-26 20:18:00,69.5,55.0,30.20,ENE,78,3.0,3.0,60,0.00,,,0.01,VWS V14.01,2013-05-27 00:18:00,
2013-05-26 20:19:00,69.5,55.0,30.20,East,99,1.5,3.0,60,0.00,,,0.01,VWS V14.01,2013-05-27 00:19:00,
2013-05-26 20:20:00,69.4,54.9,30.20,ESE,119,1.5,3.0,60,0.00,,,0.01,VWS V14.01,2013-05-27 00:20:00,
2013-05-26 20:21:00,69.3,54.8,30.20,SE,133,6.0,6.0,60,0.00,,,0.01,VWS V14.01,2013-05-27 00:21:00,
2013-05-26 20:22:00,69.2,54.7,30.20,ESE,113,7.5,7.5,60,0.00,,,0.01,VWS V14.01,2013-05-27 00:22:00,
2013-05-26 20:23:00,69.1,54.7,30.20,ESE,116,1.5,3.0,60,0.00,,,0.01,VWS V14.01,2013-05-27 00:23:00,
2013-05-26 20:24:00,69.1,54.7,30.20,East,89,1.5,3.0,60,0.00,,,0.01,VWS V14.01,2013-05-27 00:24:00,
2013-05-26 20:25:00,69.0,55.0,30.20,East,101,4.5,6.0,61,0.00,,,0.01,VWS V14.01,2013-05-27 00:25:00,
2013-05-26 20:26:00,68.9,54.9,30.20,East,99,3.0,4.5,61,0.00,,,0.01,VWS V14.01,2013-05-27 00:26:00,
2013-05-26 20:27:00,68.8,54.8,30.20,East,101,1.5,3.0,61,0.00,,,0.01,VWS V14.01,2013-05-27 00:27:00,
2013-05-26 20:28:00,68.7,54.7,30.20,East,81,4.5,4.5,61,0.00,,,0.01,VWS V14.01,2013-05-27 00:28:00,
2013-05-26 20:29:00,68.7,54.7,30.20,ESE,108,3.0,4.5,61,0.00,,,0.01,VWS V14.01,2013-05-27 00:29:00,
2013-05-26 20:30:00,68.5,54.5,30.20,ESE,105,1.5,3.0,61,0.00,,,0.01,VWS V14.01,2013-05-27 00:30:00,
2013-05-26 20:31:00,68.5,55.0,30.20,East,94,4.5,4.5,62,0.00,,,0.01,VWS V14.01,2013-05-27 00:31:00,
2013-05-26 20:32:00,68.4,54.9,30.20,ENE,64,1.5,4.5,62,0.00,,,0.01,VWS V14.01,2013-05-27 00:32:00,
2013-05-26 20:33:00,68.3,54.8,30.20,ENE,64,1.5,1.5,62,0.00,,,0.01,VWS V14.01,2013-05-27 00:33:00,
2013-05-26 20:34:00,68.2,54.7,30.20,ENE,65,3.0,3.0,62,0.00,,,0.01,VWS V14.01,2013-05-27 00:34:00,
2013-05-26 20:35:00,68.2,54.7,30.20,ENE,64,3.0,3.0,62,0.00,,,0.01,VWS V14.01,2013-05-27 00:35:00,
2013-05-26 20:36:00,68.1,54.6,30.20,ENE,78,3.0,4.5,62,0.00,,,0.01,VWS V14.01,2013-05-27 00:36:00,
2013-05-26 20:37:00,68.0,55.0,30.20,ENE,75,1.5,3.0,63,0.00,,,0.01,VWS V14.01,2013-05-27 00:37:00,
2013-05-26 20:38:00,67.9,54.8,30.20,ENE,76,1.5,1.5,63,0.00,,,0.01,VWS V14.01,2013-05-27 00:38:00,
2013-05-26 20:39:00,67.8,54.8,30.20,ESE,103,6.0,6.0,63,0.00,,,0.01,VWS V14.01,2013-05-27 00:39:00,
2013-05-26 20:40:00,67.8,54.8,30.20,East,94,3.0,6.0,63,0.00,,,0.01,VWS V14.01,2013-05-27 00:40:00,
2013-05-26 20:41:00,67.7,54.7,30.20,East,98,3.0,3.0,63,0.00,,,0.01,VWS V14.01,2013-05-27 00:41:00,
2013-05-26 20:42:00,67.6,54.6,30.20,East,83,3.0,3.0,63,0.00,,,0.01,VWS V14.01,2013-05-27 00:42:00,
2013-05-26 20:43:00,67.5,54.5,30.20,East,83,1.5,3.0,63,0.00,,,0.01,VWS V14.01,2013-05-27 00:43:00,
2013-05-26 20:44:00,67.5,54.5,30.20,East,84,3.0,3.0,63,0.00,,,0.01,VWS V14.01,2013-05-27 00:44:00,
2013-05-26 20:45:00,67.5,54.9,30.20,East,84,3.0,3.0,64,0.00,,,0.01,VWS V14.01,2013-05-27 00:45:00,
2013-05-26 20:46:00,67.4,54.8,30.20,East,85,1.5,3.0,64,0.00,,,0.01,VWS V14.01,2013-05-27 00:46:00,
2013-05-26 20:47:00,67.3,54.7,30.20,East,85,1.5,1.5,64,0.00,,,0.01,VWS V14.01,2013-05-27 00:47:00,
2013-05-26 20:48:00,67.3,54.7,30.21,East,98,1.5,3.0,64,0.00,,,0.01,VWS V14.01,2013-05-27 00:48:00,
2013-05-26 20:49:00,67.2,54.6,30.21,East,96,3.0,3.0,64,0.00,,,0.01,VWS V14.01,2013-05-27 00:49:00,
2013-05-26 20:50:00,67.2,54.6,30.21,East,96,1.5,3.0,64,0.00,,,0.01,VWS V14.01,2013-05-27 00:50:00,
2013-05-26 20:51:00,67.1,54.5,30.21,East,96,1.5,1.5,64,0.00,,,0.01,VWS V14.01,2013-05-27 00:51:00,
2013-05-26 20:52:00,67.1,54.5,30.21,East,96,1.5,1.5,64,0.00,,,0.01,VWS V14.01,2013-05-27 00:52:00,
2013-05-26 20:53:00,67.0,54.4,30.21,East,96,1.5,1.5,64,0.00,,,0.01,VWS V14.01,2013-05-27 00:53:00,
2013-05-26 20:54:00,66.9,54.3,30.21,East,96,1.5,1.5,64,0.00,,,0.01,VWS V14.01,2013-05-27 00:54:00,
2013-05-26 20:55:00,66.9,54.8,30.21,East,96,1.5,1.5,65,0.00,,,0.01,VWS V14.01,2013-05-27 00:55:00,
2013-05-26 20:56:00,66.8,54.7,30.21,East,96,1.5,1.5,65,0.00,,,0.01,VWS V14.01,2013-05-27 00:56:00,
2013-05-26 20:57:00,66.7,54.6,30.21,NE,35,1.5,1.5,65,0.00,,,0.01,VWS V14.01,2013-05-27 00:57:00,
2013-05-26 20:58:00,66.7,54.6,30.21,NE,35,1.5,1.5,65,0.00,,,0.01,VWS V14.01,2013-05-27 00:58:00,
2013-05-26 20:59:00,66.6,54.5,30.21,NE,35,1.5,3.0,65,0.00,,,0.01,VWS V14.01,2013-05-27 00:59:00,
2013-05-26 21:00:00,66.6,54.5,30.21,NE,35,1.5,3.0,65,0.00,,,0.01,VWS V14.01,2013-05-27 01:00:00,
2013-05-26 21:01:00,66.5,54.4,30.21,NE,37,1.5,3.0,65,0.00,,,0.01,VWS V14.01,2013-05-27 01:01:00,
2013-05-26 21:02:00,66.5,54.4,30.21,NE,38,1.5,1.5,65,0.00,,,0.01,VWS V14.01,2013-05-27 01:02:00,
2013-05-26 21:03:00,66.4,54.3,30.21,NE,45,1.5,1.5,65,0.00,,,0.01,VWS V14.01,2013-05-27 01:03:00,
2013-05-26 21:04:00,66.3,54.6,30.21,NE,44,1.5,1.5,66,0.00,,,0.01,VWS V14.01,2013-05-27 01:04:00,
2013-05-26 21:05:00,66.3,54.6,30.21,NE,44,1.5,1.5,66,0.00,,,0.01,VWS V14.01,2013-05-27 01:05:00,
2013-05-26 21:06:00,66.2,54.5,30.21,NE,44,1.5,3.0,66,0.00,,,0.01,VWS V14.01,2013-05-27 01:06:00,
2013-05-26 21:07:00,66.1,54.4,30.21,NE,44,1.5,1.5,66,0.00,,,0.01,VWS V14.01,2013-05-27 01:07:00,
2013-05-26 21:08:00,66.0,54.3,30.21,NE,45,1.5,1.5,66,0.00,,,0.01,VWS V14.01,2013-05-27 01:08:00,
2013-05-26 21:09:00,66.0,54.7,30.21,NE,44,1.5,1.5,67,0.00,,,0.01,VWS V14.01,2013-05-27 01:09:00,
2013-05-26 21:10:00,65.9,54.7,30.21,NE,44,1.5,1.5,67,0.00,,,0.01,VWS V14.01,2013-05-27 01:10:00,
2013-05-26 21:11:00,65.9,54.7,30.21,NE,44,1.5,1.5,67,0.00,,,0.01,VWS V14.01,2013-05-27 01:11:00,
2013-05-26 21:12:00,65.8,54.5,30.21,NE,44,1.5,1.5,67,0.00,,,0.01,VWS V14.01,2013-05-27 01:12:00,
2013-05-26 21:13:00,65.7,54.9,30.21,NE,44,1.5,1.5,68,0.00,,,0.01,VWS V14.01,2013-05-27 01:13:00,
2013-05-26 21:14:00,65.6,54.8,30.21,NE,44,1.5,1.5,68,0.00,,,0.01,VWS V14.01,2013-05-27 01:14:00,
2013-05-26 21:15:00,65.5,54.7,30.21,NE,45,1.5,1.5,68,0.00,,,0.01,VWS V14.01,2013-05-27 01:15:00,
2013-05-26 21:16:00,65.4,54.6,30.21,NE,45,1.5,1.5,68,0.00,,,0.01,VWS V14.01,2013-05-27 01:16:00,
2013-05-26 21:17:00,65.3,54.5,30.21,NE,44,1.5,1.5,68,0.00,,,0.01,VWS V14.01,2013-05-27 01:17:00,
2013-05-26 21:18:00,65.2,54.8,30.21,NE,44,1.5,1.5,69,0.00,,,0.01,VWS V14.01,2013-05-27 01:18:00,
2013-05-26 21:19:00,65.1,55.1,30.21,NE,44,1.5,1.5,70,0.00,,,0.01,VWS V14.01,2013-05-27 01:19:00,
2013-05-26 21:20:00,65.0,55.0,30.21,NE,44,1.5,1.5,70,0.00,,,0.01,VWS V14.01,2013-05-27 01:20:00,
2013-05-26 21:21:00,64.9,55.3,30.21,NE,44,1.5,1.5,71,0.00,,,0.01,VWS V14.01,2013-05-27 01:21:00,
2013-05-26 21:22:00,64.7,54.7,30.21,NE,44,1.5,1.5,70,0.00,,,0.01,VWS V14.01,2013-05-27 01:22:00,
2013-05-26 21:23:00,64.6,54.6,30.21,NE,45,1.5,1.5,70,0.00,,,0.01,VWS V14.01,2013-05-27 01:23:00,
2013-05-26 21:24:00,64.5,54.5,30.21,NE,45,1.5,1.5,70,0.00,,,0.01,VWS V14.01,2013-05-27 01:24:00,
2013-05-26 21:25:00,64.4,54.4,30.21,NE,44,1.5,1.5,70,0.00,,,0.01,VWS V14.01,2013-05-27 01:25:00,
2013-05-26 21:26:00,64.3,54.7,30.21,NE,45,1.5,1.5,71,0.00,,,0.01,VWS V14.01,2013-05-27 01:26:00,
2013-05-26 21:27:00,64.2,55.0,30.21,NE,44,1.5,1.5,72,0.00,,,0.01,VWS V14.01,2013-05-27 01:27:00,
2013-05-26 21:28:00,64.1,54.9,30.21,NE,45,1.5,1.5,72,0.00,,,0.01,VWS V14.01,2013-05-27 01:28:00,
2013-05-26 21:29:00,64.0,54.8,30.21,NE,44,1.5,1.5,72,0.00,,,0.01,VWS V14.01,2013-05-27 01:29:00,
2013-05-26 21:30:00,63.9,54.7,30.21,NE,44,1.5,1.5,72,0.00,,,0.01,VWS V14.01,2013-05-27 01:30:00,
2013-05-26 21:31:00,63.7,54.9,30.21,NE,45,1.5,1.5,73,0.00,,,0.01,VWS V14.01,2013-05-27 01:31:00,
2013-05-26 21:32:00,63.7,54.9,30.21,NE,44,1.5,1.5,73,0.00,,,0.01,VWS V14.01,2013-05-27 01:32:00,
2013-05-26 21:33:00,63.6,55.2,30.21,NE,44,1.5,1.5,74,0.00,,,0.01,VWS V14.01,2013-05-27 01:33:00,
2013-05-26 21:34:00,63.4,55.0,30.21,NE,45,1.5,1.5,74,0.00,,,0.01,VWS V14.01,2013-05-27 01:34:00,
2013-05-26 21:35:00,63.4,55.0,30.21,NE,44,1.5,1.5,74,0.00,,,0.01,VWS V14.01,2013-05-27 01:35:00,
2013-05-26 21:36:00,63.3,54.9,30.21,NE,44,1.5,1.5,74,0.00,,,0.01,VWS V14.01,2013-05-27 01:36:00,
2013-05-26 21:37:00,63.2,54.8,30.21,NE,44,1.5,1.5,74,0.00,,,0.01,VWS V14.01,2013-05-27 01:37:00,
2013-05-26 21:38:00,63.1,55.1,30.21,NE,44,1.5,1.5,75,0.00,,,0.01,VWS V14.01,2013-05-27 01:38:00,
2013-05-26 21:39:00,63.0,54.6,30.21,NE,44,1.5,1.5,74,0.00,,,0.01,VWS V14.01,2013-05-27 01:39:00,
2013-05-26 21:40:00,62.9,54.5,30.21,NE,44,1.5,1.5,74,0.00,,,0.01,VWS V14.01,2013-05-27 01:40:00,
2013-05-26 21:41:00,62.8,54.8,30.21,NE,44,1.5,1.5,75,0.00,,,0.01,VWS V14.01,2013-05-27 01:41:00,
2013-05-26 21:42:00,62.8,54.8,30.21,NE,44,1.5,1.5,75,0.00,,,0.01,VWS V14.01,2013-05-27 01:42:00,
2013-05-26 21:43:00,62.6,54.6,30.21,NE,44,1.5,1.5,75,0.00,,,0.01,VWS V14.01,2013-05-27 01:43:00,
2013-05-26 21:44:00,62.6,54.6,30.21,NE,45,1.5,1.5,75,0.00,,,0.01,VWS V14.01,2013-05-27 01:44:00,
2013-05-26 21:45:00,62.5,54.5,30.21,NE,44,1.5,1.5,75,0.00,,,0.01,VWS V14.01,2013-05-27 01:45:00,
2013-05-26 21:46:00,62.4,54.4,30.21,NE,44,1.5,1.5,75,0.00,,,0.01,VWS V14.01,2013-05-27 01:46:00,
2013-05-26 21:47:00,62.4,54.7,30.21,NE,44,1.5,1.5,76,0.00,,,0.01,VWS V14.01,2013-05-27 01:47:00,
2013-05-26 21:48:00,62.3,54.7,30.21,NE,44,1.5,1.5,76,0.00,,,0.01,VWS V14.01,2013-05-27 01:48:00,
2013-05-26 21:49:00,62.3,54.7,30.21,NE,44,1.5,1.5,76,0.00,,,0.01,VWS V14.01,2013-05-27 01:49:00,
2013-05-26 21:50:00,62.2,54.2,30.21,NE,45,1.5,1.5,75,0.00,,,0.01,VWS V14.01,2013-05-27 01:50:00,
2013-05-26 21:51:00,62.3,54.3,30.21,NE,44,1.5,1.5,75,0.00,,,0.01,VWS V14.01,2013-05-27 01:51:00,
2013-05-26 21:52:00,62.3,54.3,30.21,NE,44,1.5,1.5,75,0.00,,,0.01,VWS V14.01,2013-05-27 01:52:00,
2013-05-26 21:53:00,62.3,54.3,30.21,NE,44,1.5,1.5,75,0.00,,,0.01,VWS V14.01,2013-05-27 01:53:00,
2013-05-26 21:54:00,62.3,54.3,30.21,NE,44,1.5,1.5,75,0.00,,,0.01,VWS V14.01,2013-05-27 01:54:00,
2013-05-26 21:55:00,62.3,54.3,30.21,NE,44,1.5,1.5,75,0.00,,,0.01,VWS V14.01,2013-05-27 01:55:00,
2013-05-26 21:56:00,62.3,54.3,30.21,NE,44,1.5,1.5,75,0.00,,,0.01,VWS V14.01,2013-05-27 01:56:00,
2013-05-26 21:57:00,62.2,53.8,30.21,NE,44,1.5,1.5,74,0.00,,,0.01,VWS V14.01,2013-05-27 01:57:00,
2013-05-26 21:58:00,62.2,53.8,30.21,NE,44,1.5,1.5,74,0.00,,,0.01,VWS V14.01,2013-05-27 01:58:00,
2013-05-26 21:59:00,62.2,53.8,30.21,NE,44,1.5,1.5,74,0.00,,,0.01,VWS V14.01,2013-05-27 01:59:00,
2013-05-26 22:00:00,62.1,54.5,30.21,NE,44,1.5,1.5,76,0.00,,,0.01,VWS V14.01,2013-05-27 02:00:00,
2013-05-26 22:01:00,62.0,54.4,30.22,NE,44,1.5,1.5,76,0.00,,,0.01,VWS V14.01,2013-05-27 02:01:00,
2013-05-26 22:02:00,61.9,54.6,30.22,NE,44,1.5,1.5,77,0.00,,,0.01,VWS V14.01,2013-05-27 02:02:00,
2013-05-26 22:03:00,61.9,54.6,30.22,NE,44,1.5,1.5,77,0.00,,,0.01,VWS V14.01,2013-05-27 02:03:00,
2013-05-26 22:04:00,61.9,54.6,30.21,NE,44,1.5,1.5,77,0.00,,,0.01,VWS V14.01,2013-05-27 02:04:00,
2013-05-26 22:05:00,61.8,54.5,30.21,NE,45,1.5,1.5,77,0.00,,,0.01,VWS V14.01,2013-05-27 02:05:00,
2013-05-26 22:06:00,61.7,54.4,30.21,NE,45,1.5,1.5,77,0.00,,,0.01,VWS V14.01,2013-05-27 02:06:00,
2013-05-26 22:07:00,61.6,54.3,30.21,NE,44,1.5,1.5,77,0.00,,,0.01,VWS V14.01,2013-05-27 02:07:00,
2013-05-26 22:08:00,61.6,54.3,30.21,NE,44,1.5,1.5,77,0.00,,,0.01,VWS V14.01,2013-05-27 02:08:00,
2013-05-26 22:09:00,61.5,54.2,30.21,NE,45,1.5,1.5,77,0.00,,,0.01,VWS V14.01,2013-05-27 02:09:00,
2013-05-26 22:10:00,61.4,54.1,30.21,NE,44,1.5,1.5,77,0.00,,,0.01,VWS V14.01,2013-05-27 02:10:00,
2013-05-26 22:11:00,61.4,54.1,30.21,NE,45,1.5,1.5,77,0.00,,,0.01,VWS V14.01,2013-05-27 02:11:00,
2013-05-26 22:12:00,61.2,54.3,30.21,NE,44,1.5,1.5,78,0.00,,,0.01,VWS V14.01,2013-05-27 02:12:00,
2013-05-26 22:13:00,61.2,54.3,30.21,NE,44,1.5,1.5,78,0.00,,,0.01,VWS V14.01,2013-05-27 02:13:00,
2013-05-26 22:14:00,61.2,54.3,30.22,NE,44,1.5,1.5,78,0.00,,,0.01,VWS V14.01,2013-05-27 02:14:00,
2013-05-26 22:15:00,61.2,54.3,30.22,NE,44,1.5,1.5,78,0.00,,,0.01,VWS V14.01,2013-05-27 02:15:00,
2013-05-26 22:16:00,61.1,54.2,30.21,NE,44,1.5,1.5,78,0.00,,,0.01,VWS V14.01,2013-05-27 02:16:00,
2013-05-26 22:17:00,61.1,54.5,30.21,NE,42,1.5,1.5,79,0.00,,,0.01,VWS V14.01,2013-05-27 02:17:00,
2013-05-26 22:18:00,61.1,54.5,30.21,NE,42,1.5,1.5,79,0.00,,,0.01,VWS V14.01,2013-05-27 02:18:00,
2013-05-26 22:19:00,61.2,54.6,30.21,NE,42,1.5,1.5,79,0.00,,,0.01,VWS V14.01,2013-05-27 02:19:00,
2013-05-26 22:20:00,61.2,54.6,30.21,NE,42,1.5,1.5,79,0.00,,,0.01,VWS V14.01,2013-05-27 02:20:00,
2013-05-26 22:21:00,61.2,54.3,30.21,NE,42,1.5,1.5,78,0.00,,,0.01,VWS V14.01,2013-05-27 02:21:00,
2013-05-26 22:22:00,61.2,54.3,30.21,NE,42,1.5,1.5,78,0.00,,,0.01,VWS V14.01,2013-05-27 02:22:00,
2013-05-26 22:23:00,61.2,54.3,30.21,NE,42,1.5,1.5,78,0.00,,,0.01,VWS V14.01,2013-05-27 02:23:00,
2013-05-26 22:24:00,61.3,54.4,30.21,NE,43,1.5,1.5,78,0.00,,,0.01,VWS V14.01,2013-05-27 02:24:00,
2013-05-26 22:25:00,61.2,53.9,30.21,NE,42,1.5,1.5,77,0.00,,,0.01,VWS V14.01,2013-05-27 02:25:00,
2013-05-26 22:26:00,61.3,54.0,30.22,NE,43,1.5,1.5,77,0.00,,,0.01,VWS V14.01,2013-05-27 02:26:00,
2013-05-26 22:27:00,61.3,54.7,30.22,NE,42,1.5,1.5,79,0.00,,,0.01,VWS V14.01,2013-05-27 02:27:00,
2013-05-26 22:28:00,61.3,54.7,30.22,NE,42,1.5,1.5,79,0.00,,,0.01,VWS V14.01,2013-05-27 02:28:00,
2013-05-26 22:29:00,61.3,54.4,30.22,NE,42,1.5,1.5,78,0.00,,,0.01,VWS V14.01,2013-05-27 02:29:00,
2013-05-26 22:30:00,61.4,54.5,30.22,NE,42,1.5,1.5,78,0.00,,,0.01,VWS V14.01,2013-05-27 02:30:00,
2013-05-26 22:31:00,61.4,54.5,30.22,NE,42,1.5,1.5,78,0.00,,,0.01,VWS V14.01,2013-05-27 02:31:00,
2013-05-26 22:32:00,61.4,54.1,30.22,NE,42,1.5,1.5,77,0.00,,,0.01,VWS V14.01,2013-05-27 02:32:00,
2013-05-26 22:33:00,61.4,54.1,30.22,NE,42,1.5,1.5,77,0.00,,,0.01,VWS V14.01,2013-05-27 02:33:00,
2013-05-26 22:34:00,61.4,54.1,30.22,NE,42,1.5,1.5,77,0.00,,,0.01,VWS V14.01,2013-05-27 02:34:00,
2013-05-26 22:35:00,61.4,54.1,30.22,NE,43,1.5,1.5,77,0.00,,,0.01,VWS V14.01,2013-05-27 02:35:00,
2013-05-26 22:36:00,61.4,54.1,30.22,NE,42,1.5,1.5,77,0.00,,,0.01,VWS V14.01,2013-05-27 02:36:00,
2013-05-26 22:37:00,61.3,54.0,30.22,NE,42,1.5,1.5,77,0.00,,,0.01,VWS V14.01,2013-05-27 02:37:00,
2013-05-26 22:38:00,61.3,54.0,30.22,NE,42,1.5,1.5,77,0.00,,,0.01,VWS V14.01,2013-05-27 02:38:00,
2013-05-26 22:39:00,61.3,54.0,30.22,NE,42,1.5,1.5,77,0.00,,,0.01,VWS V14.01,2013-05-27 02:39:00,
2013-05-26 22:40:00,61.3,54.0,30.22,NE,43,1.5,1.5,77,0.00,,,0.01,VWS V14.01,2013-05-27 02:40:00,
2013-05-26 22:41:00,61.2,53.9,30.22,NE,42,1.5,1.5,77,0.00,,,0.01,VWS V14.01,2013-05-27 02:41:00,
2013-05-26 22:42:00,61.1,53.8,30.23,NE,42,1.5,1.5,77,0.00,,,0.01,VWS V14.01,2013-05-27 02:42:00,
2013-05-26 22:43:00,61.1,53.8,30.23,NE,42,1.5,1.5,77,0.00,,,0.01,VWS V14.01,2013-05-27 02:43:00,
2013-05-26 22:44:00,61.1,53.8,30.23,NE,42,1.5,1.5,77,0.00,,,0.01,VWS V14.01,2013-05-27 02:44:00,
2013-05-26 22:45:00,61.0,54.1,30.23,NE,42,1.5,1.5,78,0.00,,,0.01,VWS V14.01,2013-05-27 02:45:00,
2013-05-26 22:46:00,61.0,54.5,30.23,NE,42,1.5,1.5,79,0.00,,,0.01,VWS V14.01,2013-05-27 02:46:00,
2013-05-26 22:47:00,61.1,54.5,30.23,NE,42,1.5,1.5,79,0.00,,,0.01,VWS V14.01,2013-05-27 02:47:00,
2013-05-26 22:48:00,61.1,54.5,30.23,NE,42,1.5,1.5,79,0.00,,,0.01,VWS V14.01,2013-05-27 02:48:00,
2013-05-26 22:49:00,61.2,54.6,30.23,NE,42,1.5,1.5,79,0.00,,,0.01,VWS V14.01,2013-05-27 02:49:00,
2013-05-26 22:50:00,61.2,54.6,30.23,NE,42,1.5,1.5,79,0.00,,,0.01,VWS V14.01,2013-05-27 02:50:00,
2013-05-26 22:51:00,61.2,54.6,30.23,NE,42,1.5,1.5,79,0.00,,,0.01,VWS V14.01,2013-05-27 02:51:00,
2013-05-26 22:52:00,61.3,54.7,30.23,NE,42,1.5,1.5,79,0.00,,,0.01,VWS V14.01,2013-05-27 02:52:00,
2013-05-26 22:53:00,61.3,54.7,30.23,NE,42,1.5,1.5,79,0.00,,,0.01,VWS V14.01,2013-05-27 02:53:00,
2013-05-26 22:54:00,61.3,54.7,30.23,NE,42,1.5,1.5,79,0.00,,,0.01,VWS V14.01,2013-05-27 02:54:00,
2013-05-26 22:55:00,61.4,54.8,30.23,NE,42,1.5,1.5,79,0.00,,,0.01,VWS V14.01,2013-05-27 02:55:00,
2013-05-26 22:56:00,61.4,54.5,30.23,NE,42,1.5,1.5,78,0.00,,,0.01,VWS V14.01,2013-05-27 02:56:00,
2013-05-26 22:57:00,61.4,54.8,30.23,NE,42,1.5,1.5,79,0.00,,,0.01,VWS V14.01,2013-05-27 02:57:00,
2013-05-26 22:58:00,61.5,54.9,30.23,NE,42,1.5,1.5,79,0.00,,,0.01,VWS V14.01,2013-05-27 02:58:00,
2013-05-26 22:59:00,61.5,54.6,30.23,NE,42,1.5,1.5,78,0.00,,,0.01,VWS V14.01,2013-05-27 02:59:00,
2013-05-26 23:00:00,61.5,54.6,30.23,NE,43,1.5,1.5,78,0.00,,,0.01,VWS V14.01,2013-05-27 03:00:00,
2013-05-26 23:01:00,61.5,54.6,30.23,NE,42,1.5,1.5,78,0.00,,,0.01,VWS V14.01,2013-05-27 03:01:00,
2013-05-26 23:02:00,61.6,54.7,30.23,NE,43,1.5,1.5,78,0.00,,,0.01,VWS V14.01,2013-05-27 03:02:00,
2013-05-26 23:03:00,61.6,54.7,30.23,NE,42,1.5,1.5,78,0.00,,,0.01,VWS V14.01,2013-05-27 03:03:00,
2013-05-26 23:04:00,61.6,54.7,30.23,NE,42,1.5,1.5,78,0.00,,,0.01,VWS V14.01,2013-05-27 03:04:00,
2013-05-26 23:05:00,61.6,54.7,30.23,NE,42,1.5,1.5,78,0.00,,,0.01,VWS V14.01,2013-05-27 03:05:00,
2013-05-26 23:06:00,61.7,54.8,30.23,NE,42,1.5,1.5,78,0.00,,,0.01,VWS V14.01,2013-05-27 03:06:00,
2013-05-26 23:07:00,61.8,54.5,30.23,NE,42,1.5,1.5,77,0.00,,,0.01,VWS V14.01,2013-05-27 03:07:00,
2013-05-26 23:08:00,61.7,54.4,30.23,NE,42,1.5,1.5,77,0.00,,,0.01,VWS V14.01,2013-05-27 03:08:00,
2013-05-26 23:09:00,61.8,54.9,30.23,NE,42,1.5,1.5,78,0.00,,,0.01,VWS V14.01,2013-05-27 03:09:00,
2013-05-26 23:10:00,61.8,54.9,30.23,NE,42,1.5,1.5,78,0.00,,,0.01,VWS V14.01,2013-05-27 03:10:00,
2013-05-26 23:11:00,61.8,54.9,30.23,NE,42,1.5,1.5,78,0.00,,,0.01,VWS V14.01,2013-05-27 03:11:00,
2013-05-26 23:12:00,61.7,54.8,30.23,NE,42,1.5,1.5,78,0.00,,,0.01,VWS V14.01,2013-05-27 03:12:00,
2013-05-26 23:13:00,61.8,54.9,30.23,NE,42,1.5,1.5,78,0.00,,,0.01,VWS V14.01,2013-05-27 03:13:00,
2013-05-26 23:14:00,61.7,54.8,30.23,NE,42,1.5,1.5,78,0.00,,,0.01,VWS V14.01,2013-05-27 03:14:00,
2013-05-26 23:15:00,61.7,54.8,30.23,NE,42,1.5,1.5,78,0.00,,,0.01,VWS V14.01,2013-05-27 03:15:00,
2013-05-26 23:16:00,61.7,54.8,30.23,NE,42,1.5,1.5,78,0.00,,,0.01,VWS V14.01,2013-05-27 03:16:00,
2013-05-26 23:17:00,61.8,54.9,30.23,NE,43,1.5,1.5,78,0.00,,,0.01,VWS V14.01,2013-05-27 03:17:00,
2013-05-26 23:18:00,61.8,54.9,30.23,NE,42,1.5,1.5,78,0.00,,,0.01,VWS V14.01,2013-05-27 03:18:00,
2013-05-26 23:19:00,61.8,54.9,30.23,NE,42,1.5,1.5,78,0.00,,,0.01,VWS V14.01,2013-05-27 03:19:00,
2013-05-26 23:20:00,61.8,54.9,30.23,NE,42,1.5,1.5,78,0.00,,,0.01,VWS V14.01,2013-05-27 03:20:00,
2013-05-26 23:21:00,61.8,54.9,30.23,NE,42,1.5,1.5,78,0.00,,,0.01,VWS V14.01,2013-05-27 03:21:00,
2013-05-26 23:22:00,61.9,55.0,30.23,NE,42,1.5,1.5,78,0.00,,,0.01,VWS V14.01,2013-05-27 03:22:00,
2013-05-26 23:23:00,61.9,55.0,30.23,NE,42,1.5,1.5,78,0.00,,,0.01,VWS V14.01,2013-05-27 03:23:00,
2013-05-26 23:24:00,61.9,55.0,30.23,NE,42,1.5,1.5,78,0.00,,,0.01,VWS V14.01,2013-05-27 03:24:00,
2013-05-26 23:25:00,61.8,54.9,30.23,NE,43,1.5,1.5,78,0.00,,,0.01,VWS V14.01,2013-05-27 03:25:00,
2013-05-26 23:26:00,61.8,54.9,30.23,NE,42,1.5,1.5,78,0.00,,,0.01,VWS V14.01,2013-05-27 03:26:00,
2013-05-26 23:27:00,61.8,54.5,30.23,NE,42,1.5,1.5,77,0.00,,,0.01,VWS V14.01,2013-05-27 03:27:00,
2013-05-26 23:28:00,61.8,54.5,30.23,NE,42,1.5,1.5,77,0.00,,,0.01,VWS V14.01,2013-05-27 03:28:00,
2013-05-26 23:29:00,61.8,54.5,30.23,NE,42,1.5,1.5,77,0.00,,,0.01,VWS V14.01,2013-05-27 03:29:00,
2013-05-26 23:30:00,61.8,54.5,30.23,NE,42,1.5,1.5,77,0.00,,,0.01,VWS V14.01,2013-05-27 03:30:00,
2013-05-26 23:31:00,61.9,54.6,30.23,NE,44,1.5,3.0,77,0.00,,,0.01,VWS V14.01,2013-05-27 03:31:00,
2013-05-26 23:32:00,62.0,54.7,30.23,ESE,111,3.0,3.0,77,0.00,,,0.01,VWS V14.01,2013-05-27 03:32:00,
2013-05-26 23:33:00,62.0,54.4,30.23,East,88,3.0,4.5,76,0.00,,,0.01,VWS V14.01,2013-05-27 03:33:00,
2013-05-26 23:34:00,62.1,54.5,30.22,East,89,1.5,4.5,76,0.00,,,0.01,VWS V14.01,2013-05-27 03:34:00,
2013-05-26 23:35:00,62.2,54.5,30.22,East,88,1.5,1.5,76,0.00,,,0.01,VWS V14.01,2013-05-27 03:35:00,
2013-05-26 23:36:00,62.2,54.5,30.22,East,88,1.5,1.5,76,0.00,,,0.01,VWS V14.01,2013-05-27 03:36:00,
2013-05-26 23:37:00,62.2,54.5,30.22,East,94,1.5,3.0,76,0.00,,,0.01,VWS V14.01,2013-05-27 03:37:00,
2013-05-26 23:38:00,62.2,54.5,30.22,East,93,1.5,3.0,76,0.00,,,0.01,VWS V14.01,2013-05-27 03:38:00,
2013-05-26 23:39:00,62.2,54.5,30.22,East,89,1.5,3.0,76,0.00,,,0.01,VWS V14.01,2013-05-27 03:39:00,
2013-05-26 23:40:00,62.2,54.5,30.22,East,90,1.5,1.5,76,0.00,,,0.01,VWS V14.01,2013-05-27 03:40:00,
2013-05-26 23:41:00,62.2,54.5,30.22,East,90,1.5,1.5,76,0.00,,,0.01,VWS V14.01,2013-05-27 03:41:00,
2013-05-26 23:42:00,62.2,54.5,30.23,East,89,1.5,1.5,76,0.00,,,0.01,VWS V14.01,2013-05-27 03:42:00,
2013-05-26 23:43:00,62.2,54.5,30.23,East,89,1.5,1.5,76,0.00,,,0.01,VWS V14.01,2013-05-27 03:43:00,
2013-05-26 23:44:00,62.2,54.5,30.23,East,89,1.5,1.5,76,0.00,,,0.01,VWS V14.01,2013-05-27 03:44:00,
2013-05-26 23:45:00,62.2,54.5,30.22,East,90,3.0,3.0,76,0.00,,,0.01,VWS V14.01,2013-05-27 03:45:00,
2013-05-26 23:46:00,62.2,54.5,30.22,East,89,1.5,3.0,76,0.00,,,0.01,VWS V14.01,2013-05-27 03:46:00,
2013-05-26 23:47:00,62.1,54.8,30.22,East,90,1.5,1.5,77,0.00,,,0.01,VWS V14.01,2013-05-27 03:47:00,
2013-05-26 23:48:00,62.1,54.8,30.22,East,90,1.5,1.5,77,0.00,,,0.01,VWS V14.01,2013-05-27 03:48:00,
2013-05-26 23:49:00,62.1,54.8,30.22,East,89,1.5,1.5,77,0.00,,,0.01,VWS V14.01,2013-05-27 03:49:00,
2013-05-26 23:50:00,62.1,54.8,30.22,East,89,1.5,1.5,77,0.00,,,0.01,VWS V14.01,2013-05-27 03:50:00,
2013-05-26 23:51:00,62.1,54.8,30.22,East,90,1.5,1.5,77,0.00,,,0.01,VWS V14.01,2013-05-27 03:51:00,
2013-05-26 23:52:00,62.1,55.2,30.22,East,80,4.5,4.5,78,0.00,,,0.01,VWS V14.01,2013-05-27 03:52:00,
2013-05-26 23:53:00,62.0,55.1,30.22,East,80,1.5,4.5,78,0.00,,,0.01,VWS V14.01,2013-05-27 03:53:00,
2013-05-26 23:54:00,62.0,55.1,30.21,East,89,3.0,3.0,78,0.00,,,0.01,VWS V14.01,2013-05-27 03:54:00,
2013-05-26 23:55:00,62.0,55.1,30.21,ESE,116,1.5,4.5,78,0.00,,,0.01,VWS V14.01,2013-05-27 03:55:00,
2013-05-26 23:56:00,61.9,55.0,30.21,ESE,122,1.5,3.0,78,0.00,,,0.01,VWS V14.01,2013-05-27 03:56:00,
2013-05-26 23:57:00,61.9,55.0,30.21,ESE,119,3.0,4.5,78,0.00,,,0.01,VWS V14.01,2013-05-27 03:57:00,
2013-05-26 23:58:00,61.8,54.9,30.21,ESE,119,1.5,4.5,78,0.00,,,0.01,VWS V14.01,2013-05-27 03:58:00,
2013-05-26 23:59:00,61.8,54.9,30.21,SSE,157,3.0,3.0,78,0.00,,,0.01,VWS V14.01,2013-05-27 03:59:00,